[[{"header":{"parameterUnit":"m.s-1","parameterCategory":1,"la1":31.0,"la2":29.5877,"lo1":-88.7671,"lo2":-86.6584,"dy":0.0162,"dx":0.0185,"nx":115,"ny":88,"refTime":"2024-07-13T12:00:00:Z","depth":0,"parameterNumber":2,"parameterNumberName":"U-component_of_WINDS"},"data":[0.0,0.0,0.0,0.0,0.0,0.0,0.0,0.0,0.0,0.0,0.0,0.0,0.0,0.0,0.0,0.0,0.0,0.0,0.0,0.0,0.0,0.0,0.0,0.0,0.0,0.0,0.0,0.0,0.0,0.0,0.0,0.0,0.0,0.0,0.0,0.0,0.0,0.0,0.0,0.0,0.0,0.0,0.0,0.0,0.0,0.0,0.0,0.0,0.0,0.0,0.0,0.0,0.0,0.0,0.0,0.0,0.0,0.0,0.0,0.0,0.0,0.0,0.0,0.0,0.0,0.0,0.0,0.0,0.0,0.0,0.0,0.0,0.0,0.0,0.0,0.0,0.0,0.0,0.0,0.0,0.0,0.0,0.0,0.0,0.0,0.0,0.0,0.0,0.0,0.0,0.0,0.0,0.0,0.0,0.0,0.0,0.0,0.0,0.0,0.0,0.0,0.0,0.0,0.0,0.0,0.0,0.0,0.0,0.0,0.0,0.0,0.0,0.0,0.0,0.0,0.0,0.0,0.0,0.0,0.0,0.0,0.0,0.0,0.0,0.0,0.0,0.0,0.0,0.0,0.0,0.0,0.0,0.0,0.0,0.0,0.0,0.0,0.0,0.0,0.0,0.0,0.0,0.0,0.0,0.0,0.0,0.0,0.0,0.0,0.0,0.0,0.0,0.0,0.0,0.0,0.0,0.0,0.0,0.0,0.0,0.0,0.0,0.0,0.0,0.0,0.0,0.0,0.0,0.0,0.0,0.0,0.0,0.0,0.0,0.0,0.0,0.0,0.0,0.0,0.0,0.0,0.0,0.0,0.0,0.0,0.0,0.0,0.0,0.0,0.0,0.0,0.0,0.0,0.0,0.0,0.0,0.0,0.0,0.0,0.0,0.0,0.0,0.0,0.0,0.0,0.0,0.0,0.0,0.0,0.0,0.0,0.0,0.0,0.0,0.0,0.0,0.0,0.0,0.0,0.0,0.0,0.0,0.0,0.0,0.0,0.0,0.0,0.0,0.0,0.0,0.0,0.0,0.0,0.0,0.0,0.0,0.0,0.0,0.0,0.0,0.0,0.0,0.0,0.0,0.0,0.0,0.0,0.0,0.0,0.0,0.0,0.0,0.0,0.0,0.0,0.0,0.0,0.0,0.0,0.0,0.0,0.0,0.0,0.0,0.0,0.0,0.0,0.0,0.0,0.0,0.0,0.0,0.0,0.0,0.0,0.0,0.0,0.0,0.0,0.0,0.0,0.0,0.0,0.0,0.0,0.0,0.0,0.0,0.0,0.0,0.0,0.0,0.0,0.0,0.0,0.0,0.0,0.0,0.0,0.0,0.0,0.0,0.0,0.0,0.0,0.0,0.0,0.0,0.0,0.0,0.0,0.0,0.0,0.0,0.0,0.0,0.0,0.0,0.0,0.0,0.0,0.0,0.0,0.0,0.0,0.0,0.0,0.0,0.0,0.0,0.0,0.0,0.0,0.0,0.0,0.0,0.0,0.0,0.0,0.0,0.0,0.0,0.0,0.0,0.0,0.0,0.0,0.0,0.0,0.0,0.0,0.0,0.0,0.0,0.0,0.0,0.0,0.0,0.0,0.0,0.0,0.0,0.0,0.0,0.0,0.0,0.0,0.0,0.0,0.0,0.0,0.0,0.0,0.0,0.0,0.0,0.0,0.0,0.0,0.0,0.0,0.0,0.0,0.0,0.0,0.0,0.0,0.0,0.0,0.0,0.0,0.0,0.0,0.0,0.0,0.0,0.0,0.0,0.0,0.0,0.0,0.0,0.0,0.0,0.0,0.0,0.0,0.0,0.0,0.0,0.0,0.0,0.0,0.0,0.0,0.0,0.0,0.0,0.0,0.0,0.0,0.0,0.0,0.0,0.0,0.0,0.0,0.0,0.0,0.0,0.0,0.0,0.0,0.0,0.0,0.0,0.0,0.0,0.0,0.0,0.0,0.0,0.0,0.0,0.0,0.0,0.0,0.0,0.0,0.0,0.0,0.0,0.0,0.0,0.0,0.0,0.0,0.0,0.0,0.0,0.0,0.0,0.0,0.0,0.0,0.0,0.0,0.0,0.0,0.0,0.0,0.0,0.0,0.0,0.0,0.0,0.0,0.0,0.0,0.0,0.0,0.0,0.0,0.0,0.0,0.0,0.0,0.0,0.0,0.0,0.0,0.0,0.0,0.0,0.0,0.0,0.0,0.0,0.0,0.0,0.0,0.0,0.0,0.0,0.0,0.0,0.0,0.0,0.0,0.0,0.0,0.0,0.0,0.0,0.0,0.0,0.0,0.0,0.0,0.0,0.0,0.0,0.0,0.0,0.0,0.0,0.0,0.0,0.0,0.0,0.0,0.0,0.0,0.0,0.0,0.0,0.0,0.0,0.0,0.0,0.0,0.0,0.0,0.0,0.0,0.0,0.0,0.0,0.0,0.0,0.0,0.0,0.0,0.0,0.0,0.0,0.0,0.0,0.0,0.0,0.0,0.0,0.0,0.0,0.0,0.0,0.0,0.0,0.0,0.0,0.0,0.0,0.0,0.0,0.0,0.0,0.0,0.0,0.0,0.0,0.0,0.0,0.0,0.0,0.0,0.0,0.0,0.0,0.0,0.0,0.0,0.0,0.0,0.0,0.0,0.0,0.0,0.0,0.0,0.0,0.0,0.0,0.0,0.0,0.0,0.0,0.0,0.0,0.0,0.0,0.0,0.0,0.0,0.0,0.0,0.0,0.0,0.0,0.0,0.0,0.0,0.0,0.0,0.0,0.0,0.0,0.0,0.0,0.0,0.0,0.0,0.0,0.0,0.0,0.0,0.0,0.0,0.0,0.0,0.0,0.0,0.0,0.0,0.0,0.0,0.0,0.0,0.0,0.0,0.0,0.0,0.0,0.0,0.0,0.0,0.0,0.0,0.0,0.0,0.0,0.0,0.0,0.0,0.0,0.0,0.0,0.0,0.0,0.0,0.0,0.0,0.0,0.0,0.0,0.0,0.0,0.0,0.0,0.0,0.0,0.0,0.0,0.0,0.0,0.0,0.0,0.0,0.0,0.0,0.0,0.0,0.0,0.0,0.0,0.0,0.0,0.0,0.0,0.0,0.0,0.0,0.0,0.0,0.0,0.0,0.0,0.0,0.0,0.0,0.0,0.0,0.0,0.0,0.0,0.0,0.0,0.0,0.0,0.0,0.0,0.0,0.0,0.0,0.0,0.0,0.0,0.0,0.0,0.0,0.0,0.0,0.0,0.0,0.0,0.0,0.0,0.0,0.0,0.0,0.0,0.0,0.0,0.0,0.0,0.0,0.0,0.0,0.0,0.0,0.0,0.0,0.0,0.0,0.0,0.0,0.0,0.0,0.0,0.0,0.0,0.0,0.0,0.0,0.0,0.0,0.0,0.0,0.0,0.0,0.0,0.0,0.0,0.0,0.0,0.0,0.0,0.0,0.0,0.0,0.0,0.0,0.0,0.0,0.0,0.0,0.0,0.0,0.0,0.0,0.0,0.0,0.0,0.0,0.0,0.0,0.0,0.0,0.0,0.0,0.0,0.0,0.0,0.0,0.0,0.0,0.0,0.0,0.0,0.0,0.0,0.0,0.0,0.0,0.0,0.0,0.0,0.0,0.0,0.0,0.0,0.0,0.0,0.0,0.0,0.0,0.0,0.0,0.0,0.0,0.0,0.0,0.0,0.0,0.0,0.0,0.0,0.0,0.0,0.0,0.0,0.0,0.0,0.0,0.0,0.0,0.0,0.0,0.0,0.0,0.0,0.0,0.0,0.0,0.0,0.0,0.0,0.0,0.0,0.0,0.0,0.0,0.0,0.0,0.0,0.0,0.0,0.0,0.0,0.0,0.0,0.0,0.0,0.0,0.0,0.0,0.0,0.0,0.0,0.0,0.0,0.0,0.0,0.0,0.0,0.0,0.0,0.0,0.0,0.0,0.0,0.0,0.0,0.0,0.0,0.0,0.0,0.0,0.0,0.0,0.0,0.0,0.0,0.0,0.0,0.0,0.0,0.0,0.0,0.0,0.0,0.0,0.0,0.0,0.0,0.0,0.0,0.0,0.0,0.0,0.0,0.0,0.0,0.0,0.0,0.0,0.0,0.0,0.0,0.0,0.0,0.0,0.0,0.0,0.0,0.0,0.0,0.0,0.0,0.0,0.0,0.0,0.0,0.0,0.0,0.0,0.0,0.0,0.0,0.0,0.0,0.0,0.0,0.0,0.0,0.0,0.0,0.0,0.0,0.0,0.0,0.0,0.0,0.0,0.0,0.0,0.0,-1.951,0.0,0.0,0.0,0.0,0.0,0.0,0.0,0.0,0.0,0.0,0.0,0.0,0.0,0.0,0.0,0.0,0.0,0.0,0.0,0.0,0.0,0.0,0.0,0.0,0.0,0.0,0.0,0.0,0.0,0.0,0.0,0.0,0.0,0.0,0.0,0.0,0.0,0.0,0.0,0.0,0.0,0.0,0.0,0.0,0.0,0.0,0.0,0.0,0.0,0.0,0.0,0.0,0.0,0.0,0.0,0.0,0.0,0.0,0.0,0.0,0.0,0.0,0.0,0.0,0.0,0.0,0.0,0.0,0.0,0.0,0.0,0.0,0.0,0.0,0.0,0.0,0.0,0.0,0.0,0.0,0.0,0.0,0.0,0.0,0.0,0.0,0.0,0.0,0.0,0.0,0.0,0.0,0.0,0.0,0.0,0.0,0.0,0.0,0.0,0.0,0.0,0.0,0.0,0.0,0.0,0.0,0.0,0.0,0.0,0.0,-2.2189,-2.2754,-2.2249,-2.1393,-2.0145,0.0,0.0,0.0,0.0,0.0,0.0,0.0,0.0,0.0,0.0,0.0,0.0,0.0,0.0,0.0,0.0,0.0,0.0,0.0,0.0,0.0,0.0,0.0,0.0,0.0,0.0,0.0,0.0,0.0,0.0,0.0,0.0,0.0,0.0,0.0,0.0,0.0,0.0,0.0,0.0,0.0,0.0,0.0,0.0,0.0,0.0,0.0,0.0,0.0,0.0,0.0,0.0,0.0,0.0,0.0,0.0,0.0,0.0,0.0,0.0,0.0,0.0,0.0,0.0,0.0,0.0,0.0,0.0,0.0,0.0,0.0,0.0,0.0,0.0,0.0,0.0,0.0,0.0,0.0,0.0,0.0,0.0,0.0,0.0,0.0,0.0,0.0,0.0,0.0,0.0,0.0,0.0,0.0,0.0,0.0,0.0,0.0,0.0,0.0,0.0,0.0,0.0,0.0,0.0,0.0,0.0,0.0,0.0,0.0,0.0,0.0,0.0,-2.4096,-2.2772,-2.0431,0.0,0.0,0.0,0.0,0.0,0.0,0.0,0.0,0.0,0.0,0.0,0.0,0.0,0.0,0.0,0.0,0.0,0.0,0.0,0.0,0.0,0.0,0.0,0.0,0.0,0.0,0.0,0.0,0.0,0.0,0.0,0.0,0.0,0.0,0.0,0.0,0.0,0.0,0.0,0.0,0.0,0.0,0.0,0.0,0.0,0.0,0.0,0.0,0.0,0.0,0.0,0.0,0.0,0.0,0.0,0.0,0.0,0.0,0.0,0.0,0.0,0.0,0.0,0.0,0.0,0.0,0.0,0.0,0.0,0.0,0.0,0.0,0.0,0.0,0.0,0.0,0.0,0.0,0.0,0.0,0.0,0.0,0.0,0.0,0.0,0.0,0.0,0.0,0.0,0.0,0.0,0.0,0.0,0.0,0.0,0.0,0.0,0.0,0.0,0.0,0.0,0.0,0.0,0.0,0.0,0.0,0.0,0.0,0.0,0.0,-2.4804,-2.5702,-2.5047,0.0,-2.0179,0.0,0.0,0.0,0.0,0.0,0.0,0.0,0.0,0.0,0.0,0.0,0.0,0.0,0.0,0.0,0.0,0.0,0.0,0.0,0.0,0.0,0.0,0.0,0.0,0.0,0.0,0.0,0.0,0.0,0.0,0.0,0.0,0.0,0.0,0.0,0.0,0.0,0.0,0.0,0.0,0.0,0.0,0.0,0.0,0.0,0.0,0.0,0.0,0.0,0.0,0.0,0.0,0.0,0.0,0.0,0.0,0.0,0.0,0.0,0.0,0.0,0.0,0.0,0.0,0.0,0.0,0.0,0.0,0.0,0.0,0.0,0.0,0.0,0.0,0.0,0.0,0.0,0.0,0.0,0.0,0.0,0.0,0.0,0.0,0.0,0.0,0.0,0.0,0.0,0.0,0.0,0.0,0.0,0.0,0.0,0.0,0.0,0.0,0.0,0.0,0.0,0.0,0.0,0.0,0.0,0.0,0.0,0.0,0.0,0.0,0.0,-2.6478,-2.4358,-2.2435,0.0,0.0,0.0,0.0,0.0,0.0,0.0,0.0,0.0,0.0,0.0,0.0,0.0,0.0,0.0,0.0,0.0,0.0,0.0,0.0,0.0,0.0,0.0,0.0,0.0,0.0,0.0,0.0,0.0,0.0,0.0,0.0,0.0,0.0,0.0,0.0,0.0,0.0,0.0,0.0,0.0,0.0,0.0,0.0,0.0,0.0,0.0,0.0,0.0,0.0,0.0,0.0,0.0,0.0,0.0,0.0,0.0,0.0,0.0,0.0,0.0,0.0,0.0,0.0,0.0,0.0,0.0,0.0,0.0,0.0,0.0,0.0,0.0,0.0,0.0,0.0,0.0,0.0,0.0,0.0,0.0,0.0,0.0,0.0,0.0,0.0,0.0,0.0,0.0,0.0,0.0,0.0,0.0,0.0,0.0,0.0,0.0,0.0,0.0,0.0,0.0,0.0,0.0,0.0,0.0,0.0,0.0,0.0,0.0,0.0,-2.6447,0.0,-2.701,-2.4671,-2.2757,-2.154,0.0,0.0,0.0,0.0,0.0,0.0,0.0,0.0,0.0,0.0,0.0,0.0,0.0,0.0,0.0,0.0,0.0,0.0,0.0,0.0,0.0,0.0,0.0,0.0,0.0,0.0,0.0,0.0,0.0,0.0,0.0,0.0,0.0,0.0,0.0,0.0,0.0,0.0,0.0,0.0,0.0,0.0,0.0,0.0,0.0,0.0,0.0,0.0,0.0,0.0,0.0,0.0,0.0,0.0,0.0,0.0,0.0,0.0,0.0,0.0,0.0,0.0,0.0,0.0,0.0,0.0,0.0,0.0,0.0,0.0,0.0,0.0,0.0,0.0,0.0,0.0,0.0,0.0,0.0,0.0,0.0,0.0,0.0,0.0,0.0,0.0,0.0,0.0,0.0,0.0,0.0,0.0,0.0,0.0,0.0,0.0,0.0,0.0,0.0,0.0,0.0,0.0,0.0,0.0,0.0,0.0,0.0,0.0,0.0,-2.8352,-2.8373,-2.7783,-2.6809,-2.4889,0.0,0.0,0.0,0.0,0.0,0.0,0.0,0.0,0.0,0.0,0.0,0.0,0.0,0.0,0.0,0.0,0.0,0.0,0.0,0.0,0.0,0.0,0.0,0.0,0.0,0.0,0.0,0.0,0.0,0.0,0.0,0.0,0.0,0.0,0.0,0.0,0.0,0.0,0.0,0.0,0.0,0.0,0.0,0.0,0.0,0.0,0.0,0.0,0.0,0.0,0.0,0.0,0.0,0.0,0.0,0.0,0.0,0.0,0.0,0.0,0.0,0.0,0.0,0.0,0.0,0.0,0.0,0.0,0.0,0.0,0.0,0.0,0.0,0.0,0.0,0.0,0.0,0.0,0.0,0.0,0.0,0.0,0.0,0.0,0.0,0.0,0.0,0.0,0.0,0.0,0.0,0.0,0.0,0.0,0.0,0.0,0.0,0.0,0.0,0.0,0.0,0.0,0.0,0.0,0.0,0.0,0.0,0.0,0.0,-2.7951,-2.9022,-2.9308,-2.8837,-2.6264,-2.4169,0.0,0.0,0.0,0.0,0.0,0.0,0.0,0.0,0.0,0.0,0.0,0.0,0.0,0.0,0.0,0.0,0.0,0.0,0.0,0.0,0.0,0.0,0.0,0.0,0.0,0.0,0.0,0.0,0.0,0.0,0.0,0.0,0.0,0.0,0.0,0.0,0.0,0.0,0.0,0.0,0.0,0.0,0.0,0.0,0.0,0.0,0.0,0.0,0.0,0.0,0.0,0.0,0.0,0.0,0.0,0.0,0.0,0.0,0.0,0.0,0.0,0.0,0.0,0.0,0.0,0.0,0.0,0.0,0.0,0.0,0.0,0.0,0.0,0.0,0.0,0.0,0.0,0.0,0.0,0.0,0.0,0.0,0.0,0.0,0.0,0.0,0.0,0.0,0.0,0.0,0.0,0.0,0.0,0.0,0.0,0.0,0.0,0.0,0.0,0.0,0.0,0.0,0.0,0.0,0.0,0.0,0.0,0.0,0.0,-2.923,0.0,-2.9939,0.0,-2.6874,-2.463,0.0,0.0,0.0,0.0,0.0,0.0,0.0,0.0,0.0,0.0,0.0,0.0,0.0,0.0,0.0,0.0,0.0,0.0,0.0,0.0,0.0,0.0,0.0,0.0,0.0,0.0,0.0,0.0,0.0,0.0,0.0,0.0,0.0,0.0,0.0,0.0,0.0,0.0,0.0,0.0,0.0,0.0,0.0,0.0,0.0,0.0,0.0,0.0,0.0,0.0,0.0,0.0,0.0,0.0,0.0,0.0,0.0,0.0,0.0,0.0,0.0,0.0,0.0,0.0,0.0,0.0,0.0,0.0,0.0,0.0,0.0,0.0,0.0,0.0,0.0,0.0,0.0,0.0,0.0,0.0,0.0,0.0,0.0,0.0,0.0,0.0,0.0,0.0,0.0,0.0,0.0,0.0,0.0,0.0,0.0,0.0,0.0,0.0,0.0,0.0,0.0,0.0,0.0,0.0,0.0,0.0,0.0,0.0,-2.9104,-3.1581,-3.0927,-3.0372,-2.9917,-2.8878,-2.6505,0.0,0.0,0.0,0.0,0.0,0.0,0.0,0.0,0.0,0.0,0.0,0.0,0.0,0.0,0.0,0.0,0.0,0.0,0.0,0.0,0.0,0.0,0.0,0.0,0.0,0.0,0.0,0.0,0.0,0.0,0.0,0.0,0.0,0.0,0.0,0.0,0.0,0.0,0.0,0.0,0.0,0.0,0.0,0.0,0.0,0.0,0.0,0.0,0.0,0.0,0.0,0.0,0.0,0.0,0.0,0.0,0.0,0.0,0.0,0.0,0.0,0.0,0.0,0.0,0.0,0.0,0.0,0.0,0.0,0.0,0.0,0.0,0.0,0.0,0.0,0.0,0.0,0.0,0.0,0.0,0.0,0.0,0.0,0.0,0.0,0.0,0.0,0.0,0.0,0.0,0.0,0.0,0.0,0.0,0.0,0.0,0.0,0.0,0.0,0.0,0.0,0.0,0.0,0.0,0.0,0.0,0.0,0.0,0.0,-3.0921,-3.1301,-3.1391,-3.1187,-2.8937,-2.6639,0.0,0.0,0.0,0.0,0.0,0.0,0.0,0.0,0.0,0.0,0.0,0.0,0.0,0.0,0.0,0.0,0.0,0.0,0.0,0.0,0.0,0.0,0.0,0.0,0.0,0.0,0.0,0.0,0.0,0.0,0.0,0.0,0.0,0.0,0.0,0.0,0.0,0.0,0.0,0.0,0.0,0.0,0.0,0.0,0.0,0.0,0.0,0.0,0.0,0.0,0.0,0.0,0.0,0.0,0.0,0.0,0.0,0.0,0.0,0.0,0.0,0.0,0.0,0.0,0.0,0.0,0.0,0.0,0.0,0.0,0.0,0.0,0.0,0.0,0.0,0.0,0.0,0.0,0.0,0.0,0.0,0.0,0.0,0.0,0.0,0.0,0.0,0.0,0.0,0.0,0.0,0.0,0.0,0.0,0.0,0.0,0.0,0.0,0.0,0.0,0.0,0.0,0.0,0.0,0.0,0.0,0.0,0.0,0.0,-3.1937,-3.251,-3.2733,-3.2609,-3.0271,-2.7753,-2.5162,0.0,0.0,0.0,0.0,0.0,0.0,0.0,0.0,0.0,0.0,0.0,0.0,0.0,0.0,0.0,0.0,0.0,0.0,0.0,0.0,0.0,0.0,0.0,0.0,0.0,0.0,0.0,0.0,0.0,0.0,0.0,0.0,0.0,0.0,0.0,0.0,0.0,0.0,0.0,0.0,0.0,0.0,0.0,0.0,0.0,0.0,0.0,0.0,0.0,0.0,0.0,0.0,0.0,0.0,0.0,0.0,0.0,0.0,0.0,0.0,0.0,0.0,0.0,0.0,0.0,0.0,0.0,0.0,0.0,0.0,0.0,0.0,0.0,0.0,0.0,0.0,0.0,0.0,0.0,0.0,0.0,0.0,0.0,0.0,0.0,0.0,0.0,0.0,0.0,0.0,0.0,0.0,0.0,0.0,0.0,0.0,0.0,0.0,0.0,0.0,0.0,0.0,0.0,0.0,0.0,0.0,0.0,0.0,-3.4354,-3.4473,-3.4361,-3.3987,-3.2612,-2.9739,0.0,0.0,0.0,0.0,0.0,0.0,0.0,0.0,0.0,0.0,0.0,0.0,0.0,0.0,0.0,0.0,0.0,0.0,0.0,0.0,0.0,0.0,0.0,0.0,0.0,0.0,0.0,0.0,0.0,0.0,0.0,0.0,0.0,0.0,0.0,0.0,0.0,0.0,0.0,0.0,0.0,0.0,0.0,0.0,0.0,0.0,0.0,0.0,0.0,0.0,0.0,0.0,0.0,0.0,0.0,0.0,0.0,0.0,0.0,0.0,0.0,0.0,0.0,0.0,0.0,0.0,0.0,0.0,0.0,0.0,0.0,0.0,0.0,0.0,0.0,0.0,0.0,0.0,0.0,0.0,0.0,0.0,0.0,0.0,0.0,0.0,0.0,0.0,0.0,0.0,0.0,0.0,0.0,0.0,0.0,0.0,0.0,0.0,0.0,0.0,0.0,0.0,0.0,0.0,0.0,0.0,0.0,0.0,0.0,-3.5197,-3.6562,-3.6883,-3.6047,-3.3377,-3.0928,0.0,0.0,0.0,0.0,0.0,0.0,0.0,0.0,0.0,0.0,0.0,0.0,0.0,0.0,0.0,0.0,0.0,0.0,0.0,0.0,0.0,0.0,0.0,0.0,0.0,0.0,0.0,0.0,0.0,0.0,0.0,0.0,0.0,0.0,0.0,0.0,0.0,0.0,0.0,0.0,0.0,0.0,0.0,0.0,0.0,0.0,0.0,0.0,0.0,0.0,0.0,0.0,0.0,0.0,0.0,0.0,0.0,0.0,0.0,0.0,0.0,0.0,0.0,0.0,0.0,0.0,0.0,0.0,0.0,0.0,0.0,0.0,0.0,0.0,0.0,0.0,0.0,0.0,0.0,0.0,0.0,0.0,0.0,0.0,0.0,0.0,0.0,0.0,0.0,0.0,0.0,0.0,0.0,0.0,0.0,0.0,0.0,0.0,0.0,0.0,0.0,0.0,0.0,0.0,0.0,0.0,0.0,0.0,-3.4229,-3.5671,-3.8124,-3.9101,-3.8511,-3.489,-3.2019,0.0,0.0,0.0,0.0,0.0,0.0,0.0,0.0,0.0,0.0,0.0,0.0,0.0,0.0,0.0,0.0,0.0,0.0,0.0,0.0,0.0,0.0,0.0,0.0,0.0,0.0,0.0,0.0,0.0,0.0,0.0,0.0,0.0,0.0,0.0,0.0,0.0,0.0,0.0,0.0,0.0,0.0,0.0,0.0,0.0,0.0,0.0,0.0,0.0,0.0,0.0,0.0,0.0,0.0,0.0,0.0,0.0,0.0,0.0,0.0,0.0,0.0,0.0,0.0,0.0,0.0,0.0,0.0,0.0,0.0,0.0,0.0,0.0,0.0,0.0,0.0,0.0,0.0,0.0,0.0,0.0,0.0,0.0,0.0,0.0,0.0,0.0,0.0,0.0,0.0,0.0,0.0,0.0,0.0,0.0,0.0,0.0,0.0,0.0,0.0,0.0,0.0,0.0,0.0,0.0,0.0,0.0,0.0,-3.5466,-3.6085,-3.9236,-4.0842,-4.0593,-3.6602,-3.3069,0.0,0.0,0.0,0.0,0.0,0.0,0.0,0.0,0.0,0.0,0.0,0.0,0.0,0.0,0.0,0.0,0.0,0.0,0.0,0.0,0.0,0.0,0.0,0.0,0.0,0.0,0.0,0.0,0.0,0.0,0.0,0.0,0.0,0.0,0.0,0.0,0.0,0.0,0.0,0.0,0.0,0.0,0.0,0.0,0.0,0.0,0.0,0.0,0.0,0.0,0.0,0.0,0.0,0.0,0.0,0.0,0.0,0.0,0.0,0.0,0.0,0.0,0.0,0.0,0.0,0.0,0.0,0.0,0.0,0.0,0.0,0.0,0.0,0.0,0.0,0.0,0.0,0.0,0.0,0.0,0.0,0.0,0.0,0.0,0.0,0.0,0.0,0.0,0.0,0.0,0.0,0.0,0.0,0.0,0.0,0.0,0.0,0.0,0.0,0.0,0.0,0.0,0.0,0.0,0.0,0.0,0.0,0.0,-3.6047,-3.7758,-3.9863,-4.0872,-4.0614,-3.6587,-3.3902,0.0,0.0,0.0,0.0,0.0,0.0,0.0,0.0,0.0,0.0,0.0,0.0,0.0,0.0,0.0,0.0,0.0,0.0,0.0,0.0,0.0,0.0,0.0,0.0,0.0,0.0,0.0,0.0,0.0,0.0,0.0,0.0,0.0,0.0,0.0,0.0,0.0,0.0,0.0,0.0,0.0,0.0,0.0,0.0,0.0,0.0,0.0,0.0,-2.7016,0.0,0.0,0.0,0.0,0.0,0.0,0.0,0.0,0.0,0.0,0.0,0.0,0.0,0.0,0.0,0.0,0.0,0.0,0.0,0.0,0.0,0.0,0.0,0.0,0.0,0.0,0.0,0.0,0.0,0.0,0.0,0.0,0.0,0.0,0.0,0.0,0.0,0.0,0.0,0.0,0.0,0.0,0.0,0.0,0.0,0.0,0.0,0.0,0.0,0.0,0.0,0.0,0.0,0.0,0.0,0.0,0.0,0.0,0.0,-3.6787,-3.8376,-4.0095,-4.0866,-4.0493,-3.7111,-3.4628,0.0,0.0,0.0,0.0,0.0,0.0,0.0,0.0,0.0,0.0,0.0,0.0,0.0,0.0,0.0,0.0,0.0,0.0,0.0,0.0,0.0,0.0,0.0,0.0,0.0,0.0,0.0,0.0,0.0,0.0,0.0,0.0,0.0,0.0,0.0,0.0,0.0,0.0,0.0,0.0,0.0,0.0,0.0,0.0,0.0,0.0,0.0,0.0,0.0,0.0,0.0,0.0,0.0,0.0,0.0,0.0,0.0,0.0,0.0,0.0,0.0,0.0,0.0,0.0,0.0,0.0,0.0,0.0,0.0,0.0,0.0,0.0,0.0,0.0,0.0,0.0,0.0,0.0,0.0,0.0,0.0,0.0,0.0,0.0,0.0,0.0,0.0,0.0,0.0,0.0,0.0,0.0,0.0,0.0,0.0,0.0,0.0,0.0,0.0,0.0,0.0,0.0,0.0,0.0,0.0,0.0,0.0,-3.5621,-3.7422,-3.8867,-4.026,-4.0838,-4.0558,-3.7712,-3.5143,-3.3031,0.0,0.0,0.0,0.0,0.0,0.0,0.0,0.0,0.0,0.0,0.0,0.0,0.0,0.0,0.0,0.0,0.0,0.0,0.0,0.0,0.0,0.0,0.0,0.0,0.0,0.0,0.0,0.0,0.0,0.0,0.0,0.0,0.0,0.0,0.0,0.0,0.0,0.0,-2.9614,-3.0589,0.0,0.0,0.0,0.0,0.0,0.0,0.0,0.0,-3.156,0.0,0.0,0.0,0.0,0.0,0.0,0.0,0.0,0.0,0.0,0.0,0.0,0.0,0.0,0.0,0.0,0.0,0.0,0.0,0.0,0.0,0.0,0.0,0.0,0.0,0.0,0.0,0.0,0.0,0.0,0.0,0.0,0.0,0.0,0.0,0.0,0.0,0.0,0.0,0.0,0.0,0.0,0.0,0.0,0.0,0.0,0.0,0.0,0.0,0.0,0.0,0.0,0.0,0.0,0.0,0.0,-3.5156,-3.5652,-3.7419,-4.0483,-4.0755,-4.0761,-4.0538,-3.758,-3.4989,-3.2921,0.0,0.0,0.0,0.0,0.0,0.0,0.0,0.0,0.0,0.0,0.0,0.0,0.0,0.0,0.0,0.0,0.0,0.0,0.0,0.0,0.0,0.0,0.0,0.0,0.0,0.0,0.0,0.0,0.0,0.0,0.0,0.0,0.0,0.0,0.0,0.0,0.0,0.0,0.0,-3.2998,-3.3444,0.0,0.0,0.0,0.0,0.0,0.0,0.0,0.0,-3.3385,0.0,0.0,0.0,0.0,0.0,0.0,0.0,0.0,0.0,0.0,0.0,0.0,0.0,0.0,0.0,0.0,0.0,0.0,0.0,0.0,0.0,0.0,0.0,0.0,0.0,0.0,0.0,0.0,0.0,0.0,0.0,0.0,0.0,0.0,0.0,0.0,0.0,0.0,0.0,0.0,0.0,0.0,0.0,0.0,0.0,0.0,0.0,0.0,0.0,0.0,0.0,0.0,0.0,0.0,0.0,-3.5543,-3.7001,-3.8784,-4.0906,-4.0864,-4.0703,-4.0448,-3.7526,-3.5042,0.0,0.0,0.0,0.0,0.0,0.0,0.0,0.0,0.0,0.0,0.0,0.0,0.0,0.0,0.0,0.0,0.0,0.0,0.0,0.0,0.0,0.0,0.0,0.0,0.0,0.0,0.0,0.0,0.0,0.0,0.0,0.0,0.0,0.0,0.0,0.0,0.0,0.0,0.0,0.0,-3.4262,-3.4966,-3.5972,0.0,0.0,0.0,0.0,0.0,0.0,-3.5178,-3.4977,0.0,0.0,0.0,0.0,0.0,0.0,0.0,0.0,0.0,0.0,0.0,0.0,0.0,0.0,0.0,0.0,0.0,0.0,0.0,0.0,0.0,0.0,0.0,0.0,0.0,0.0,0.0,0.0,0.0,0.0,0.0,0.0,0.0,0.0,0.0,0.0,0.0,0.0,0.0,0.0,0.0,0.0,0.0,0.0,0.0,0.0,0.0,0.0,0.0,0.0,0.0,0.0,0.0,0.0,0.0,-3.565,-3.8076,-3.9882,-4.0889,-4.0788,-4.0563,-4.0252,-3.7224,-3.4839,0.0,0.0,0.0,0.0,0.0,0.0,0.0,0.0,0.0,0.0,0.0,0.0,0.0,0.0,0.0,0.0,0.0,0.0,0.0,0.0,0.0,0.0,0.0,0.0,0.0,0.0,0.0,0.0,0.0,0.0,0.0,0.0,0.0,0.0,0.0,0.0,0.0,0.0,0.0,0.0,0.0,-3.6421,-3.7797,-3.6667,0.0,0.0,0.0,0.0,-3.5758,-3.6597,0.0,0.0,0.0,0.0,0.0,0.0,0.0,0.0,0.0,0.0,0.0,0.0,0.0,0.0,0.0,0.0,0.0,0.0,0.0,0.0,0.0,0.0,0.0,0.0,0.0,0.0,0.0,0.0,0.0,0.0,0.0,0.0,0.0,0.0,0.0,0.0,0.0,0.0,0.0,0.0,0.0,0.0,0.0,0.0,0.0,0.0,0.0,0.0,0.0,0.0,0.0,0.0,0.0,0.0,0.0,0.0,-3.5616,-3.7519,-3.9275,-4.0711,-4.0571,-4.029,-3.9909,-3.6403,-3.403,0.0,0.0,0.0,0.0,0.0,0.0,0.0,0.0,0.0,0.0,0.0,0.0,0.0,0.0,0.0,0.0,0.0,0.0,0.0,0.0,0.0,0.0,0.0,0.0,0.0,0.0,0.0,0.0,0.0,0.0,0.0,0.0,0.0,0.0,0.0,0.0,0.0,0.0,0.0,0.0,0.0,-3.8312,-3.8343,-3.7118,-3.6368,0.0,0.0,-3.7172,-3.8079,-3.9033,0.0,0.0,0.0,0.0,0.0,0.0,0.0,0.0,0.0,0.0,0.0,0.0,0.0,0.0,0.0,0.0,0.0,0.0,0.0,0.0,0.0,0.0,0.0,0.0,0.0,0.0,0.0,0.0,0.0,0.0,0.0,0.0,0.0,0.0,0.0,0.0,0.0,0.0,0.0,0.0,0.0,0.0,0.0,0.0,0.0,0.0,0.0,0.0,0.0,0.0,0.0,0.0,0.0,0.0,0.0,-3.4599,-3.5734,-3.7936,-3.9598,-4.0632,-4.03,-3.9776,-3.9039,-3.5815,-3.3503,0.0,0.0,0.0,0.0,0.0,0.0,0.0,0.0,0.0,0.0,0.0,0.0,0.0,0.0,0.0,0.0,0.0,0.0,0.0,0.0,0.0,0.0,0.0,0.0,0.0,0.0,0.0,0.0,0.0,0.0,0.0,0.0,0.0,0.0,0.0,0.0,0.0,0.0,0.0,0.0,0.0,0.0,-3.9448,-3.8118,0.0,0.0,0.0,-3.6988,-3.7091,0.0,0.0,0.0,0.0,0.0,0.0,0.0,0.0,0.0,0.0,0.0,0.0,0.0,0.0,0.0,0.0,0.0,0.0,0.0,0.0,0.0,0.0,0.0,0.0,0.0,0.0,0.0,0.0,0.0,0.0,0.0,0.0,0.0,0.0,0.0,0.0,0.0,0.0,0.0,0.0,0.0,0.0,0.0,0.0,0.0,0.0,0.0,0.0,0.0,0.0,0.0,0.0,0.0,0.0,0.0,0.0,0.0,-3.5499,-3.8156,-3.9742,-4.0135,-3.9737,-3.9113,-3.8155,-3.5284,0.0,0.0,0.0,0.0,0.0,0.0,0.0,0.0,0.0,0.0,0.0,0.0,0.0,0.0,0.0,0.0,0.0,0.0,0.0,0.0,0.0,0.0,0.0,0.0,0.0,0.0,0.0,-1.8483,0.0,0.0,0.0,0.0,0.0,0.0,0.0,0.0,0.0,0.0,0.0,0.0,0.0,0.0,-3.9332,-3.9907,-3.8716,-3.8239,0.0,0.0,-3.6336,-3.6754,-3.6552,-3.5817,0.0,0.0,0.0,0.0,0.0,0.0,0.0,0.0,0.0,0.0,0.0,0.0,0.0,0.0,0.0,0.0,0.0,0.0,0.0,0.0,0.0,0.0,0.0,0.0,0.0,0.0,0.0,0.0,0.0,0.0,0.0,0.0,0.0,0.0,0.0,0.0,0.0,0.0,0.0,0.0,0.0,0.0,0.0,0.0,0.0,0.0,0.0,0.0,0.0,0.0,0.0,0.0,0.0,0.0,0.0,-3.4654,-3.7778,-3.9224,-3.8927,-3.8629,-3.8225,-3.7544,-3.4783,-3.2619,0.0,0.0,0.0,0.0,0.0,0.0,0.0,0.0,0.0,0.0,0.0,0.0,0.0,0.0,0.0,0.0,0.0,0.0,0.0,0.0,0.0,0.0,0.0,0.0,0.0,0.0,0.0,0.0,0.0,0.0,0.0,0.0,0.0,0.0,0.0,0.0,0.0,0.0,0.0,0.0,0.0,-3.9937,-3.8952,-3.8381,-3.8642,0.0,0.0,-3.6259,-3.8618,-3.9528,-3.8674,-3.4651,0.0,0.0,0.0,0.0,0.0,0.0,0.0,0.0,0.0,0.0,0.0,0.0,0.0,0.0,0.0,0.0,0.0,0.0,0.0,0.0,0.0,0.0,0.0,0.0,0.0,0.0,0.0,0.0,0.0,0.0,0.0,0.0,0.0,0.0,0.0,0.0,0.0,0.0,0.0,0.0,0.0,0.0,0.0,0.0,0.0,0.0,0.0,0.0,0.0,0.0,0.0,0.0,0.0,-3.3275,-3.4245,-3.6284,-3.7485,-3.7717,-3.7319,-3.6609,-3.5599,-3.3888,-3.2111,0.0,0.0,0.0,0.0,0.0,0.0,0.0,0.0,0.0,0.0,0.0,0.0,0.0,0.0,0.0,0.0,0.0,0.0,0.0,0.0,0.0,0.0,0.0,0.0,0.0,0.0,0.0,0.0,-2.4992,-2.5746,-2.5243,0.0,0.0,0.0,0.0,0.0,0.0,0.0,0.0,0.0,0.0,-3.8977,-3.9491,-3.877,0.0,0.0,-3.8038,-3.6486,-3.7244,-3.7496,-3.6637,-3.3775,-3.216,0.0,0.0,0.0,0.0,0.0,0.0,0.0,0.0,0.0,0.0,0.0,0.0,0.0,0.0,0.0,0.0,0.0,0.0,0.0,0.0,0.0,0.0,0.0,0.0,0.0,0.0,0.0,0.0,0.0,0.0,0.0,0.0,0.0,0.0,0.0,0.0,0.0,0.0,0.0,0.0,0.0,0.0,0.0,0.0,0.0,0.0,0.0,0.0,0.0,0.0,0.0,0.0,-3.2464,-3.35,-3.5081,-3.6061,-3.6335,-3.5945,-3.5235,-3.415,-3.3057,-3.1617,0.0,0.0,0.0,0.0,0.0,0.0,0.0,0.0,0.0,0.0,0.0,0.0,0.0,0.0,0.0,0.0,0.0,0.0,0.0,0.0,0.0,0.0,0.0,0.0,0.0,0.0,0.0,0.0,-2.598,-2.637,-2.6188,0.0,0.0,0.0,0.0,0.0,0.0,0.0,0.0,0.0,0.0,-3.8269,-3.8634,-3.7812,-3.7638,-3.8979,-3.748,-3.6205,-3.6191,-3.6013,-3.5218,-3.3419,0.0,0.0,0.0,0.0,0.0,0.0,0.0,0.0,0.0,0.0,0.0,0.0,0.0,0.0,0.0,0.0,0.0,0.0,0.0,0.0,0.0,0.0,0.0,0.0,0.0,0.0,0.0,0.0,0.0,0.0,-2.6589,0.0,0.0,0.0,0.0,0.0,0.0,0.0,0.0,0.0,0.0,0.0,0.0,0.0,0.0,0.0,0.0,0.0,0.0,0.0,0.0,0.0,0.0,-3.1222,-3.2158,-3.4327,-3.52,-3.4669,-3.4509,-3.4117,-3.3477,-3.2367,-3.1298,-3.0381,0.0,0.0,0.0,0.0,0.0,0.0,0.0,0.0,0.0,0.0,0.0,0.0,0.0,0.0,0.0,0.0,0.0,0.0,0.0,0.0,0.0,0.0,0.0,0.0,0.0,0.0,-2.5987,-2.5167,-2.519,0.0,0.0,0.0,0.0,0.0,0.0,0.0,0.0,0.0,0.0,-3.708,-3.808,-3.5857,-3.5128,-3.5324,-3.6561,-3.5723,-3.5229,-3.6075,-3.5808,-3.5153,0.0,0.0,0.0,0.0,0.0,0.0,0.0,0.0,0.0,0.0,0.0,0.0,0.0,0.0,0.0,0.0,0.0,0.0,0.0,0.0,0.0,0.0,0.0,0.0,0.0,0.0,0.0,-2.7491,-2.7265,0.0,0.0,0.0,0.0,0.0,0.0,0.0,0.0,0.0,0.0,0.0,-2.8591,-3.0126,0.0,0.0,0.0,0.0,0.0,0.0,0.0,0.0,0.0,0.0,0.0,0.0,-3.0778,-3.1529,-3.2866,-3.346,-3.3278,-3.3102,-3.2542,-3.1602,-3.1183,-2.9736,-2.7102,0.0,0.0,0.0,0.0,0.0,0.0,0.0,0.0,0.0,0.0,0.0,0.0,0.0,0.0,0.0,0.0,0.0,0.0,0.0,0.0,0.0,0.0,0.0,0.0,0.0,-2.6327,0.0,0.0,0.0,0.0,0.0,0.0,0.0,0.0,0.0,0.0,0.0,-3.5187,-3.463,-3.541,-3.5913,-3.5599,-3.5165,-3.5512,0.0,0.0,0.0,0.0,0.0,0.0,0.0,0.0,0.0,0.0,0.0,0.0,0.0,0.0,-3.246,-3.0587,-3.028,-3.0323,-3.022,0.0,0.0,0.0,0.0,0.0,0.0,0.0,0.0,0.0,0.0,0.0,0.0,0.0,0.0,-2.7284,0.0,-2.6607,0.0,0.0,0.0,0.0,0.0,0.0,0.0,0.0,-2.9263,-2.9227,-2.8837,-3.0062,-2.9963,0.0,-2.8766,-2.8088,0.0,0.0,0.0,0.0,0.0,0.0,0.0,0.0,-3.0279,-3.0478,-3.1782,-3.2433,-3.2281,-3.176,-3.1077,-3.0231,-2.9739,-2.8201,-2.5457,-2.4548,-2.3259,0.0,0.0,0.0,0.0,0.0,0.0,0.0,0.0,0.0,0.0,0.0,0.0,0.0,0.0,0.0,0.0,0.0,0.0,0.0,0.0,0.0,0.0,0.0,-2.6924,0.0,0.0,0.0,0.0,0.0,0.0,0.0,0.0,0.0,-3.3917,-3.5314,-3.5864,-3.5053,-3.5385,-3.5385,-3.4516,0.0,0.0,0.0,0.0,0.0,0.0,0.0,-3.2064,-3.273,-3.2907,-3.305,-3.3395,-3.3524,-3.3454,-3.2958,0.0,0.0,-3.0797,-3.0538,-3.0581,-3.0577,-3.1442,-3.197,-3.1406,-3.164,-3.1907,0.0,0.0,0.0,0.0,0.0,0.0,0.0,0.0,-2.7243,-2.7324,0.0,-2.6292,0.0,0.0,0.0,0.0,0.0,-2.8452,0.0,0.0,-3.0942,-3.1066,-2.8806,-2.851,-2.8656,-2.909,-2.9121,-2.8728,-2.8097,-2.8435,0.0,0.0,0.0,0.0,0.0,0.0,-2.9565,-2.8934,-3.1005,-3.1986,-3.1571,-3.0537,-2.9787,-2.9341,-2.8062,-2.6745,-2.5497,-2.4861,-2.3555,-2.1431,-2.0763,0.0,0.0,0.0,0.0,0.0,0.0,0.0,0.0,0.0,0.0,0.0,0.0,0.0,0.0,0.0,0.0,0.0,0.0,0.0,0.0,-2.6078,0.0,0.0,0.0,0.0,0.0,0.0,0.0,0.0,0.0,0.0,-3.4014,-3.6,-3.6991,-3.5627,0.0,0.0,0.0,0.0,-3.3121,-3.1579,-3.1646,-3.2075,-3.2547,-3.3495,-3.4027,-3.3607,0.0,0.0,-3.452,-3.3671,-3.2737,-3.1425,-3.1169,-3.1282,-3.2248,-3.2094,-3.1886,-3.1369,-3.131,-3.1324,-3.131,-3.1391,-3.1405,-3.1342,0.0,0.0,0.0,0.0,-2.7689,-2.7939,-2.8394,-2.7712,-2.7768,-2.8317,-2.7818,0.0,0.0,0.0,0.0,0.0,0.0,-2.8247,-2.8518,-2.886,-2.8963,-2.8955,-2.8575,-2.8732,-2.9335,-2.9286,-2.9193,-2.9022,-2.9104,-2.8316,-2.672,0.0,0.0,0.0,0.0,-2.7587,-2.772,-2.9059,-2.9746,-2.9641,-2.9206,-2.8421,-2.7275,-2.6424,-2.5423,-2.4265,-2.4134,-2.3457,-2.2083,-2.1043,0.0,0.0,0.0,0.0,0.0,0.0,0.0,0.0,0.0,0.0,0.0,0.0,0.0,0.0,0.0,0.0,0.0,0.0,0.0,-2.514,-2.5591,-2.5853,0.0,0.0,0.0,0.0,0.0,0.0,0.0,0.0,0.0,-3.4102,-3.4675,-3.4572,0.0,0.0,-3.2886,-3.2289,-3.1983,-3.2058,-3.2746,0.0,0.0,0.0,-3.4152,-3.3456,-3.4083,-3.4283,-3.4244,-3.4259,-3.3267,-3.2335,-3.2109,-3.1476,-3.1145,-3.1343,-3.1362,-3.1296,-3.1162,-3.1514,-3.1856,-3.1856,-3.1856,-3.1983,-3.1717,-3.0351,-3.0075,-2.923,-2.8118,-2.7953,-2.8115,-2.8592,-2.8662,-2.865,-2.8519,-2.8423,-2.8056,-2.7517,-2.7428,0.0,0.0,0.0,-2.8099,-2.8577,-2.8113,-2.8213,-2.8811,-2.8511,-2.8614,-2.8996,-2.9012,-2.9027,-2.9027,-2.9012,-2.8264,-2.6947,0.0,0.0,-2.5832,-2.6623,-2.6818,-2.6541,-2.7997,-2.8825,-2.8783,-2.8239,-2.7153,-2.5501,-2.4823,-2.4071,-2.3098,-2.2962,-2.2622,-2.1939,-2.086,-2.0148,0.0,0.0,0.0,0.0,0.0,0.0,0.0,0.0,0.0,0.0,0.0,-1.7135,0.0,0.0,0.0,0.0,-2.339,-2.4579,-2.5025,-2.5361,0.0,0.0,0.0,0.0,0.0,0.0,0.0,-3.0885,-3.2344,-3.329,-3.349,-3.3426,-3.3398,-3.3388,-3.3024,-3.2582,-3.2025,0.0,-3.24,-3.2724,-3.2782,-3.3373,-3.4988,-3.4269,-3.3731,-3.4312,-3.4039,-3.3648,-3.3443,-3.2693,-3.2114,-3.1904,-3.1386,-3.0986,-3.0986,-3.0986,-3.0986,-3.0986,-3.132,-3.1676,-3.1676,-3.1676,-3.1823,-3.1161,-3.0664,-3.0266,-2.9432,-2.8363,-2.8215,-2.8294,-2.8583,-2.9718,-2.9592,-2.8521,-2.8404,-2.8062,-2.7489,-2.7246,0.0,-2.7488,-2.7842,-2.8139,-2.8411,-2.8411,-2.8411,-2.8411,-2.8411,-2.8348,-2.8348,-2.8348,-2.8299,-2.825,-2.8299,-2.7931,-2.7241,-2.8233,-2.7589,-2.5516,-2.6639,-2.6663,-2.5395,-2.7413,-2.8511,-2.8581,-2.7415,-2.5877,-2.408,-2.3418,-2.2752,-2.2095,-2.1602,-2.134,-2.1296,-2.0334,-1.947,-1.8834,0.0,0.0,0.0,0.0,0.0,0.0,0.0,0.0,0.0,0.0,0.0,0.0,0.0,0.0,0.0,-2.387,0.0,-2.4907,-2.5344,0.0,0.0,0.0,-2.8006,-2.9175,-3.0524,-3.1155,-3.0644,0.0,0.0,-3.244,0.0,-3.2974,-3.4701,-3.4911,-3.4077,-3.1728,-3.2889,-3.3504,-3.2128,-3.2743,-3.3513,-3.3937,-3.417,-3.4297,-3.4153,-3.4177,-3.3644,-3.2773,-3.2228,-3.175,-3.1211,-3.0986,-3.0986,-3.0986,-3.0986,-3.0986,-3.0986,-3.0986,-3.1061,-3.1061,-3.1048,-3.111,-2.9641,-2.878,-2.9053,-2.9025,-2.8761,-2.8654,-2.8919,-2.9415,-2.9043,-2.9105,-2.943,-2.8729,-2.834,-2.8165,-2.8076,-2.8106,-2.8181,-2.8245,-2.8338,-2.8396,-2.8411,-2.8411,-2.8411,-2.8411,-2.8122,-2.773,-2.768,-2.753,-2.7159,-2.753,-2.6946,-2.5583,-2.6225,-2.5891,-2.4595,-2.4427,-2.4162,-2.3834,-2.5347,-2.6346,-2.6726,-2.6056,-2.4916,-2.3325,-2.3093,-2.2572,-2.1616,-2.1091,-2.0793,-2.0848,-1.9775,-1.8976,-1.8492,-1.7656,0.0,0.0,0.0,0.0,0.0,0.0,0.0,0.0,0.0,-1.8262,-1.7333,0.0,-2.1605,0.0,-2.3593,-2.4765,-2.4765,-2.5247,0.0,0.0,-2.6873,-2.7356,-2.8541,-2.944,-2.9943,-2.9824,-3.0592,-3.1194,-3.1003,-3.0979,-3.1108,-3.1584,-3.1647,-3.1556,-3.1475,-3.2285,-3.3105,-3.344,-3.4257,-3.4958,-3.4842,-3.4632,-3.4138,-3.3533,-3.2989,-3.2618,-3.254,-3.1844,-3.1198,-3.1061,-3.0986,-3.0986,-3.0921,-3.0986,-3.096,-3.0986,-3.0986,-3.0986,-3.0986,-3.0973,-3.0843,-2.892,-2.8126,-2.8399,-2.8556,-2.8526,-2.8748,-2.9013,-2.9325,-2.8809,-2.8872,-2.934,-2.8761,-2.8238,-2.786,-2.8235,-2.8235,-2.8024,-2.8299,-2.8411,-2.8411,-2.8411,-2.8235,-2.8008,-2.7773,-2.761,-2.7515,-2.7246,-2.6996,-2.668,-2.6731,-2.6115,-2.4951,-2.4958,-2.4552,-2.3696,-2.3062,-2.2596,-2.2325,-2.3861,-2.5159,-2.6119,-2.5586,-2.4487,-2.2817,-2.2464,-2.1574,-2.0035,-1.9681,-1.9431,-1.9255,-1.8429,-1.7783,-1.7321,-1.6576,-1.57,0.0,0.0,0.0,0.0,0.0,0.0,0.0,0.0,0.0,0.0,0.0,-2.2245,0.0,-2.4217,-2.5135,-2.519,-2.574,-2.6461,-2.7335,-2.7701,-2.8408,-2.9704,-3.0192,-3.0418,-3.0417,-3.0764,-3.0791,-3.0403,-3.0467,-3.0481,-3.0467,-3.005,-2.9929,-3.0632,-3.1901,-3.2855,-3.267,-3.3716,-3.4493,-3.4215,-3.3951,-3.3448,-3.2514,-3.1965,-3.1667,-3.133,-3.0493,-2.9784,-2.9548,-3.0275,-3.0615,-2.9705,-2.9444,-2.9457,-2.9373,-2.923,-2.943,-3.0351,-2.998,-2.9379,-2.8458,-2.7826,-2.7826,-2.7873,-2.8015,-2.8357,-2.8529,-2.8592,-2.8561,-2.8529,-2.845,-2.8448,-2.7993,-2.7174,-2.7989,-2.8024,-2.7565,-2.8073,-2.8348,-2.8411,-2.8391,-2.81,-2.75,-2.6657,-2.6592,-2.7113,-2.663,-2.6323,-2.6179,-2.5754,-2.5206,-2.4433,-2.3945,-2.3262,-2.2478,-2.2033,-2.1611,-2.1231,-2.2831,-2.4422,-2.5863,-2.5166,-2.3868,-2.2173,-2.1435,-2.0171,-1.8204,-1.8059,-1.7797,-1.7315,-1.6843,-1.64,-1.5921,-1.5195,-1.4787,0.0,-1.437,0.0,0.0,0.0,0.0,0.0,0.0,0.0,0.0,-2.1701,-2.3231,-2.3714,-2.4816,-2.5608,-2.5792,-2.6338,-2.7128,-2.8235,-2.8886,-2.9729,-3.0849,-3.0993,-3.0984,-3.0991,-3.0923,-3.0587,-2.9928,-2.9951,-2.9987,-2.9798,-2.9156,-2.8713,-2.91,-3.125,-3.2308,-3.0644,-3.1969,-3.2774,-3.2122,-3.2246,-3.2097,-3.099,-3.0632,-3.0478,-2.9861,-2.8986,-2.816,-2.7773,-2.9065,-2.9686,-2.776,-2.7149,-2.6883,-2.7237,-2.6794,-2.6987,-2.8815,-2.8337,-2.7449,-2.7067,-2.6404,-2.6404,-2.6735,-2.7304,-2.7032,-2.7139,-2.7422,-2.7447,-2.7103,-2.663,-2.7403,-2.75,-2.7174,-2.779,-2.7875,-2.7515,-2.763,-2.791,-2.8442,-2.8404,-2.8075,-2.7339,-2.4998,-2.4422,-2.5403,-2.4895,-2.4343,-2.3848,-2.4244,-2.3617,-2.2104,-2.2409,-2.1851,-2.0381,0.0,0.0,0.0,-2.2178,-2.2923,-2.403,-2.2524,-2.129,-2.0386,-1.9849,0.0,-1.7678,-1.723,-1.6787,-1.6366,-1.6114,0.0,0.0,0.0,0.0,0.0,0.0,0.0,0.0,0.0,0.0,0.0,-1.8605,-1.9039,-1.9506,-2.1343,-2.2533,-2.2591,-2.3816,-2.4993,-2.5694,-2.6181,-2.6812,-2.7591,-2.7828,-2.7974,-2.8213,-2.8279,-2.8279,-2.8226,-2.7854,-2.7748,-2.8013,-2.7656,-2.7442,-2.7571,-2.766,-2.7439,-2.6667,-2.9158,-3.065,-3.0097,-3.063,-3.065,-2.9559,-2.9553,-2.9454,-2.8411,-2.821,-2.8369,-2.8704,-2.8157,-2.7416,-2.6716,-2.7462,-2.7832,-2.6769,-2.478,-2.3895,-2.5607,-2.5044,-2.4878,-2.6741,-2.6559,-2.5807,-2.6672,0.0,-2.6009,-2.6131,0.0,-2.5746,-2.5563,-2.5656,-2.6624,-2.6775,-2.6446,-2.723,-2.7282,-2.673,-2.6965,-2.6881,-2.6469,-2.6297,-2.6525,-2.716,-2.7991,-2.7609,-2.6184,-2.4175,-2.3775,-2.4915,-2.4082,-2.3622,-2.3478,-2.3317,-2.2592,-2.1423,-2.1712,-2.1409,-2.0568,-2.0355,-2.071,-2.1693,-2.1688,-2.2128,-2.2935,-2.1981,-2.0841,-1.9733,0.0,0.0,0.0,0.0,0.0,0.0,0.0,0.0,0.0,0.0,0.0,-1.4888,-1.56,-1.6235,-1.6446,-1.684,-1.7432,-1.8148,-1.8712,-1.943,-2.0415,-2.1858,-2.2563,-2.2396,-2.3663,-2.4657,-2.5169,-2.5586,-2.6,-2.6346,-2.6414,-2.6557,-2.6889,-2.6681,-2.6462,-2.6414,-2.6309,-2.6373,-2.6648,-2.6452,-2.6269,-2.6229,-2.6294,-2.6153,-2.5884,-2.8251,-3.0168,-2.9468,-2.8856,-2.8424,-2.79,-2.7944,-2.7893,-2.7275,-2.7105,-2.7118,-2.7221,-2.6711,-2.6012,-2.5384,-2.5229,-2.4999,-2.4369,-2.2888,-2.2252,-2.3389,-2.3084,-2.2728,-2.3694,-2.3845,-2.3869,-2.6441,-2.5753,-2.5737,-2.5514,-2.5215,-2.4533,-2.4246,-2.4264,0.0,0.0,0.0,-2.7184,-2.699,-2.6254,-2.6272,-2.5988,-2.5497,-2.5185,-2.5415,-2.5988,-2.724,-2.6828,-2.4962,-2.3694,-2.3578,-2.4368,-2.3362,-2.3032,-2.3328,-2.2473,-2.1799,-2.1304,-2.1215,-2.1166,-2.118,-2.0858,-2.0858,-2.1166,-2.1073,-2.1329,-2.1955,-2.1555,-2.0618,-1.9144,-1.8713,-1.7635,-1.5731,-1.5596,-1.5353,-1.4968,-1.4888,-1.4862,-1.4887,-1.4905,-1.4926,-1.4926,-1.5124,-1.5698,-1.6807,-1.7007,-1.7407,-1.8287,-1.8834,-1.9738,-2.1038,-2.2025,-2.2427,-2.2051,-2.3254,-2.4133,-2.4309,-2.4642,-2.4883,-2.5023,-2.5141,-2.5448,-2.5803,-2.5681,-2.5418,-2.5103,-2.5392,-2.5618,-2.5519,-2.5631,-2.5667,-2.5615,-2.5376,-2.497,-2.5242,-2.7281,-2.8824,-2.7947,-2.7055,-2.6385,-2.6282,-2.6542,-2.6713,-2.6203,-2.6164,-2.6046,-2.5602,-2.5058,-2.4455,-2.3977,-2.3144,-2.258,-2.2075,-2.1577,-2.1413,-2.1643,-2.1313,-2.0944,-2.0944,-2.1388,-2.1902,-2.5591,-2.472,-2.472,-2.4498,-2.4204,-2.3726,-2.3985,-2.478,-2.5652,-2.569,-2.5174,-2.6374,-2.6539,-2.5988,-2.6424,-2.6342,-2.5807,-2.5776,-2.603,0.0,-2.5797,-2.5299,-2.491,-2.3414,-2.2704,-2.2606,-2.1988,-2.1703,-2.1683,-2.1251,-2.0974,-2.0858,-2.0523,-2.0385,-2.0372,-2.0321,-2.0334,-2.0359,-1.9808,-1.976,-2.0309,-1.9241,-1.8473,-1.8021,-1.7187,-1.6255,-1.5258,-1.4819,-1.4596,-1.4551,-1.4231,-1.4047,-1.4036,-1.4115,-1.4155,-1.4231,-1.5137,-1.5783,-1.6018,-1.6609,-1.7179,-1.7765,-1.8307,-1.8859,-1.9456,-2.0489,-2.0985,-2.0534,-2.1464,-2.2378,-2.306,-2.3132,-2.3382,-2.3965,-2.4639,-2.4851,-2.4164,-2.4713,-2.4885,-2.4316,-2.4792,-2.4861,-2.4455,-2.4738,-2.4957,-2.5066,-2.4754,-2.4779,-2.4564,-2.5057,-2.5449,-2.5051,-2.5056,-2.4962,-2.4805,-2.4543,-2.4739,-2.4491,-2.4523,-2.4575,-2.4471,-2.3885,-2.3324,-2.303,-2.2309,-2.1698,-2.1262,-2.0741,-2.0484,-2.0518,-2.0388,-2.0324,-2.0324,-2.0453,-2.0475,-2.4803,-2.425,-2.4234,-2.4009,-2.3668,-2.3674,-2.39,-2.437,-2.5019,-2.5558,-2.5937,-2.6533,-2.6659,-2.6365,-2.5969,-2.5653,-2.5388,-2.4732,-2.4551,-2.4735,-2.4027,-2.3514,-2.3158,-2.2333,-2.1754,-2.1398,-2.1179,-2.0881,-2.0544,-2.0484,-2.0472,-2.0459,-2.0271,-2.008,-1.9875,-1.9875,-1.9772,-1.9552,-1.9674,-1.9762,-1.9798,-1.9086,-1.8329,-1.7588,-1.6994,-1.6195,-1.5225,-1.4936,-1.4668,-1.4318,-1.4126,-1.3956,-1.3826,-1.4017,-1.4093,-1.4109,-1.4771,-1.533,-1.5762,-1.6473,-1.6968,-1.7245,-1.7774,-1.7997,-1.7899,-1.8977,-1.9498,-1.928,-2.0158,-2.0874,-2.1375,-2.18,-2.2252,-2.2559,-2.297,-2.3056,-2.278,-2.2995,-2.3264,-2.3091,-2.3269,-2.3306,-2.3034,-2.3257,-2.3416,-2.3428,-2.3416,-2.3546,-2.3975,-2.3999,-2.403,-2.4086,-2.4334,-2.4374,-2.4164,-2.4125,-2.4125,-2.4125,-2.3793,-2.3603,-2.3531,-2.3027,-2.247,-2.2015,-2.1624,-2.1279,-2.0711,-2.0324,-2.0151,-2.0085,-2.0085,-2.0085,-2.0085,-2.0009,-2.0009,-2.4193,-2.3897,-2.3882,-2.3566,-2.3157,-2.3432,-2.3531,-2.3645,-2.4769,-2.5543,-2.6002,-2.6299,-2.6428,-2.639,-2.532,-2.4803,-2.4584,-2.3635,-2.3111,-2.3085,-2.2658,-2.2128,-2.1629,-2.1404,-2.1028,-2.0577,-2.0612,-2.0357,-1.9965,-2.0042,-2.0029,-1.9914,-1.9811,-1.9552,-1.9279,-1.9121,-1.8898,-1.8643,-1.9214,-1.9423,-1.9291,-1.9069,-1.8405,-1.7268,-1.6888,-1.6265,-1.5284,-1.4932,-1.4583,-1.415,-1.3807,-1.3582,-1.3478,-1.3543,-1.3592,-1.3685,-1.4057,-1.4593,-1.5463,-1.6193,-1.6621,-1.6691,-1.7166,-1.7326,-1.7045,-1.7648,-1.8142,-1.8267,-1.9032,-1.9698,-1.9991,-2.055,-2.1116,-2.1196,-2.1265,-2.1351,-2.1438,-2.1667,-2.1696,-2.1611,-2.1786,-2.2043,-2.1668,-2.1644,-2.1837,-2.2007,-2.1921,-2.2456,-2.3327,-2.316,-2.316,-2.3484,-2.3806,-2.3878,-2.3852,-2.3675,-2.3616,-2.3616,-2.3233,-2.2907,-2.2774,-2.2286,-2.1803,-2.1325,-2.1117,-2.0884,-2.0281,-2.0085,-2.0085,-2.0085,-2.0085,-2.0085,-2.0085,-2.0009,-1.9868,-2.387,-2.3626,-2.348,-2.3024,-2.2381,-2.245,-2.2514,-2.282,-2.5363,-2.546,-2.3895,-2.4706,-2.5245,-2.5384,-2.4714,-2.4204,-2.3935,-2.3197,-2.2855,-2.2778,-2.2282,-2.1753,-2.1171,-2.112,-2.081,-2.031,-2.0233,-2.022,-2.0042,-1.9759,-1.946,-1.9081,-1.859,-1.8298,-1.8201,-1.7688,-1.7413,-1.7368,-1.7413,-1.7699,-1.8201,-1.8201,-1.771,-1.6595,-1.6208,-1.5748,-1.5118,-1.4222,-1.3796,-1.3953,-1.2844,-1.2364,-1.2572,-1.2051,-1.1778,-1.2164,-1.2783,-1.3628,-1.4633,-1.5471,-1.5886,-1.5974,-1.6551,-1.6899,-1.6881,-1.6959,-1.7064,-1.7196,-1.8016,-1.8859,-1.9306,-1.9523,-1.9807,-2.027,-2.0303,-2.0249,-2.0467,-2.1335,-2.1451,-1.961,-2.1007,-2.1545,-2.0205,-2.0346,-2.0876,-2.1356,-2.1367,-2.1644,-2.2335,-2.2298,-2.2224,-2.2408,-2.2774,-2.3148,-2.3148,-2.2665,-2.2543,-2.2421,-2.2298,-2.2163,-2.2039,-2.1678,-2.1123,-2.0805,-2.0495,-2.0118,-2.0074,-2.0085,-2.002,-1.9878,-1.9944,-2.0009,-2.0074,-1.9878,-1.9736,-2.3304,-2.2783,-2.2723,-2.2328,-2.1801,-2.2155,-2.2315,-2.2474,-2.3979,-2.4135,-2.3253,-2.2378,-2.2935,-2.4587,-2.4158,-2.4063,-2.4155,-2.3332,-2.2721,-2.2399,-2.1776,-2.0998,-2.0305,-2.0475,-2.0167,-1.9577,-1.972,-1.972,-1.9448,-1.8951,-1.8471,-1.7984,-1.7644,-1.7589,-1.7534,-1.7313,-1.7071,-1.6863,-1.706,-1.7071,-1.6798,-1.728,-1.709,-1.6265,-1.5989,-1.5342,-1.4282,-1.3743,-1.3214,-1.2602,-1.1996,-1.1524,-1.1157,-1.1009,-1.0889,-1.0927,-1.1881,-1.2833,-1.3628,-1.4369,-1.4957,-1.5084,-1.5392,-1.57,-1.5964,-1.5709,-1.5624,-1.6095,-1.7201,-1.8104,-1.8375,-1.8633,-1.9044,-1.9518,-1.9649,-1.9726,-2.0085,-2.0531,-2.0426,-1.9552,-1.9986,-2.0156,-1.9332,-1.9505,-2.0102,-2.0621,-2.0696,-2.0938,-2.1818,-2.1803,-2.1678,-2.1978,-2.2051,-2.2113,-2.2335,-2.2286,-2.2101,-2.2039,-2.1741,-2.1491,-2.1365,-2.0944,-2.0442,-2.0074,-1.9705,-1.9312,-1.911,-1.9003,-1.8916,-1.9048,-1.9177,-1.911,-1.9121,-1.9065,-1.8865,-2.2725,-2.2128,-2.1697,-2.1431,-2.128,-2.1492,-2.1605,-2.1659,-2.2137,-2.2324,-2.2153,-2.0519,-2.1046,-2.2963,-2.3036,-2.3184,-2.3415,-2.2583,-2.1967,-2.1479,-2.0706,-1.9964,-1.9485,-1.9319,-1.9162,-1.8845,-1.8742,-1.8558,-1.8148,-1.7732,-1.7308,-1.7038,-1.6851,-1.686,-1.6912,-1.681,-1.6409,-1.5985,-1.6231,-1.5961,-1.5189,-1.5772,-1.5938,-1.5449,-1.5342,-1.4582,-1.3177,-1.2937,-1.2337,-1.135,-1.1178,-1.0786,-1.0094,-1.0281,-1.0341,-1.02,-1.1164,-1.1954,-1.2412,-1.3279,-1.3885,-1.412,-1.4324,-1.4593,-1.484,-1.4776,-1.4728,-1.4956,-1.6123,-1.6922,-1.7706,-1.8037,-1.8499,-1.8967,-1.9166,-1.9507,-1.9802,-2.0009,-1.9965,-1.9454,-1.9364,-1.9149,-1.8901,-1.8874,-1.9066,-1.9727,-1.9727,-1.9968,-2.0973,-2.0894,-2.078,-2.128,-2.0843,-2.0831,-2.1454,-2.1295,-2.1404,-2.1082,-2.0556,-2.0284,-2.0429,-1.9933,-1.9543,-1.9154,-1.8892,-1.8551,-1.8226,-1.7921,-1.7642,-1.7975,-1.8157,-1.8147,-1.8167,-1.8005,-1.775,-2.2193,-2.1722,-2.0469,-2.0319,-2.0879,-2.0231,-1.9926,-1.999,-2.0054,-2.0002,-2.0053,-1.9822,-2.0175,-2.0885,-2.1149,-2.1281,-2.1181,-2.0625,-2.0202,-1.9915,-1.8896,-1.8572,-1.8934,-1.7929,-1.7644,-1.8047,-1.7436,-1.6732,-1.6225,-1.6096,-1.6232,-1.6556,-1.6028,-1.5953,-1.6151,-1.5728,-1.5023,-1.4298,-1.4552,-1.4172,-1.3345,-1.3508,-1.3853,-1.3963,-1.3914,-1.3305,-1.2244,-1.1562,-1.1086,-1.0718,-1.0345,-1.0,-0.976,-0.99,-1.002,-1.0073,-1.0628,-1.1041,-1.1188,-1.1956,-1.2726,-1.3068,-1.3546,-1.4065,-1.3836,-1.415,-1.4237,-1.3976,-1.4538,-1.5587,-1.7148,-1.7491,-1.7891,-1.8509,-1.8967,-1.9243,-1.9309,-1.9736,-1.9846,-1.9391,-1.8964,-1.88,-1.8978,-1.814,-1.8006,-1.8436,-1.8414,-1.8545,-1.9394,-1.9558,-1.9602,-1.9506,-1.9295,-1.9167,-2.0154,-2.0081,-1.9506,-1.9361,-1.9362,-1.8868,-1.8823,-1.8731,-1.8497,-1.8369,-1.8534,-1.8243,-1.7466,-1.6971,-1.6738,-1.688,-1.7189,-1.7252,-1.7135,-1.6919,-1.6648,-2.2016,-2.1277,-2.0218,-1.9711,-1.9466,-1.9346,-1.9082,-1.879,-1.9483,-1.9362,-1.878,-1.8727,-1.8845,-1.9024,-1.8857,-1.9643,-2.1045,-2.0434,-1.9824,-1.9297,-1.8487,-1.8027,-1.7765,-1.7368,-1.7313,-1.7446,-1.7148,-1.6537,-1.5818,-1.5468,-1.5185,-1.4958,-1.4684,-1.4562,-1.4601,-1.439,-1.3799,-1.3093,-1.3358,-1.3138,-1.2384,-1.2473,-1.2496,-1.22,-1.2722,-1.2447,-1.1226,-1.0987,-1.0581,-1.0084,-0.9532,-0.9162,-0.8846,-0.8407,-0.8279,-0.8457,-0.877,-0.9107,-0.9491,-0.9965,-1.0566,-1.1246,-1.1557,-1.2006,-1.2263,-1.2657,-1.2991,-1.329,-1.3611,-1.4514,-1.5446,-1.6167,-1.6872,-1.7833,-1.8172,-1.8442,-1.8767,-1.9156,-1.9316,-1.8903,-1.848,-1.8182,-1.7977,-1.7532,-1.7282,-1.7345,-1.7667,-1.803,-1.8352,-1.8664,-1.8716,-1.856,-1.8534,-1.8524,-1.8176,-1.847,-1.8444,-1.8572,-1.8583,-1.8583,-1.8546,-1.8487,-1.8308,-1.7292,-1.7596,-1.7052,-1.6018,-1.6191,-1.5955,-1.6002,-1.6268,-1.6201,-1.6019,-1.5769,-1.5496,-2.1348,-2.0642,-1.9901,-1.8958,-1.8167,-1.8413,-1.8178,-1.7802,-1.8782,-1.8636,-1.778,-1.7585,-1.7585,-1.7599,-1.7445,-1.8213,-1.9751,-1.9341,-1.8944,-1.8429,-1.7845,-1.7424,-1.7202,-1.68,-1.6698,-1.6802,-1.6369,-1.5748,-1.4991,-1.4376,-1.3935,-1.3671,-1.3351,-1.3255,-1.3343,-1.3255,-1.2809,-1.2214,-1.2344,-1.2049,-1.1399,-1.1407,-1.1199,-1.0801,-1.1267,-1.1168,-1.0222,-1.0208,-0.9855,-0.9186,-0.8833,-0.851,-0.8105,-0.7482,-0.7204,-0.7377,-0.7594,-0.7855,-0.8303,-0.8553,-0.9036,-0.9755,-0.9929,-1.0137,-1.0717,-1.1134,-1.1686,-1.2219,-1.2828,-1.3439,-1.4155,-1.4752,-1.5604,-1.6793,-1.7217,-1.755,-1.8172,-1.8623,-1.874,-1.8402,-1.7833,-1.7502,-1.744,-1.7063,-1.682,-1.6769,-1.7101,-1.7324,-1.7624,-1.7855,-1.8087,-1.7916,-1.7945,-1.778,-1.7402,-1.7347,-1.7506,-1.7678,-1.7694,-1.7843,-1.7886,-1.7931,-1.7531,-1.6539,-1.5762,-1.5169,-1.5007,-1.5241,-1.5322,-1.5277,-1.5327,-1.526,-1.506,-1.4737,-1.4403,-2.0066,-1.9838,-1.9349,-1.8191,-1.6906,-1.7267,-1.7181,-1.686,-1.7589,-1.7488,-1.6746,-1.6506,-1.6551,-1.6706,-1.6899,-1.7126,-1.7111,-1.7002,-1.71,-1.7213,-1.6708,-1.6687,-1.6968,-1.6026,-1.5796,-1.6136,-1.4835,-1.3984,-1.3559,-1.278,-1.2393,-1.2556,-1.2193,-1.2152,-1.2474,-1.2423,-1.1977,-1.1372,-1.1328,-1.09,-1.0067,-1.0129,-1.0038,-0.9542,-0.9591,-0.948,-0.9183,-0.9239,-0.8954,-0.8255,-0.8251,-0.8093,-0.7432,-0.7088,-0.7036,-0.6981,-0.7261,-0.744,-0.7458,-0.7859,-0.8233,-0.8689,-0.8838,-0.9051,-0.9553,-1.0031,-1.0524,-1.0914,-1.1638,-1.2511,-1.3121,-1.3382,-1.4099,-1.5542,-1.6298,-1.6932,-1.7491,-1.8152,-1.8318,-1.774,-1.7069,-1.699,-1.7282,-1.6501,-1.5986,-1.6402,-1.6325,-1.6266,-1.6991,-1.7179,-1.7326,-1.7521,-1.7373,-1.7052,-1.6702,-1.6384,-1.6524,-1.6656,-1.6615,-1.6661,-1.6646,-1.6691,-1.623,-1.5387,-1.4693,-1.4126,-1.4083,-1.4233,-1.4302,-1.4285,-1.4309,-1.4205,-1.3846,-1.3534,-1.331,-1.9554,-2.0169,-1.8633,-1.7076,-1.577,-1.6172,-1.6061,-1.5597,-1.5905,-1.6014,-1.5955,-1.5604,-1.5647,-1.585,-1.5806,-1.5542,-1.53,-1.4737,-1.5106,-1.6315,-1.6358,-1.613,-1.5911,-1.5584,-1.5284,-1.4907,-1.4034,-1.3258,-1.2699,-1.1877,-1.153,-1.1601,-1.1364,-1.1263,-1.1385,-1.1281,-1.0867,-1.0483,-1.0364,-1.0089,-0.9599,-0.9456,-0.9126,-0.8609,-0.8429,-0.8219,-0.7852,-0.8502,-0.8784,-0.848,-0.7853,-0.7028,-0.6193,-0.5927,-0.5845,-0.5863,-0.6075,-0.6178,-0.6227,-0.6587,-0.7091,-0.7575,-0.7817,-0.822,-0.8716,-0.9091,-0.9496,-0.9645,-1.0194,-1.0615,-1.1021,-1.1539,-1.2771,-1.4752,-1.5604,-1.607,-1.6347,-1.7013,-1.6948,-1.6204,-1.5905,-1.5668,-1.5233,-1.4577,-1.4612,-1.5033,-1.506,-1.536,-1.6197,-1.6251,-1.622,-1.6317,-1.6272,-1.6233,-1.5761,-1.542,-1.5462,-1.5501,-1.5533,-1.5496,-1.5504,-1.5349,-1.4917,-1.4346,-1.367,-1.3369,-1.3268,-1.321,-1.3305,-1.3218,-1.3139,-1.2911,-1.2536,-1.2381,-1.2265,-1.8387,-1.9029,-1.7613,-1.6022,-1.4638,-1.511,-1.5037,-1.4543,-1.4524,-1.4644,-1.4753,-1.4552,-1.4434,-1.4473,-1.4172,-1.3896,-1.3647,-1.2973,-1.3537,-1.4886,-1.5079,-1.4936,-1.4669,-1.4697,-1.4418,-1.3916,-1.3291,-1.2687,-1.2195,-1.1377,-1.0905,-1.0853,-1.0391,-1.0113,-1.0074,-0.9769,-0.9439,-0.9234,-0.9051,-0.8857,-0.8606,-0.8415,-0.8096,-0.7765,-0.7664,-0.7456,-0.7192,-0.7836,-0.8049,-0.7723,-0.6918,-0.6055,-0.5356,-0.5356,-0.5301,-0.5321,-0.5386,-0.551,-0.5494,-0.5955,-0.6233,-0.6701,-0.6971,-0.726,-0.769,-0.7979,-0.8265,-0.8764,-0.9216,-0.9658,-1.0289,-1.0701,-1.1767,-1.3344,-1.4261,-1.4776,-1.5068,-1.5579,-1.5494,-1.4652,-1.4225,-1.3984,-1.3691,-1.3339,-1.3381,-1.3642,-1.3763,-1.412,-1.4959,-1.5042,-1.5037,-1.509,-1.5227,-1.5089,-1.4719,-1.4461,-1.4336,-1.4326,-1.4384,-1.4405,-1.4384,-1.4208,-1.3862,-1.3314,-1.2679,-1.2707,-1.2601,-1.243,-1.2421,-1.2192,-1.2034,-1.2012,-1.1943,-1.1692,-1.1555,-1.6714,-1.6798,-1.6374,-1.5233,-1.3828,-1.4226,-1.4146,-1.3693,-1.3658,-1.3641,-1.3533,-1.3361,-1.3122,-1.2718,-1.2727,-1.2586,-1.2201,-1.2026,-1.2197,-1.2815,-1.2966,-1.3081,-1.3631,-1.3682,-1.3431,-1.2963,-1.2535,-1.2112,-1.1609,-1.0689,-1.03,-1.0146,-0.9323,-0.8784,-0.8771,-0.8215,-0.8039,-0.7979,-0.7735,-0.7563,-0.745,-0.73,-0.7133,-0.7079,-0.7079,-0.6972,-0.6869,-0.6923,-0.675,-0.6263,-0.5887,-0.558,-0.5368,-0.5309,-0.5191,-0.5211,-0.5258,-0.5148,-0.5266,-0.5385,-0.5642,-0.575,-0.5998,-0.6354,-0.6461,-0.6734,-0.7264,-0.8042,-0.8597,-0.9379,-1.0256,-1.0495,-1.0864,-1.1631,-1.267,-1.3378,-1.3691,-1.3917,-1.3735,-1.3172,-1.2422,-1.2065,-1.2608,-1.2453,-1.2585,-1.279,-1.2727,-1.3148,-1.3623,-1.3942,-1.384,-1.3931,-1.4148,-1.3841,-1.347,-1.3314,-1.3156,-1.2941,-1.3052,-1.3148,-1.3235,-1.3054,-1.2605,-1.2134,-1.1827,-1.1866,-1.1737,-1.1441,-1.1316,-1.1197,-1.1204,-1.1383,-1.1172,-1.077,-1.0523,-1.6444,-1.7111,-1.5665,-1.4446,-1.3655,-1.3773,-1.3763,-1.3583,-1.3614,-1.3521,-1.3266,-1.2407,-1.2244,-1.2626,-1.2565,-1.2335,-1.1729,-1.1268,-1.1157,-1.1325,-1.1012,-1.1987,-1.3152,-1.322,-1.2806,-1.2207,-1.1575,-1.1166,-1.0509,-0.9655,-0.9256,-0.9197,-0.856,-0.8137,-0.8084,-0.7824,-0.7777,-0.767,-0.745,-0.723,-0.7176,-0.7074,-0.6864,-0.648,-0.6426,-0.6213,-0.5841,-0.5786,-0.5946,-0.6209,-0.61,-0.5793,-0.545,-0.4971,-0.4727,-0.4748,-0.4399,-0.407,-0.4104,-0.4292,-0.437,-0.4421,-0.4769,-0.5085,-0.5773,-0.5892,-0.6413,-0.7207,-0.7655,-0.7886,-0.8481,-0.899,-0.95,-1.0066,-1.1421,-1.2683,-1.3165,-1.3014,-1.2474,-1.2243,-1.1375,-1.0841,-1.0698,-1.1019,-1.141,-1.1603,-1.184,-1.2247,-1.2733,-1.279,-1.2547,-1.2813,-1.2902,-1.2578,-1.2297,-1.2174,-1.1949,-1.166,-1.165,-1.1851,-1.2018,-1.2096,-1.1457,-1.0788,-1.0651,-1.0661,-1.0371,-1.0086,-1.0079,-1.0175,-0.991,-0.9853,-0.9663,-0.9368,-0.9263,-1.5226,-1.6024,-1.4384,-1.341,-1.2949,-1.2939,-1.2929,-1.3046,-1.3412,-1.3239,-1.2641,-1.1619,-1.1383,-1.1834,-1.1636,-1.1302,-1.0812,-1.0233,-1.0061,-1.0191,-1.0127,-1.089,-1.1905,-1.1964,-1.1503,-1.0853,-1.028,-0.9712,-0.918,-0.8632,-0.8461,-0.8349,-0.7877,-0.761,-0.7503,-0.702,-0.6696,-0.647,-0.6195,-0.5923,-0.5756,-0.5651,-0.5487,-0.5164,-0.5109,-0.4893,-0.4625,-0.457,-0.4791,-0.5054,-0.5285,-0.531,-0.4819,-0.4369,-0.4191,-0.425,-0.386,-0.3624,-0.3646,-0.374,-0.3837,-0.3934,-0.4063,-0.4417,-0.4897,-0.5073,-0.5537,-0.5933,-0.6159,-0.6615,-0.736,-0.8212,-0.8725,-0.9105,-1.0098,-1.1029,-1.1483,-1.1194,-1.0918,-1.0477,-0.9854,-0.936,-0.9064,-0.9657,-0.9906,-1.0083,-1.0347,-1.0914,-1.1489,-1.137,-1.1279,-1.1421,-1.1428,-1.1137,-1.0894,-1.0787,-1.0944,-1.0613,-1.0667,-1.0787,-1.0866,-1.0979,-1.0654,-1.0039,-0.9724,-0.9442,-0.9277,-0.9106,-0.9029,-0.896,-0.8564,-0.8317,-0.8224,-0.8219,-0.812,-1.3611,-1.4139,-1.3056,-1.2374,-1.2098,-1.2008,-1.2098,-1.224,-1.2957,-1.2748,-1.1826,-1.0914,-1.0756,-1.0709,-1.0465,-0.9962,-0.974,-0.9197,-0.9025,-0.9227,-0.9475,-1.0057,-1.0187,-1.034,-0.9962,-0.9395,-0.8651,-0.8373,-0.817,-0.7937,-0.7765,-0.7605,-0.7182,-0.6864,-0.6534,-0.5882,-0.5285,-0.4897,-0.4615,-0.434,-0.4119,-0.4064,-0.4009,-0.3953,-0.3898,-0.3788,-0.368,-0.3627,-0.3627,-0.3405,-0.4015,-0.4198,-0.3831,-0.3634,-0.3581,-0.3527,-0.3416,-0.3239,-0.336,-0.3325,-0.3508,-0.3495,-0.3704,-0.4035,-0.411,-0.433,-0.4596,-0.4971,-0.4834,-0.5682,-0.6694,-0.7914,-0.8213,-0.8159,-0.8387,-0.8388,-0.8436,-0.9046,-0.928,-0.8613,-0.813,-0.804,-0.8243,-0.8436,-0.8484,-0.8734,-0.9068,-0.9532,-0.9867,-0.9773,-0.9728,-0.9748,-0.9728,-0.9669,-0.9525,-0.9427,-0.9622,-0.9678,-0.984,-0.9946,-0.9827,-0.9905,-0.9858,-0.9595,-0.9266,-0.8955,-0.87,-0.8528,-0.8305,-0.7952,-0.7672,-0.7323,-0.706,-0.7105,-0.7059,-1.319,-1.3113,-1.2774,-1.2414,-1.212,-1.2039,-1.1959,-1.1977,-1.2209,-1.1968,-1.1362,-1.0748,-1.0506,-1.0486,-0.9836,-0.9472,-0.9211,-0.8613,-0.8228,-0.8249,-0.8955,-0.8867,-0.8777,-0.8933,-0.8965,-0.8558,-0.8208,-0.7931,-0.7771,-0.7337,-0.7069,-0.6686,-0.6263,-0.5673,-0.5117,-0.4897,-0.4346,-0.407,-0.379,-0.3624,-0.3516,-0.3516,-0.3461,-0.3458,-0.3514,-0.3292,-0.307,-0.3347,-0.3128,-0.2685,-0.3135,-0.3682,-0.3587,-0.3182,-0.3013,-0.2947,-0.2567,-0.2242,-0.2189,-0.2319,-0.2293,-0.2468,-0.2578,-0.2718,-0.3506,-0.3618,-0.4005,-0.4548,-0.4795,-0.5078,-0.5944,-0.6198,-0.6689,-0.6972,-0.7281,-0.7212,-0.6821,-0.738,-0.8104,-0.8292,-0.779,-0.7385,-0.7448,-0.7814,-0.7819,-0.7638,-0.7814,-0.8226,-0.8255,-0.8293,-0.8416,-0.8567,-0.8461,-0.8465,-0.8462,-0.8468,-0.8709,-0.8854,-0.8973,-0.9204,-0.9084,-0.8934,-0.8922,-0.8895,-0.8867,-0.8511,-0.8069,-0.7852,-0.7646,-0.7231,-0.6788,-0.6536,-0.6295,-0.6207,-0.6096,-1.2325,-1.1805,-1.1715,-1.124,-1.0679,-1.0864,-1.0939,-1.1006,-1.1184,-1.1022,-1.0557,-1.0095,-0.9836,-0.9792,-0.9256,-0.8942,-0.8679,-0.7984,-0.745,-0.7274,-0.7576,-0.7488,-0.7133,-0.7187,-0.7202,-0.751,-0.709,-0.6864,-0.6696,-0.6367,-0.5878,-0.571,-0.5395,-0.5069,-0.4515,-0.4184,-0.379,-0.3405,-0.3072,-0.2905,-0.2796,-0.2742,-0.2742,-0.274,-0.274,-0.2573,-0.2352,-0.2573,-0.241,-0.2132,-0.241,-0.2836,-0.284,-0.2508,-0.2397,-0.2322,-0.2113,-0.18,-0.1797,-0.18,-0.188,-0.1876,-0.1905,-0.2236,-0.2668,-0.2795,-0.3055,-0.3474,-0.3633,-0.3901,-0.4937,-0.5675,-0.5872,-0.6062,-0.6395,-0.6345,-0.6124,-0.6675,-0.7231,-0.7399,-0.6874,-0.6643,-0.6698,-0.7021,-0.6986,-0.673,-0.6942,-0.729,-0.7401,-0.7433,-0.7537,-0.7605,-0.746,-0.7417,-0.7428,-0.7572,-0.7868,-0.7999,-0.8109,-0.8392,-0.8516,-0.8285,-0.8111,-0.8088,-0.8105,-0.768,-0.729,-0.7128,-0.6853,-0.6277,-0.5909,-0.5668,-0.5449,-0.5258,-0.5211,-1.146,-1.0635,-1.0517,-0.9894,-0.911,-0.9547,-0.9769,-0.9829,-1.0267,-1.0311,-0.9666,-0.9242,-0.9026,-0.8949,-0.8626,-0.8309,-0.7777,-0.7295,-0.6598,-0.6341,-0.6465,-0.6415,-0.6119,-0.5786,-0.5732,-0.6588,-0.5996,-0.5618,-0.5508,-0.5124,-0.5062,-0.4787,-0.4732,-0.4346,-0.4073,-0.3741,-0.3239,-0.274,-0.2408,-0.2184,-0.202,-0.1965,-0.1964,-0.1964,-0.1964,-0.1964,-0.1908,-0.1964,-0.1853,-0.1797,-0.1797,-0.1823,-0.1841,-0.1832,-0.1813,-0.1922,-0.1819,-0.1801,-0.1797,-0.18,-0.1819,-0.1869,-0.192,-0.198,-0.2106,-0.2229,-0.2341,-0.2418,-0.2627,-0.3057,-0.3921,-0.4925,-0.5632,-0.5864,-0.5852,-0.5835,-0.593,-0.6333,-0.6406,-0.622,-0.616,-0.6083,-0.5934,-0.6053,-0.5922,-0.5875,-0.62,-0.6383,-0.6502,-0.6559,-0.6651,-0.6653,-0.6495,-0.6482,-0.6454,-0.6454,-0.6776,-0.6959,-0.711,-0.7177,-0.7392,-0.6946,-0.6663,-0.7307,-0.7274,-0.6923,-0.6701,-0.6647,-0.6209,-0.5445,-0.4893,-0.4615,-0.4398,-0.4239,-0.4294,-1.1049,-1.0415,-1.0064,-0.9814,-0.9607,-0.9406,-0.9309,-0.9435,-1.0105,-1.0038,-0.9256,-0.8495,-0.8462,-0.8501,-0.8096,-0.7241,-0.6431,-0.6,-0.5837,-0.5786,-0.5955,-0.6069,-0.5618,-0.5054,-0.505,-0.5113,-0.5011,-0.4959,-0.5011,-0.4901,-0.4457,-0.4073,-0.3962,-0.3627,-0.2961,-0.2517,-0.2464,-0.2186,-0.1964,-0.1852,-0.1853,-0.1797,-0.1797,-0.1797,-0.1797,-0.1797,-0.1797,-0.1797,-0.1797,-0.1797,-0.1797,-0.1802,-0.1812,-0.1804,-0.1805,-0.1811,-0.1808,-0.1797,-0.1797,-0.1798,-0.1801,-0.1822,-0.1869,-0.1929,-0.2051,-0.211,-0.2166,-0.2383,-0.2756,-0.3223,-0.3913,-0.4774,-0.5199,-0.5475,-0.5665,-0.5632,-0.5531,-0.5555,-0.573,-0.5731,-0.5677,-0.5661,-0.5578,-0.5554,-0.5558,-0.564,-0.5764,-0.5858,-0.5906,-0.5827,-0.5783,-0.5693,-0.5555,-0.5543,-0.5518,-0.5501,-0.5609,-0.5749,-0.5736,-0.5493,-0.5469,-0.5104,-0.5175,-0.5769,-0.6263,-0.6322,-0.6213,-0.5996,-0.5441,-0.456,-0.4061,-0.3564,-0.3514,-0.3461,-0.3292,-1.0482,-0.9858,-0.9666,-0.9361,-0.8988,-0.8988,-0.8935,-0.9008,-0.9552,-0.9492,-0.8844,-0.8218,-0.79,-0.7765,-0.7331,-0.6367,-0.55,-0.523,-0.523,-0.5344,-0.5859,-0.5804,-0.5175,-0.4556,-0.4446,-0.4398,-0.4349,-0.4349,-0.4457,-0.407,-0.3849,-0.3519,-0.3299,-0.2854,-0.235,-0.224,-0.2018,-0.1852,-0.1797,-0.1797,-0.1797,-0.1797,-0.1797,-0.1797,-0.1797,-0.1797,-0.1797,-0.1797,-0.1797,-0.1797,-0.1797,-0.1797,-0.1797,-0.1797,-0.1797,-0.1797,-0.1797,-0.1797,-0.1797,-0.1798,-0.1809,-0.1842,-0.1869,-0.1926,-0.1995,-0.2116,-0.2275,-0.279,-0.3713,-0.4235,-0.4391,-0.4889,-0.525,-0.5425,-0.5555,-0.5571,-0.5438,-0.5127,-0.5245,-0.5453,-0.5494,-0.547,-0.5418,-0.5394,-0.5365,-0.5378,-0.5422,-0.5422,-0.5358,-0.5307,-0.5262,-0.4791,-0.4646,-0.4642,-0.467,-0.4657,-0.4695,-0.4748,-0.4713,-0.4428,-0.4239,-0.4125,-0.3953,-0.4106,-0.4659,-0.5105,-0.4952,-0.4519,-0.4067,-0.3727,-0.3287,-0.2956,-0.2847,-0.2683,-0.2569,-0.9865,-0.9256,-0.9204,-0.8837,-0.8321,-0.8461,-0.8514,-0.8533,-0.8778,-0.8771,-0.8421,-0.7824,-0.7289,-0.6858,-0.6253,-0.5492,-0.4787,-0.4791,-0.4787,-0.4901,-0.547,-0.5474,-0.4736,-0.4116,-0.3837,-0.4018,-0.3855,-0.3744,-0.3962,-0.3633,-0.3244,-0.3021,-0.2802,-0.2467,-0.2186,-0.2074,-0.1908,-0.174,-0.1628,-0.1628,-0.1572,-0.1685,-0.1741,-0.1685,-0.1741,-0.1797,-0.1797,-0.1628,-0.1628,-0.1628,-0.1628,-0.1628,-0.1684,-0.1741,-0.1741,-0.1685,-0.1741,-0.1741,-0.1684,-0.1797,-0.1762,-0.1692,-0.1891,-0.1959,-0.1964,-0.2134,-0.2475,-0.3341,-0.42,-0.4904,-0.4726,-0.5235,-0.5449,-0.5458,-0.5575,-0.5591,-0.5481,-0.5307,-0.5039,-0.5174,-0.5237,-0.5293,-0.5309,-0.5442,-0.5458,-0.5567,-0.5608,-0.5266,-0.5209,-0.5223,-0.4958,-0.4177,-0.3789,-0.3758,-0.3806,-0.3901,-0.3971,-0.4089,-0.4048,-0.3858,-0.3738,-0.3572,-0.3342,-0.3007,-0.2843,-0.3234,-0.3132,-0.3246,-0.307,-0.2843,-0.2567,-0.2235,-0.2014,-0.1958,-0.1902,-0.9361,-0.885,-0.8633,-0.848,-0.8374,-0.8162,-0.8002,-0.8008,-0.8062,-0.8008,-0.7889,-0.694,-0.6509,-0.6136,-0.505,-0.4505,-0.4343,-0.4291,-0.4291,-0.4401,-0.4794,-0.4794,-0.4288,-0.3837,-0.368,-0.3747,-0.3638,-0.3638,-0.3577,-0.3413,-0.3135,-0.2745,-0.2521,-0.2354,-0.174,-0.1852,-0.1628,-0.129,-0.1178,-0.101,-0.0841,-0.1346,-0.1459,-0.1403,-0.1515,-0.1684,-0.1572,-0.1347,-0.1178,-0.1178,-0.1178,-0.1178,-0.1234,-0.1572,-0.1515,-0.1459,-0.1459,-0.1628,-0.1347,-0.1573,-0.1708,-0.1643,-0.174,-0.1926,-0.2174,-0.2551,-0.3171,-0.4058,-0.4606,-0.4887,-0.5026,-0.5291,-0.5509,-0.5644,-0.5713,-0.573,-0.5685,-0.5455,-0.5186,-0.4779,-0.4819,-0.5059,-0.5247,-0.5439,-0.5636,-0.5693,-0.5659,-0.5238,-0.4919,-0.479,-0.4451,-0.3619,-0.3095,-0.3067,-0.3015,-0.3107,-0.3193,-0.335,-0.3294,-0.3239,-0.3016,-0.2794,-0.246,-0.2125,-0.1903,-0.1959,-0.235,-0.2462,-0.2235,-0.2012,-0.1789,-0.1455,-0.1065,-0.1121,-0.1344,-0.819,-0.8309,-0.8533,-0.8533,-0.8368,-0.8215,-0.8062,-0.7848,-0.7456,-0.7348,-0.7235,-0.6342,-0.5747,-0.5382,-0.4453,-0.4018,-0.3907,-0.3855,-0.3855,-0.391,-0.4079,-0.4076,-0.3907,-0.3685,-0.358,-0.3583,-0.336,-0.3132,-0.3077,-0.2796,-0.2464,-0.2127,-0.1905,-0.1513,-0.1234,-0.1572,-0.129,-0.0954,-0.0729,-0.0617,-0.0561,-0.0785,-0.0898,-0.0729,-0.0898,-0.101,-0.101,-0.0841,-0.0673,-0.0673,-0.0729,-0.0673,-0.0729,-0.0898,-0.0954,-0.1178,-0.129,-0.129,-0.1178,-0.1572,-0.1657,-0.1693,-0.1856,-0.214,-0.2672,-0.3774,-0.4426,-0.4872,-0.5203,-0.5391,-0.5475,-0.5683,-0.5739,-0.5803,-0.5804,-0.5828,-0.5719,-0.5537,-0.5257,-0.4793,-0.4376,-0.4533,-0.4578,-0.4516,-0.4558,-0.4728,-0.4762,-0.452,-0.4152,-0.382,-0.3414,-0.293,-0.259,-0.2433,-0.2334,-0.2336,-0.2363,-0.2464,-0.2464,-0.2352,-0.2184,-0.1962,-0.1738,-0.1569,-0.1457,-0.1569,-0.1792,-0.1736,-0.1567,-0.1344,-0.1064,-0.0953,-0.0897,-0.0897,-0.1065,-0.7128,-0.7551,-0.8096,-0.8209,-0.8049,-0.7943,-0.7836,-0.7681,-0.7079,-0.6977,-0.6923,-0.6145,-0.5269,-0.4732,-0.4239,-0.3855,-0.3694,-0.3638,-0.3585,-0.3585,-0.3585,-0.3641,-0.3638,-0.3585,-0.3585,-0.3585,-0.3416,-0.3135,-0.2685,-0.2293,-0.1958,-0.1454,-0.1456,-0.1009,-0.0785,-0.0954,-0.0954,-0.0336,-0.028,-0.0168,-0.0112,-0.028,-0.0336,-0.0336,-0.0336,-0.0393,-0.0393,-0.028,-0.0224,-0.028,-0.028,-0.028,-0.0449,-0.0673,-0.0897,-0.1122,-0.129,-0.1402,-0.1457,-0.163,-0.1827,-0.1984,-0.2345,-0.2857,-0.3673,-0.5399,-0.6278,-0.5675,-0.5645,-0.5894,-0.6059,-0.5977,-0.5763,-0.5718,-0.5797,-0.5852,-0.5736,-0.5339,-0.4782,-0.4142,-0.3717,-0.3521,-0.351,-0.3336,-0.3437,-0.3751,-0.376,-0.3671,-0.3377,-0.2965,-0.2665,-0.231,-0.2234,-0.2087,-0.2038,-0.1931,-0.1801,-0.1797,-0.1797,-0.1741,-0.174,-0.1628,-0.1458,-0.129,-0.1066,-0.1177,-0.1401,-0.1121,-0.0897,-0.0953,-0.0953,-0.0953,-0.0897,-0.0841,-0.0673,-0.6263,-0.6367,-0.6858,-0.7069,-0.7015,-0.6647,-0.6864,-0.7295,-0.6933,-0.7058,-0.7171,-0.6282,-0.5011,-0.4411,-0.4076,-0.3852,-0.3796,-0.3635,-0.3638,-0.3585,-0.3585,-0.3585,-0.3585,-0.3585,-0.3585,-0.3585,-0.3416,-0.3193,-0.2802,-0.2071,-0.1567,-0.1062,-0.0951,-0.084,-0.056,-0.0336,-0.0393,0.0056,0.0112,0.0393,0.0336,0.0168,-0.0112,0.0056,-0.0168,-0.0393,-0.0336,-0.0,0.0168,0.0168,0.0112,-0.0056,-0.028,-0.0617,-0.0897,-0.1122,-0.1513,-0.168,-0.1902,-0.1908,-0.1941,-0.23,-0.2944,-0.3763,-0.4475,-0.5585,-0.6218,-0.6159,-0.5872,-0.5732,-0.589,-0.594,-0.5374,-0.5236,-0.5156,-0.5119,-0.5013,-0.4761,-0.4215,-0.3461,-0.3062,-0.2926,-0.2737,-0.2561,-0.2737,-0.306,-0.2919,-0.2883,-0.2622,-0.2273,-0.2041,-0.1866,-0.1921,-0.1855,-0.1855,-0.1797,-0.1797,-0.1741,-0.1741,-0.1684,-0.1628,-0.1403,-0.1066,-0.0954,-0.0785,-0.0841,-0.0841,-0.0616,-0.056,-0.0785,-0.0897,-0.0841,-0.0673,-0.0505,-0.028,-0.5673,-0.5673,-0.5837,-0.6322,-0.6907,-0.6642,-0.6593,-0.6647,-0.6159,-0.5782,-0.5845,-0.5179,-0.4688,-0.4245,-0.4135,-0.3965,-0.3852,-0.3744,-0.3691,-0.3638,-0.3585,-0.3585,-0.3585,-0.3585,-0.3585,-0.353,-0.3363,-0.297,-0.241,-0.1962,-0.0896,-0.0336,-0.0224,0.0112,0.0393,0.028,0.0336,0.028,0.0449,0.0729,0.0729,0.0673,0.0505,0.0561,0.0561,0.0393,0.0449,0.0561,0.0617,0.0561,0.0336,0.0056,-0.0168,-0.0561,-0.0897,-0.1177,-0.168,-0.2124,-0.2458,-0.2469,-0.2577,-0.3251,-0.3947,-0.4656,-0.5081,-0.5723,-0.6201,-0.6105,-0.5658,-0.5312,-0.5067,-0.4807,-0.443,-0.4448,-0.4433,-0.4393,-0.4139,-0.3891,-0.351,-0.2692,-0.2532,-0.239,-0.2147,-0.1908,-0.2083,-0.2312,-0.2179,-0.2047,-0.1748,-0.1681,-0.157,-0.1572,-0.1684,-0.1797,-0.1797,-0.1797,-0.1797,-0.1685,-0.1628,-0.1403,-0.1178,-0.0785,-0.0505,-0.0449,-0.0336,-0.0224,-0.0112,-0.0112,-0.0224,-0.0448,-0.0617,-0.0729,-0.0505,-0.0112,0.0224,-0.5301,-0.5301,-0.5301,-0.5732,-0.6376,-0.6209,-0.6209,-0.61,-0.5391,-0.4897,-0.4463,-0.4181,-0.4018,-0.3965,-0.3968,-0.3799,-0.363,-0.3685,-0.3688,-0.3638,-0.3585,-0.3585,-0.3585,-0.3585,-0.3585,-0.353,-0.3363,-0.2972,-0.2695,-0.1965,-0.0953,-0.0,0.0785,0.0785,0.0841,0.0841,0.0729,0.0561,0.0673,0.0897,0.0897,0.0841,0.0841,0.0841,0.0841,0.0785,0.0785,0.0785,0.0729,0.0561,0.0336,0.0056,-0.0168,-0.0505,-0.0952,-0.1455,-0.1955,-0.251,-0.3014,-0.3309,-0.3493,-0.4062,-0.4457,-0.4977,-0.5396,-0.5568,-0.5395,-0.5895,-0.5225,-0.4496,-0.4154,-0.4054,-0.3859,-0.3844,-0.3714,-0.3608,-0.3082,-0.2767,-0.2412,-0.1975,-0.1765,-0.1496,-0.1854,-0.1614,-0.1656,-0.1713,-0.142,-0.1186,-0.09,-0.0953,-0.1234,-0.1346,-0.1515,-0.1684,-0.1797,-0.1628,-0.1403,-0.129,-0.1122,-0.0841,-0.0561,-0.0168,0.0112,0.0168,0.0335,0.0559,0.0615,0.0559,0.0224,-0.0168,-0.0168,-0.0112,0.0168,0.0559,0.0839,-0.5301,-0.5301,-0.5242,-0.5242,-0.5348,-0.5183,-0.5395,-0.5664,-0.4952,-0.457,-0.4349,-0.345,-0.3229,-0.3516,-0.3522,-0.3355,-0.3355,-0.3577,-0.3691,-0.3585,-0.3585,-0.3585,-0.3585,-0.3585,-0.3585,-0.3585,-0.3479,-0.3429,-0.3383,-0.2419,-0.129,-0.0112,0.0729,0.0897,0.0897,0.0897,0.0897,0.0897,0.0897,0.0897,0.0897,0.0897,0.0897,0.0897,0.0897,0.0897,0.0729,0.0729,0.0617,0.028,0.0056,-0.028,-0.0841,-0.1065,-0.1624,-0.2402,-0.2625,-0.3292,-0.4239,-0.4349,-0.4382,-0.4449,-0.4664,-0.484,-0.5536,-0.5243,-0.439,-0.4742,-0.43,-0.3688,-0.3527,-0.3462,-0.3259,-0.3119,-0.2979,-0.2747,-0.2238,-0.1933,-0.1703,-0.1242,-0.0694,-0.0396,-0.1089,-0.1437,-0.1302,-0.1125,-0.073,-0.0393,-0.0168,-0.0393,-0.0785,-0.0897,-0.1066,-0.1234,-0.129,-0.1234,-0.1066,-0.0897,-0.0673,-0.0393,-0.0,0.0448,0.0671,0.0783,0.1006,0.123,0.123,0.123,0.1007,0.0896,0.0671,0.0727,0.095,0.1174,0.1398,-0.4846,-0.4743,-0.4349,-0.4184,-0.4239,-0.4849,-0.512,-0.512,-0.4736,-0.4463,-0.4236,-0.3226,-0.306,-0.3345,-0.3128,-0.2965,-0.3081,-0.3188,-0.3357,-0.3591,-0.3588,-0.3588,-0.3532,-0.3418,-0.353,-0.3593,-0.3599,-0.3546,-0.3498,-0.2023,-0.0729,0.0449,0.0729,0.0841,0.0897,0.0897,0.0897,0.0897,0.0897,0.0897,0.0897,0.0897,0.0897,0.0897,0.0897,0.0785,0.0505,0.0505,0.028,-0.0168,-0.0393,-0.0785,-0.1289,-0.1568,-0.2291,-0.2903,-0.3181,-0.4015,-0.4294,-0.4245,-0.4188,-0.433,-0.4326,-0.42,-0.4264,-0.4201,-0.3727,-0.3297,-0.3222,-0.2797,-0.2474,-0.2425,-0.2279,-0.2107,-0.2007,-0.1892,-0.1595,-0.1482,-0.12,-0.0579,0.0057,-0.0113,-0.0623,-0.114,-0.1127,-0.1066,-0.0785,-0.0112,0.0224,-0.0112,-0.0505,-0.0393,-0.0505,-0.0673,-0.0785,-0.0729,-0.0673,-0.0561,-0.0336,-0.0,0.0448,0.1008,0.1287,0.1454,0.1734,0.1959,0.1903,0.1903,0.2127,0.2071,0.1677,0.1398,0.151,0.1679,0.1846,-0.4842,-0.4515,-0.407,-0.3793,-0.3738,-0.4467,-0.4632,-0.446,-0.4467,-0.4415,-0.4018,-0.3123,-0.2734,-0.2792,-0.2627,-0.2408,-0.2637,-0.297,-0.3307,-0.354,-0.3591,-0.3593,-0.3423,-0.2856,-0.28,-0.3203,-0.3436,-0.3268,-0.1797,-0.0056,0.0617,0.0617,0.0785,0.1065,0.1065,0.1121,0.0897,0.0897,0.0897,0.0897,0.0897,0.0897,0.0897,0.0897,0.0841,0.0673,0.0336,0.0112,-0.0112,-0.0561,-0.0898,-0.129,-0.1736,-0.2179,-0.279,-0.3236,-0.3569,-0.4125,-0.4015,-0.3624,-0.3554,-0.3772,-0.3571,-0.3493,-0.3247,-0.3201,-0.2685,-0.232,-0.2269,-0.2154,-0.1928,-0.1813,-0.1745,-0.1633,-0.152,-0.1466,-0.1012,-0.0845,-0.0739,-0.0058,0.0287,0.0057,-0.0224,-0.0617,-0.0954,-0.0898,-0.0841,-0.0168,0.0449,0.0056,-0.0224,-0.0056,-0.0112,-0.0393,-0.0449,-0.0336,-0.028,-0.0224,0.0112,0.056,0.1064,0.1623,0.1903,0.2127,0.224,0.2352,0.2521,0.2635,0.2577,0.2519,0.2348,0.2181,0.2127,0.2183,0.2296,-0.5175,-0.467,-0.4515,-0.4015,-0.3627,-0.3863,-0.3805,-0.3627,-0.4258,-0.4147,-0.3516,-0.2854,-0.235,-0.1958,-0.179,-0.1793,-0.1964,-0.2581,-0.2807,-0.3314,-0.3312,-0.337,-0.2523,-0.1398,-0.168,-0.2699,-0.2983,-0.1685,0.0449,0.0729,0.0841,0.0841,0.0841,0.1121,0.1233,0.1121,0.0953,0.1065,0.0954,0.0898,0.0897,0.0841,0.0785,0.0729,0.0617,0.0393,0.0112,-0.0056,-0.0449,-0.0841,-0.1178,-0.1792,-0.2237,-0.2683,-0.307,-0.3403,-0.3624,-0.3572,-0.3458,-0.3012,-0.2625,-0.2705,-0.2585,-0.2916,-0.2871,-0.2327,-0.1828,-0.1722,-0.1763,-0.1838,-0.1792,-0.1714,-0.1695,-0.1581,-0.1412,-0.1014,-0.0449,-0.0226,-0.0171,0.0115,0.04,0.0283,-0.0112,-0.0505,-0.0785,-0.0841,-0.0785,-0.0449,-0.0,0.0056,-0.0112,0.0224,0.0112,-0.0168,-0.0112,0.0112,0.0168,0.028,0.084,0.1288,0.1792,0.2071,0.224,0.2354,0.2579,0.2747,0.2914,0.2914,0.2858,0.2798,0.2963,0.2854,0.2742,0.2687,0.2742,-0.446,-0.3855,-0.3297,-0.2742,-0.2354,-0.2355,-0.2517,-0.2847,-0.3925,-0.3981,-0.2903,-0.1843,-0.1623,-0.1734,-0.1343,-0.1234,-0.1459,-0.1628,-0.1402,-0.185,-0.2579,-0.213,-0.0,-0.0,-0.0,-0.0,-0.0,-0.0,0.0056,0.0617,0.0897,0.0897,0.0898,0.1065,0.1177,0.101,0.1177,0.1289,0.1065,0.0841,0.0729,0.0561,0.0505,0.0393,0.0168,-0.0112,-0.0505,-0.0617,-0.101,-0.1403,-0.1573,-0.1908,-0.1962,-0.246,-0.2956,-0.3461,-0.3292,-0.2959,-0.2792,-0.2069,-0.1624,-0.1567,-0.1343,-0.1343,-0.1457,-0.1404,-0.1072,-0.1245,-0.1475,-0.1597,-0.1727,-0.1718,-0.1422,-0.1081,-0.0854,-0.04,0.017,0.0451,0.0513,0.0574,0.08,0.0454,0.0056,-0.028,-0.0561,-0.0729,-0.0673,-0.0393,-0.028,-0.0224,-0.0,0.0336,0.0505,0.028,0.0449,0.0673,0.0673,0.0785,0.14,0.1792,0.1959,0.2184,0.241,0.2633,0.2856,0.3081,0.3304,0.3304,0.319,0.3524,0.3688,0.3524,0.336,0.3246,0.3188,-0.4242,-0.3694,-0.3135,-0.2467,-0.1853,-0.1628,-0.1793,-0.2183,-0.2802,-0.2689,-0.2235,-0.1343,-0.112,-0.1344,-0.1065,-0.0954,-0.0954,-0.1234,-0.101,-0.0841,-0.1568,-0.1064,-0.0,-0.0,-0.0,-0.0,-0.0,-0.0,-0.0,0.0505,0.0785,0.1401,0.1121,0.1232,0.14,0.1344,0.1289,0.1288,0.112,0.0729,0.0449,0.0224,0.0056,-0.0112,-0.0337,-0.0673,-0.1067,-0.1123,-0.1347,-0.1748,-0.1809,-0.1985,-0.2087,-0.2571,-0.2565,-0.2845,-0.2347,-0.1956,-0.1623,-0.1231,-0.0897,-0.0729,-0.0449,-0.0392,-0.0616,-0.0786,-0.0842,-0.1068,-0.1292,-0.152,-0.1594,-0.1608,-0.1033,-0.0516,-0.0115,0.0232,0.0688,0.1128,0.1191,0.1147,0.0973,0.0568,0.0226,-0.0112,-0.0336,-0.0393,-0.028,-0.0056,-0.0112,-0.028,-0.0,0.0336,0.0617,0.0729,0.0953,0.1065,0.1232,0.1456,0.1959,0.2294,0.2238,0.2406,0.2798,0.3021,0.319,0.3413,0.3694,0.3691,0.3688,0.3965,0.4245,0.4135,0.3968,0.3747,0.3744,-0.4356,-0.3799,-0.3583,-0.2747,-0.1853,-0.1684,-0.1628,-0.1515,-0.1346,-0.1288,-0.1623,-0.1176,-0.0954,-0.1009,-0.0785,-0.0841,-0.0841,-0.0954,-0.0841,-0.0056,-0.0336,-0.0,-0.0,-0.0,-0.0,-0.0,-0.0,-0.0,-0.0,0.0841,0.14,0.2071,0.14,0.1456,0.1956,0.1288,0.1121,0.1288,0.0784,0.0168,0.0112,-0.0112,-0.0449,-0.0507,-0.0619,-0.0786,-0.107,-0.1238,-0.1347,-0.1645,-0.1835,-0.2016,-0.2107,-0.2237,-0.2066,-0.1898,-0.1455,-0.112,-0.084,-0.0504,-0.0504,-0.028,-0.0,0.0056,-0.0112,-0.0224,-0.0336,-0.0561,-0.0785,-0.101,-0.1188,-0.1096,-0.0696,-0.0115,0.0347,0.0924,0.1543,0.1693,0.1407,0.1305,0.1021,0.062,0.0113,-0.0224,-0.0168,-0.0112,0.0393,0.0617,0.028,-0.0,0.0112,0.0449,0.0449,0.0729,0.1064,0.1287,0.179,0.2125,0.2571,0.2738,0.2738,0.2905,0.3241,0.3411,0.3522,0.3802,0.4024,0.4079,0.4132,0.4356,0.4577,0.4691,0.4581,0.4356,0.4298,-0.4379,-0.3591,-0.2637,-0.202,-0.1797,-0.1797,-0.1572,-0.1403,-0.1572,-0.1459,-0.1234,-0.1009,-0.0897,-0.0841,-0.0505,-0.0505,-0.0785,-0.0785,-0.0785,-0.0449,-0.0224,-0.0,-0.0,-0.0,-0.0,-0.0,-0.0,0.0841,0.1967,0.2133,0.2017,0.2579,0.1961,0.1846,0.2012,0.1233,0.1009,0.1065,0.0392,-0.0056,-0.0056,-0.0564,-0.0961,-0.1087,-0.1207,-0.1431,-0.1601,-0.1591,-0.1694,-0.1807,-0.145,-0.1226,-0.0931,-0.1022,-0.0898,-0.0784,-0.0672,-0.0505,-0.028,-0.0056,-0.0056,-0.0,0.0168,0.0224,0.028,0.0336,0.0224,-0.0,-0.0336,-0.0561,-0.0677,-0.0577,-0.0352,0.0291,0.0867,0.1608,0.2397,0.2033,0.1623,0.1343,0.1064,0.0672,0.0168,-0.0,-0.0056,0.0449,0.1346,0.1628,0.101,0.0673,0.0505,0.0617,0.0224,0.0448,0.0952,0.1623,0.2237,0.2571,0.2961,0.3072,0.3181,0.3463,0.3744,0.3799,0.3965,0.4301,0.4522,0.4525,0.4636,0.4802,0.4857,0.4967,0.5187,0.5073,0.4959,-0.3591,-0.3429,-0.2301,-0.1797,-0.1797,-0.1741,-0.1572,-0.1459,-0.1572,-0.1403,-0.1122,-0.0954,-0.0897,-0.0897,-0.0505,-0.028,-0.0561,-0.0617,-0.0617,-0.0505,-0.0,-0.0,-0.0,-0.0,-0.0,-0.0,-0.0,0.1066,0.2983,0.3375,0.3144,0.2916,0.224,0.1792,0.168,0.1233,0.0786,0.0561,-0.0056,-0.0283,-0.0342,-0.0977,-0.1457,-0.1653,-0.1724,-0.1888,-0.1802,-0.1676,-0.1499,-0.138,-0.1054,-0.0823,-0.0583,-0.057,-0.0337,-0.0224,-0.0112,-0.0,0.0168,0.028,0.0336,0.0393,0.0449,0.0561,0.0617,0.0673,0.0673,0.0393,-0.0224,-0.0505,-0.0339,-0.023,0.0291,0.0875,0.1395,0.2084,0.251,0.2529,0.2294,0.2128,0.1959,0.1902,0.1511,0.1344,0.1232,0.084,0.1794,0.2361,0.1853,0.1233,0.1065,0.1065,0.084,0.0841,0.1346,0.2073,0.2852,0.313,0.335,0.3574,0.3796,0.4076,0.4301,0.4356,0.4519,0.4853,0.5022,0.5077,0.5022,0.5136,0.5191,0.5246,0.5466,0.5626,0.5513,-0.2127,-0.3088,-0.2077,-0.1572,-0.1572,-0.1459,-0.1346,-0.1346,-0.129,-0.1121,-0.0729,-0.0617,-0.0673,-0.0785,-0.0504,-0.0336,-0.0056,0.0336,0.0168,-0.028,-0.0112,-0.0,-0.0,-0.0,-0.0,-0.0,-0.0,0.1459,0.2701,0.3091,0.32,0.286,0.2355,0.1794,0.1629,0.1235,0.0787,0.0452,-0.0,-0.046,-0.099,-0.1536,-0.1682,-0.1832,-0.1848,-0.1762,-0.1611,-0.1356,-0.1062,-0.0875,-0.0582,-0.0293,-0.0175,-0.0057,0.0056,0.0224,0.028,0.0505,0.0673,0.0729,0.0729,0.0785,0.0841,0.0897,0.0897,0.0897,0.0897,0.084,0.028,0.0168,0.0283,0.057,0.1096,0.1626,0.2145,0.2605,0.2841,0.3021,0.291,0.2745,0.2742,0.274,0.2631,0.2465,0.224,0.179,0.1959,0.2469,0.2641,0.1962,0.1512,0.1793,0.1962,0.2018,0.2132,0.2579,0.3416,0.3633,0.3855,0.4135,0.4411,0.4577,0.4802,0.4963,0.5187,0.5352,0.5513,0.5622,0.5572,0.5521,0.5567,0.5677,0.5732,0.5896,0.5955,-0.0168,-0.2071,-0.1065,-0.0673,-0.0617,-0.0393,-0.0224,-0.028,-0.0952,-0.0671,0.0224,0.0447,0.0336,-0.0112,0.0952,0.0952,0.0056,0.0841,0.0729,0.0168,0.0224,-0.0,-0.0,-0.0,-0.0,-0.0,0.1178,0.2023,0.2417,0.2865,0.3035,0.2531,0.2128,0.1753,0.1677,0.1262,0.0792,0.0512,0.0286,-0.0115,-0.0299,-0.0788,-0.1223,-0.1238,-0.0936,-0.0865,-0.0731,-0.0656,-0.0582,-0.04,-0.0171,0.0173,0.0404,0.0457,0.0563,0.0561,0.0673,0.0729,0.0841,0.1009,0.1009,0.0784,0.084,0.1008,0.1008,0.0952,0.1232,0.1847,0.1566,0.1676,0.1797,0.2021,0.2492,0.283,0.3334,0.3449,0.3644,0.3519,0.335,0.3183,0.3074,0.2963,0.2745,0.2689,0.2745,0.2519,0.2798,0.314,0.2413,0.213,0.1902,0.2352,0.2805,0.314,0.3251,0.3363,0.3922,0.4086,0.4245,0.4463,0.4739,0.5022,0.5242,0.5352,0.5572,0.5786,0.595,0.5941,0.6055,0.6,0.605,0.6105,0.6105,0.6055,0.6059]},{"header":{"parameterUnit":"m.s-1","parameterCategory":1,"la1":31.0,"la2":29.5877,"lo1":-88.7671,"lo2":-86.6584,"dy":0.0162,"dx":0.0185,"nx":115,"ny":88,"refTime":"2024-07-13T12:00:00:Z","depth":0,"parameterNumber":3,"parameterNumberName":"V-component_of_WINDS"},"data":[0.0,0.0,0.0,0.0,0.0,0.0,0.0,0.0,0.0,0.0,0.0,0.0,0.0,0.0,0.0,0.0,0.0,0.0,0.0,0.0,0.0,0.0,0.0,0.0,0.0,0.0,0.0,0.0,0.0,0.0,0.0,0.0,0.0,0.0,0.0,0.0,0.0,0.0,0.0,0.0,0.0,0.0,0.0,0.0,0.0,0.0,0.0,0.0,0.0,0.0,0.0,0.0,0.0,0.0,0.0,0.0,0.0,0.0,0.0,0.0,0.0,0.0,0.0,0.0,0.0,0.0,0.0,0.0,0.0,0.0,0.0,0.0,0.0,0.0,0.0,0.0,0.0,0.0,0.0,0.0,0.0,0.0,0.0,0.0,0.0,0.0,0.0,0.0,0.0,0.0,0.0,0.0,0.0,0.0,0.0,0.0,0.0,0.0,0.0,0.0,0.0,0.0,0.0,0.0,0.0,0.0,0.0,0.0,0.0,0.0,0.0,0.0,0.0,0.0,0.0,0.0,0.0,0.0,0.0,0.0,0.0,0.0,0.0,0.0,0.0,0.0,0.0,0.0,0.0,0.0,0.0,0.0,0.0,0.0,0.0,0.0,0.0,0.0,0.0,0.0,0.0,0.0,0.0,0.0,0.0,0.0,0.0,0.0,0.0,0.0,0.0,0.0,0.0,0.0,0.0,0.0,0.0,0.0,0.0,0.0,0.0,0.0,0.0,0.0,0.0,0.0,0.0,0.0,0.0,0.0,0.0,0.0,0.0,0.0,0.0,0.0,0.0,0.0,0.0,0.0,0.0,0.0,0.0,0.0,0.0,0.0,0.0,0.0,0.0,0.0,0.0,0.0,0.0,0.0,0.0,0.0,0.0,0.0,0.0,0.0,0.0,0.0,0.0,0.0,0.0,0.0,0.0,0.0,0.0,0.0,0.0,0.0,0.0,0.0,0.0,0.0,0.0,0.0,0.0,0.0,0.0,0.0,0.0,0.0,0.0,0.0,0.0,0.0,0.0,0.0,0.0,0.0,0.0,0.0,0.0,0.0,0.0,0.0,0.0,0.0,0.0,0.0,0.0,0.0,0.0,0.0,0.0,0.0,0.0,0.0,0.0,0.0,0.0,0.0,0.0,0.0,0.0,0.0,0.0,0.0,0.0,0.0,0.0,0.0,0.0,0.0,0.0,0.0,0.0,0.0,0.0,0.0,0.0,0.0,0.0,0.0,0.0,0.0,0.0,0.0,0.0,0.0,0.0,0.0,0.0,0.0,0.0,0.0,0.0,0.0,0.0,0.0,0.0,0.0,0.0,0.0,0.0,0.0,0.0,0.0,0.0,0.0,0.0,0.0,0.0,0.0,0.0,0.0,0.0,0.0,0.0,0.0,0.0,0.0,0.0,0.0,0.0,0.0,0.0,0.0,0.0,0.0,0.0,0.0,0.0,0.0,0.0,0.0,0.0,0.0,0.0,0.0,0.0,0.0,0.0,0.0,0.0,0.0,0.0,0.0,0.0,0.0,0.0,0.0,0.0,0.0,0.0,0.0,0.0,0.0,0.0,0.0,0.0,0.0,0.0,0.0,0.0,0.0,0.0,0.0,0.0,0.0,0.0,0.0,0.0,0.0,0.0,0.0,0.0,0.0,0.0,0.0,0.0,0.0,0.0,0.0,0.0,0.0,0.0,0.0,0.0,0.0,0.0,0.0,0.0,0.0,0.0,0.0,0.0,0.0,0.0,0.0,0.0,0.0,0.0,0.0,0.0,0.0,0.0,0.0,0.0,0.0,0.0,0.0,0.0,0.0,0.0,0.0,0.0,0.0,0.0,0.0,0.0,0.0,0.0,0.0,0.0,0.0,0.0,0.0,0.0,0.0,0.0,0.0,0.0,0.0,0.0,0.0,0.0,0.0,0.0,0.0,0.0,0.0,0.0,0.0,0.0,0.0,0.0,0.0,0.0,0.0,0.0,0.0,0.0,0.0,0.0,0.0,0.0,0.0,0.0,0.0,0.0,0.0,0.0,0.0,0.0,0.0,0.0,0.0,0.0,0.0,0.0,0.0,0.0,0.0,0.0,0.0,0.0,0.0,0.0,0.0,0.0,0.0,0.0,0.0,0.0,0.0,0.0,0.0,0.0,0.0,0.0,0.0,0.0,0.0,0.0,0.0,0.0,0.0,0.0,0.0,0.0,0.0,0.0,0.0,0.0,0.0,0.0,0.0,0.0,0.0,0.0,0.0,0.0,0.0,0.0,0.0,0.0,0.0,0.0,0.0,0.0,0.0,0.0,0.0,0.0,0.0,0.0,0.0,0.0,0.0,0.0,0.0,0.0,0.0,0.0,0.0,0.0,0.0,0.0,0.0,0.0,0.0,0.0,0.0,0.0,0.0,0.0,0.0,0.0,0.0,0.0,0.0,0.0,0.0,0.0,0.0,0.0,0.0,0.0,0.0,0.0,0.0,0.0,0.0,0.0,0.0,0.0,0.0,0.0,0.0,0.0,0.0,0.0,0.0,0.0,0.0,0.0,0.0,0.0,0.0,0.0,0.0,0.0,0.0,0.0,0.0,0.0,0.0,0.0,0.0,0.0,0.0,0.0,0.0,0.0,0.0,0.0,0.0,0.0,0.0,0.0,0.0,0.0,0.0,0.0,0.0,0.0,0.0,0.0,0.0,0.0,0.0,0.0,0.0,0.0,0.0,0.0,0.0,0.0,0.0,0.0,0.0,0.0,0.0,0.0,0.0,0.0,0.0,0.0,0.0,0.0,0.0,0.0,0.0,0.0,0.0,0.0,0.0,0.0,0.0,0.0,0.0,0.0,0.0,0.0,0.0,0.0,0.0,0.0,0.0,0.0,0.0,0.0,0.0,0.0,0.0,0.0,0.0,0.0,0.0,0.0,0.0,0.0,0.0,0.0,0.0,0.0,0.0,0.0,0.0,0.0,0.0,0.0,0.0,0.0,0.0,0.0,0.0,0.0,0.0,0.0,0.0,0.0,0.0,0.0,0.0,0.0,0.0,0.0,0.0,0.0,0.0,0.0,0.0,0.0,0.0,0.0,0.0,0.0,0.0,0.0,0.0,0.0,0.0,0.0,0.0,0.0,0.0,0.0,0.0,0.0,0.0,0.0,0.0,0.0,0.0,0.0,0.0,0.0,0.0,0.0,0.0,0.0,0.0,0.0,0.0,0.0,0.0,0.0,0.0,0.0,0.0,0.0,0.0,0.0,0.0,0.0,0.0,0.0,0.0,0.0,0.0,0.0,0.0,0.0,0.0,0.0,0.0,0.0,0.0,0.0,0.0,0.0,0.0,0.0,0.0,0.0,0.0,0.0,0.0,0.0,0.0,0.0,0.0,0.0,0.0,0.0,0.0,0.0,0.0,0.0,0.0,0.0,0.0,0.0,0.0,0.0,0.0,0.0,0.0,0.0,0.0,0.0,0.0,0.0,0.0,0.0,0.0,0.0,0.0,0.0,0.0,0.0,0.0,0.0,0.0,0.0,0.0,0.0,0.0,0.0,0.0,0.0,0.0,0.0,0.0,0.0,0.0,0.0,0.0,0.0,0.0,0.0,0.0,0.0,0.0,0.0,0.0,0.0,0.0,0.0,0.0,0.0,0.0,0.0,0.0,0.0,0.0,0.0,0.0,0.0,0.0,0.0,0.0,0.0,0.0,0.0,0.0,0.0,0.0,0.0,0.0,0.0,0.0,0.0,0.0,0.0,0.0,0.0,0.0,0.0,0.0,0.0,0.0,0.0,0.0,0.0,0.0,0.0,0.0,0.0,0.0,0.0,0.0,0.0,0.0,0.0,0.0,0.0,0.0,0.0,0.0,0.0,0.0,0.0,0.0,0.0,0.0,0.0,0.0,0.0,0.0,0.0,0.0,0.0,0.0,0.0,0.0,0.0,0.0,0.0,0.0,0.0,0.0,0.0,0.0,0.0,0.0,0.0,0.0,0.0,0.0,0.0,0.0,0.0,0.0,0.0,0.0,0.0,0.0,0.0,0.0,0.0,0.0,0.0,0.0,0.0,0.0,0.0,0.0,0.0,0.0,0.0,0.0,0.0,0.0,0.0,0.0,0.0,0.0,0.0,0.0,0.0,0.0,0.0,0.0,0.0,0.0,0.0,0.0,0.0,0.0,0.0,0.0,0.0,0.0,0.0,0.0,0.0,0.0,0.0,0.0,0.0,0.0,0.0,0.0,0.0,0.0,0.0,0.0,0.0,0.0,0.0,0.0,0.0,0.0,0.0,0.0,0.0,0.0,0.0,0.0,0.0,0.0,-0.9674,0.0,0.0,0.0,0.0,0.0,0.0,0.0,0.0,0.0,0.0,0.0,0.0,0.0,0.0,0.0,0.0,0.0,0.0,0.0,0.0,0.0,0.0,0.0,0.0,0.0,0.0,0.0,0.0,0.0,0.0,0.0,0.0,0.0,0.0,0.0,0.0,0.0,0.0,0.0,0.0,0.0,0.0,0.0,0.0,0.0,0.0,0.0,0.0,0.0,0.0,0.0,0.0,0.0,0.0,0.0,0.0,0.0,0.0,0.0,0.0,0.0,0.0,0.0,0.0,0.0,0.0,0.0,0.0,0.0,0.0,0.0,0.0,0.0,0.0,0.0,0.0,0.0,0.0,0.0,0.0,0.0,0.0,0.0,0.0,0.0,0.0,0.0,0.0,0.0,0.0,0.0,0.0,0.0,0.0,0.0,0.0,0.0,0.0,0.0,0.0,0.0,0.0,0.0,0.0,0.0,0.0,0.0,0.0,0.0,0.0,-0.8076,-0.8849,-0.9216,-0.9525,-0.9934,0.0,0.0,0.0,0.0,0.0,0.0,0.0,0.0,0.0,0.0,0.0,0.0,0.0,0.0,0.0,0.0,0.0,0.0,0.0,0.0,0.0,0.0,0.0,0.0,0.0,0.0,0.0,0.0,0.0,0.0,0.0,0.0,0.0,0.0,0.0,0.0,0.0,0.0,0.0,0.0,0.0,0.0,0.0,0.0,0.0,0.0,0.0,0.0,0.0,0.0,0.0,0.0,0.0,0.0,0.0,0.0,0.0,0.0,0.0,0.0,0.0,0.0,0.0,0.0,0.0,0.0,0.0,0.0,0.0,0.0,0.0,0.0,0.0,0.0,0.0,0.0,0.0,0.0,0.0,0.0,0.0,0.0,0.0,0.0,0.0,0.0,0.0,0.0,0.0,0.0,0.0,0.0,0.0,0.0,0.0,0.0,0.0,0.0,0.0,0.0,0.0,0.0,0.0,0.0,0.0,0.0,0.0,0.0,0.0,0.0,0.0,0.0,-0.9492,-1.0318,-1.0749,0.0,0.0,0.0,0.0,0.0,0.0,0.0,0.0,0.0,0.0,0.0,0.0,0.0,0.0,0.0,0.0,0.0,0.0,0.0,0.0,0.0,0.0,0.0,0.0,0.0,0.0,0.0,0.0,0.0,0.0,0.0,0.0,0.0,0.0,0.0,0.0,0.0,0.0,0.0,0.0,0.0,0.0,0.0,0.0,0.0,0.0,0.0,0.0,0.0,0.0,0.0,0.0,0.0,0.0,0.0,0.0,0.0,0.0,0.0,0.0,0.0,0.0,0.0,0.0,0.0,0.0,0.0,0.0,0.0,0.0,0.0,0.0,0.0,0.0,0.0,0.0,0.0,0.0,0.0,0.0,0.0,0.0,0.0,0.0,0.0,0.0,0.0,0.0,0.0,0.0,0.0,0.0,0.0,0.0,0.0,0.0,0.0,0.0,0.0,0.0,0.0,0.0,0.0,0.0,0.0,0.0,0.0,0.0,0.0,0.0,-0.7583,-0.737,-0.9302,0.0,-1.165,0.0,0.0,0.0,0.0,0.0,0.0,0.0,0.0,0.0,0.0,0.0,0.0,0.0,0.0,0.0,0.0,0.0,0.0,0.0,0.0,0.0,0.0,0.0,0.0,0.0,0.0,0.0,0.0,0.0,0.0,0.0,0.0,0.0,0.0,0.0,0.0,0.0,0.0,0.0,0.0,0.0,0.0,0.0,0.0,0.0,0.0,0.0,0.0,0.0,0.0,0.0,0.0,0.0,0.0,0.0,0.0,0.0,0.0,0.0,0.0,0.0,0.0,0.0,0.0,0.0,0.0,0.0,0.0,0.0,0.0,0.0,0.0,0.0,0.0,0.0,0.0,0.0,0.0,0.0,0.0,0.0,0.0,0.0,0.0,0.0,0.0,0.0,0.0,0.0,0.0,0.0,0.0,0.0,0.0,0.0,0.0,0.0,0.0,0.0,0.0,0.0,0.0,0.0,0.0,0.0,0.0,0.0,0.0,0.0,0.0,0.0,-0.778,-0.9411,-1.0761,0.0,0.0,0.0,0.0,0.0,0.0,0.0,0.0,0.0,0.0,0.0,0.0,0.0,0.0,0.0,0.0,0.0,0.0,0.0,0.0,0.0,0.0,0.0,0.0,0.0,0.0,0.0,0.0,0.0,0.0,0.0,0.0,0.0,0.0,0.0,0.0,0.0,0.0,0.0,0.0,0.0,0.0,0.0,0.0,0.0,0.0,0.0,0.0,0.0,0.0,0.0,0.0,0.0,0.0,0.0,0.0,0.0,0.0,0.0,0.0,0.0,0.0,0.0,0.0,0.0,0.0,0.0,0.0,0.0,0.0,0.0,0.0,0.0,0.0,0.0,0.0,0.0,0.0,0.0,0.0,0.0,0.0,0.0,0.0,0.0,0.0,0.0,0.0,0.0,0.0,0.0,0.0,0.0,0.0,0.0,0.0,0.0,0.0,0.0,0.0,0.0,0.0,0.0,0.0,0.0,0.0,0.0,0.0,0.0,0.0,-0.6045,0.0,-0.8516,-0.947,-1.0491,-1.1574,0.0,0.0,0.0,0.0,0.0,0.0,0.0,0.0,0.0,0.0,0.0,0.0,0.0,0.0,0.0,0.0,0.0,0.0,0.0,0.0,0.0,0.0,0.0,0.0,0.0,0.0,0.0,0.0,0.0,0.0,0.0,0.0,0.0,0.0,0.0,0.0,0.0,0.0,0.0,0.0,0.0,0.0,0.0,0.0,0.0,0.0,0.0,0.0,0.0,0.0,0.0,0.0,0.0,0.0,0.0,0.0,0.0,0.0,0.0,0.0,0.0,0.0,0.0,0.0,0.0,0.0,0.0,0.0,0.0,0.0,0.0,0.0,0.0,0.0,0.0,0.0,0.0,0.0,0.0,0.0,0.0,0.0,0.0,0.0,0.0,0.0,0.0,0.0,0.0,0.0,0.0,0.0,0.0,0.0,0.0,0.0,0.0,0.0,0.0,0.0,0.0,0.0,0.0,0.0,0.0,0.0,0.0,0.0,0.0,-0.4999,-0.6812,-0.9296,-0.9428,-0.993,0.0,0.0,0.0,0.0,0.0,0.0,0.0,0.0,0.0,0.0,0.0,0.0,0.0,0.0,0.0,0.0,0.0,0.0,0.0,0.0,0.0,0.0,0.0,0.0,0.0,0.0,0.0,0.0,0.0,0.0,0.0,0.0,0.0,0.0,0.0,0.0,0.0,0.0,0.0,0.0,0.0,0.0,0.0,0.0,0.0,0.0,0.0,0.0,0.0,0.0,0.0,0.0,0.0,0.0,0.0,0.0,0.0,0.0,0.0,0.0,0.0,0.0,0.0,0.0,0.0,0.0,0.0,0.0,0.0,0.0,0.0,0.0,0.0,0.0,0.0,0.0,0.0,0.0,0.0,0.0,0.0,0.0,0.0,0.0,0.0,0.0,0.0,0.0,0.0,0.0,0.0,0.0,0.0,0.0,0.0,0.0,0.0,0.0,0.0,0.0,0.0,0.0,0.0,0.0,0.0,0.0,0.0,0.0,0.0,-0.2753,-0.4662,-0.6497,-0.8201,-0.8788,-0.952,0.0,0.0,0.0,0.0,0.0,0.0,0.0,0.0,0.0,0.0,0.0,0.0,0.0,0.0,0.0,0.0,0.0,0.0,0.0,0.0,0.0,0.0,0.0,0.0,0.0,0.0,0.0,0.0,0.0,0.0,0.0,0.0,0.0,0.0,0.0,0.0,0.0,0.0,0.0,0.0,0.0,0.0,0.0,0.0,0.0,0.0,0.0,0.0,0.0,0.0,0.0,0.0,0.0,0.0,0.0,0.0,0.0,0.0,0.0,0.0,0.0,0.0,0.0,0.0,0.0,0.0,0.0,0.0,0.0,0.0,0.0,0.0,0.0,0.0,0.0,0.0,0.0,0.0,0.0,0.0,0.0,0.0,0.0,0.0,0.0,0.0,0.0,0.0,0.0,0.0,0.0,0.0,0.0,0.0,0.0,0.0,0.0,0.0,0.0,0.0,0.0,0.0,0.0,0.0,0.0,0.0,0.0,0.0,0.0,-0.1276,0.0,-0.5549,0.0,-0.8024,-0.8965,0.0,0.0,0.0,0.0,0.0,0.0,0.0,0.0,0.0,0.0,0.0,0.0,0.0,0.0,0.0,0.0,0.0,0.0,0.0,0.0,0.0,0.0,0.0,0.0,0.0,0.0,0.0,0.0,0.0,0.0,0.0,0.0,0.0,0.0,0.0,0.0,0.0,0.0,0.0,0.0,0.0,0.0,0.0,0.0,0.0,0.0,0.0,0.0,0.0,0.0,0.0,0.0,0.0,0.0,0.0,0.0,0.0,0.0,0.0,0.0,0.0,0.0,0.0,0.0,0.0,0.0,0.0,0.0,0.0,0.0,0.0,0.0,0.0,0.0,0.0,0.0,0.0,0.0,0.0,0.0,0.0,0.0,0.0,0.0,0.0,0.0,0.0,0.0,0.0,0.0,0.0,0.0,0.0,0.0,0.0,0.0,0.0,0.0,0.0,0.0,0.0,0.0,0.0,0.0,0.0,0.0,0.0,0.0,0.2354,0.0207,-0.1756,-0.3931,-0.6359,-0.7133,-0.823,0.0,0.0,0.0,0.0,0.0,0.0,0.0,0.0,0.0,0.0,0.0,0.0,0.0,0.0,0.0,0.0,0.0,0.0,0.0,0.0,0.0,0.0,0.0,0.0,0.0,0.0,0.0,0.0,0.0,0.0,0.0,0.0,0.0,0.0,0.0,0.0,0.0,0.0,0.0,0.0,0.0,0.0,0.0,0.0,0.0,0.0,0.0,0.0,0.0,0.0,0.0,0.0,0.0,0.0,0.0,0.0,0.0,0.0,0.0,0.0,0.0,0.0,0.0,0.0,0.0,0.0,0.0,0.0,0.0,0.0,0.0,0.0,0.0,0.0,0.0,0.0,0.0,0.0,0.0,0.0,0.0,0.0,0.0,0.0,0.0,0.0,0.0,0.0,0.0,0.0,0.0,0.0,0.0,0.0,0.0,0.0,0.0,0.0,0.0,0.0,0.0,0.0,0.0,0.0,0.0,0.0,0.0,0.0,0.0,0.1012,-0.1298,-0.3092,-0.4314,-0.6085,-0.7576,0.0,0.0,0.0,0.0,0.0,0.0,0.0,0.0,0.0,0.0,0.0,0.0,0.0,0.0,0.0,0.0,0.0,0.0,0.0,0.0,0.0,0.0,0.0,0.0,0.0,0.0,0.0,0.0,0.0,0.0,0.0,0.0,0.0,0.0,0.0,0.0,0.0,0.0,0.0,0.0,0.0,0.0,0.0,0.0,0.0,0.0,0.0,0.0,0.0,0.0,0.0,0.0,0.0,0.0,0.0,0.0,0.0,0.0,0.0,0.0,0.0,0.0,0.0,0.0,0.0,0.0,0.0,0.0,0.0,0.0,0.0,0.0,0.0,0.0,0.0,0.0,0.0,0.0,0.0,0.0,0.0,0.0,0.0,0.0,0.0,0.0,0.0,0.0,0.0,0.0,0.0,0.0,0.0,0.0,0.0,0.0,0.0,0.0,0.0,0.0,0.0,0.0,0.0,0.0,0.0,0.0,0.0,0.0,0.0,0.1883,-0.078,-0.2792,-0.4293,-0.6573,-0.8221,-0.9158,0.0,0.0,0.0,0.0,0.0,0.0,0.0,0.0,0.0,0.0,0.0,0.0,0.0,0.0,0.0,0.0,0.0,0.0,0.0,0.0,0.0,0.0,0.0,0.0,0.0,0.0,0.0,0.0,0.0,0.0,0.0,0.0,0.0,0.0,0.0,0.0,0.0,0.0,0.0,0.0,0.0,0.0,0.0,0.0,0.0,0.0,0.0,0.0,0.0,0.0,0.0,0.0,0.0,0.0,0.0,0.0,0.0,0.0,0.0,0.0,0.0,0.0,0.0,0.0,0.0,0.0,0.0,0.0,0.0,0.0,0.0,0.0,0.0,0.0,0.0,0.0,0.0,0.0,0.0,0.0,0.0,0.0,0.0,0.0,0.0,0.0,0.0,0.0,0.0,0.0,0.0,0.0,0.0,0.0,0.0,0.0,0.0,0.0,0.0,0.0,0.0,0.0,0.0,0.0,0.0,0.0,0.0,0.0,0.2855,0.0,-0.3006,-0.5764,-0.798,-0.9663,0.0,0.0,0.0,0.0,0.0,0.0,0.0,0.0,0.0,0.0,0.0,0.0,0.0,0.0,0.0,0.0,0.0,0.0,0.0,0.0,0.0,0.0,0.0,0.0,0.0,0.0,0.0,0.0,0.0,0.0,0.0,0.0,0.0,0.0,0.0,0.0,0.0,0.0,0.0,0.0,0.0,0.0,0.0,0.0,0.0,0.0,0.0,0.0,0.0,0.0,0.0,0.0,0.0,0.0,0.0,0.0,0.0,0.0,0.0,0.0,0.0,0.0,0.0,0.0,0.0,0.0,0.0,0.0,0.0,0.0,0.0,0.0,0.0,0.0,0.0,0.0,0.0,0.0,0.0,0.0,0.0,0.0,0.0,0.0,0.0,0.0,0.0,0.0,0.0,0.0,0.0,0.0,0.0,0.0,0.0,0.0,0.0,0.0,0.0,0.0,0.0,0.0,0.0,0.0,0.0,0.0,0.0,0.0,0.0,0.2847,-0.008,-0.2579,-0.4666,-0.7629,-0.953,0.0,0.0,0.0,0.0,0.0,0.0,0.0,0.0,0.0,0.0,0.0,0.0,0.0,0.0,0.0,0.0,0.0,0.0,0.0,0.0,0.0,0.0,0.0,0.0,0.0,0.0,0.0,0.0,0.0,0.0,0.0,0.0,0.0,0.0,0.0,0.0,0.0,0.0,0.0,0.0,0.0,0.0,0.0,0.0,0.0,0.0,0.0,0.0,0.0,0.0,0.0,0.0,0.0,0.0,0.0,0.0,0.0,0.0,0.0,0.0,0.0,0.0,0.0,0.0,0.0,0.0,0.0,0.0,0.0,0.0,0.0,0.0,0.0,0.0,0.0,0.0,0.0,0.0,0.0,0.0,0.0,0.0,0.0,0.0,0.0,0.0,0.0,0.0,0.0,0.0,0.0,0.0,0.0,0.0,0.0,0.0,0.0,0.0,0.0,0.0,0.0,0.0,0.0,0.0,0.0,0.0,0.0,0.0,0.5116,0.226,-0.025,-0.2477,-0.4473,-0.7575,-0.9637,0.0,0.0,0.0,0.0,0.0,0.0,0.0,0.0,0.0,0.0,0.0,0.0,0.0,0.0,0.0,0.0,0.0,0.0,0.0,0.0,0.0,0.0,0.0,0.0,0.0,0.0,0.0,0.0,0.0,0.0,0.0,0.0,0.0,0.0,0.0,0.0,0.0,0.0,0.0,0.0,0.0,0.0,0.0,0.0,0.0,0.0,0.0,0.0,0.0,0.0,0.0,0.0,0.0,0.0,0.0,0.0,0.0,0.0,0.0,0.0,0.0,0.0,0.0,0.0,0.0,0.0,0.0,0.0,0.0,0.0,0.0,0.0,0.0,0.0,0.0,0.0,0.0,0.0,0.0,0.0,0.0,0.0,0.0,0.0,0.0,0.0,0.0,0.0,0.0,0.0,0.0,0.0,0.0,0.0,0.0,0.0,0.0,0.0,0.0,0.0,0.0,0.0,0.0,0.0,0.0,0.0,0.0,0.0,0.4433,0.1418,-0.0428,-0.2498,-0.4984,-0.7697,-0.9874,0.0,0.0,0.0,0.0,0.0,0.0,0.0,0.0,0.0,0.0,0.0,0.0,0.0,0.0,0.0,0.0,0.0,0.0,0.0,0.0,0.0,0.0,0.0,0.0,0.0,0.0,0.0,0.0,0.0,0.0,0.0,0.0,0.0,0.0,0.0,0.0,0.0,0.0,0.0,0.0,0.0,0.0,0.0,0.0,0.0,0.0,0.0,0.0,0.0,0.0,0.0,0.0,0.0,0.0,0.0,0.0,0.0,0.0,0.0,0.0,0.0,0.0,0.0,0.0,0.0,0.0,0.0,0.0,0.0,0.0,0.0,0.0,0.0,0.0,0.0,0.0,0.0,0.0,0.0,0.0,0.0,0.0,0.0,0.0,0.0,0.0,0.0,0.0,0.0,0.0,0.0,0.0,0.0,0.0,0.0,0.0,0.0,0.0,0.0,0.0,0.0,0.0,0.0,0.0,0.0,0.0,0.0,0.0,0.4346,0.1071,-0.0174,-0.2321,-0.5437,-0.786,-0.9881,0.0,0.0,0.0,0.0,0.0,0.0,0.0,0.0,0.0,0.0,0.0,0.0,0.0,0.0,0.0,0.0,0.0,0.0,0.0,0.0,0.0,0.0,0.0,0.0,0.0,0.0,0.0,0.0,0.0,0.0,0.0,0.0,0.0,0.0,0.0,0.0,0.0,0.0,0.0,0.0,0.0,0.0,0.0,0.0,0.0,0.0,0.0,0.0,-1.7712,0.0,0.0,0.0,0.0,0.0,0.0,0.0,0.0,0.0,0.0,0.0,0.0,0.0,0.0,0.0,0.0,0.0,0.0,0.0,0.0,0.0,0.0,0.0,0.0,0.0,0.0,0.0,0.0,0.0,0.0,0.0,0.0,0.0,0.0,0.0,0.0,0.0,0.0,0.0,0.0,0.0,0.0,0.0,0.0,0.0,0.0,0.0,0.0,0.0,0.0,0.0,0.0,0.0,0.0,0.0,0.0,0.0,0.0,0.0,0.3704,0.0502,-0.0437,-0.241,-0.5601,-0.755,-0.9685,0.0,0.0,0.0,0.0,0.0,0.0,0.0,0.0,0.0,0.0,0.0,0.0,0.0,0.0,0.0,0.0,0.0,0.0,0.0,0.0,0.0,0.0,0.0,0.0,0.0,0.0,0.0,0.0,0.0,0.0,0.0,0.0,0.0,0.0,0.0,0.0,0.0,0.0,0.0,0.0,0.0,0.0,0.0,0.0,0.0,0.0,0.0,0.0,0.0,0.0,0.0,0.0,0.0,0.0,0.0,0.0,0.0,0.0,0.0,0.0,0.0,0.0,0.0,0.0,0.0,0.0,0.0,0.0,0.0,0.0,0.0,0.0,0.0,0.0,0.0,0.0,0.0,0.0,0.0,0.0,0.0,0.0,0.0,0.0,0.0,0.0,0.0,0.0,0.0,0.0,0.0,0.0,0.0,0.0,0.0,0.0,0.0,0.0,0.0,0.0,0.0,0.0,0.0,0.0,0.0,0.0,0.0,0.4295,0.2699,-0.017,-0.1054,-0.2856,-0.57,-0.733,-0.9581,-1.2597,0.0,0.0,0.0,0.0,0.0,0.0,0.0,0.0,0.0,0.0,0.0,0.0,0.0,0.0,0.0,0.0,0.0,0.0,0.0,0.0,0.0,0.0,0.0,0.0,0.0,0.0,0.0,0.0,0.0,0.0,0.0,0.0,0.0,0.0,0.0,0.0,0.0,0.0,-0.7247,-0.7203,0.0,0.0,0.0,0.0,0.0,0.0,0.0,0.0,-1.6693,0.0,0.0,0.0,0.0,0.0,0.0,0.0,0.0,0.0,0.0,0.0,0.0,0.0,0.0,0.0,0.0,0.0,0.0,0.0,0.0,0.0,0.0,0.0,0.0,0.0,0.0,0.0,0.0,0.0,0.0,0.0,0.0,0.0,0.0,0.0,0.0,0.0,0.0,0.0,0.0,0.0,0.0,0.0,0.0,0.0,0.0,0.0,0.0,0.0,0.0,0.0,0.0,0.0,0.0,0.0,0.0,0.455,0.3041,0.1307,-0.0618,-0.2314,-0.4194,-0.6239,-0.8074,-1.0198,-1.272,0.0,0.0,0.0,0.0,0.0,0.0,0.0,0.0,0.0,0.0,0.0,0.0,0.0,0.0,0.0,0.0,0.0,0.0,0.0,0.0,0.0,0.0,0.0,0.0,0.0,0.0,0.0,0.0,0.0,0.0,0.0,0.0,0.0,0.0,0.0,0.0,0.0,0.0,0.0,-0.5522,-0.6956,0.0,0.0,0.0,0.0,0.0,0.0,0.0,0.0,-1.8126,0.0,0.0,0.0,0.0,0.0,0.0,0.0,0.0,0.0,0.0,0.0,0.0,0.0,0.0,0.0,0.0,0.0,0.0,0.0,0.0,0.0,0.0,0.0,0.0,0.0,0.0,0.0,0.0,0.0,0.0,0.0,0.0,0.0,0.0,0.0,0.0,0.0,0.0,0.0,0.0,0.0,0.0,0.0,0.0,0.0,0.0,0.0,0.0,0.0,0.0,0.0,0.0,0.0,0.0,0.0,0.3579,0.2263,0.0592,-0.1607,-0.3037,-0.4727,-0.6678,-0.8319,-1.0297,0.0,0.0,0.0,0.0,0.0,0.0,0.0,0.0,0.0,0.0,0.0,0.0,0.0,0.0,0.0,0.0,0.0,0.0,0.0,0.0,0.0,0.0,0.0,0.0,0.0,0.0,0.0,0.0,0.0,0.0,0.0,0.0,0.0,0.0,0.0,0.0,0.0,0.0,0.0,0.0,-0.4891,-0.6402,-0.9807,0.0,0.0,0.0,0.0,0.0,0.0,-1.7731,-1.8794,0.0,0.0,0.0,0.0,0.0,0.0,0.0,0.0,0.0,0.0,0.0,0.0,0.0,0.0,0.0,0.0,0.0,0.0,0.0,0.0,0.0,0.0,0.0,0.0,0.0,0.0,0.0,0.0,0.0,0.0,0.0,0.0,0.0,0.0,0.0,0.0,0.0,0.0,0.0,0.0,0.0,0.0,0.0,0.0,0.0,0.0,0.0,0.0,0.0,0.0,0.0,0.0,0.0,0.0,0.0,0.2571,0.1496,-0.0261,-0.268,-0.3927,-0.552,-0.746,-0.8851,-1.0568,0.0,0.0,0.0,0.0,0.0,0.0,0.0,0.0,0.0,0.0,0.0,0.0,0.0,0.0,0.0,0.0,0.0,0.0,0.0,0.0,0.0,0.0,0.0,0.0,0.0,0.0,0.0,0.0,0.0,0.0,0.0,0.0,0.0,0.0,0.0,0.0,0.0,0.0,0.0,0.0,0.0,-0.6586,-0.9863,-1.2715,0.0,0.0,0.0,0.0,-1.7926,-1.8647,0.0,0.0,0.0,0.0,0.0,0.0,0.0,0.0,0.0,0.0,0.0,0.0,0.0,0.0,0.0,0.0,0.0,0.0,0.0,0.0,0.0,0.0,0.0,0.0,0.0,0.0,0.0,0.0,0.0,0.0,0.0,0.0,0.0,0.0,0.0,0.0,0.0,0.0,0.0,0.0,0.0,0.0,0.0,0.0,0.0,0.0,0.0,0.0,0.0,0.0,0.0,0.0,0.0,0.0,0.0,0.0,0.2491,0.0246,-0.1801,-0.3472,-0.5612,-0.7467,-0.8939,-1.001,-1.1552,0.0,0.0,0.0,0.0,0.0,0.0,0.0,0.0,0.0,0.0,0.0,0.0,0.0,0.0,0.0,0.0,0.0,0.0,0.0,0.0,0.0,0.0,0.0,0.0,0.0,0.0,0.0,0.0,0.0,0.0,0.0,0.0,0.0,0.0,0.0,0.0,0.0,0.0,0.0,0.0,0.0,-0.7621,-0.9294,-1.2962,-1.5344,0.0,0.0,-1.894,-1.7655,-2.0103,0.0,0.0,0.0,0.0,0.0,0.0,0.0,0.0,0.0,0.0,0.0,0.0,0.0,0.0,0.0,0.0,0.0,0.0,0.0,0.0,0.0,0.0,0.0,0.0,0.0,0.0,0.0,0.0,0.0,0.0,0.0,0.0,0.0,0.0,0.0,0.0,0.0,0.0,0.0,0.0,0.0,0.0,0.0,0.0,0.0,0.0,0.0,0.0,0.0,0.0,0.0,0.0,0.0,0.0,0.0,0.1435,0.078,-0.0993,-0.2943,-0.4989,-0.7197,-0.8727,-0.9734,-1.0779,-1.2111,0.0,0.0,0.0,0.0,0.0,0.0,0.0,0.0,0.0,0.0,0.0,0.0,0.0,0.0,0.0,0.0,0.0,0.0,0.0,0.0,0.0,0.0,0.0,0.0,0.0,0.0,0.0,0.0,0.0,0.0,0.0,0.0,0.0,0.0,0.0,0.0,0.0,0.0,0.0,0.0,0.0,0.0,-1.057,-1.3592,0.0,0.0,0.0,-1.9255,-1.8797,0.0,0.0,0.0,0.0,0.0,0.0,0.0,0.0,0.0,0.0,0.0,0.0,0.0,0.0,0.0,0.0,0.0,0.0,0.0,0.0,0.0,0.0,0.0,0.0,0.0,0.0,0.0,0.0,0.0,0.0,0.0,0.0,0.0,0.0,0.0,0.0,0.0,0.0,0.0,0.0,0.0,0.0,0.0,0.0,0.0,0.0,0.0,0.0,0.0,0.0,0.0,0.0,0.0,0.0,0.0,0.0,0.0,-0.0775,-0.225,-0.4177,-0.6536,-0.8446,-0.9843,-1.0851,-1.1806,0.0,0.0,0.0,0.0,0.0,0.0,0.0,0.0,0.0,0.0,0.0,0.0,0.0,0.0,0.0,0.0,0.0,0.0,0.0,0.0,0.0,0.0,0.0,0.0,0.0,0.0,0.0,-1.5101,0.0,0.0,0.0,0.0,0.0,0.0,0.0,0.0,0.0,0.0,0.0,0.0,0.0,0.0,-0.9443,-1.1821,-1.4572,-1.6826,0.0,0.0,-1.9935,-2.0269,-2.229,-2.3595,0.0,0.0,0.0,0.0,0.0,0.0,0.0,0.0,0.0,0.0,0.0,0.0,0.0,0.0,0.0,0.0,0.0,0.0,0.0,0.0,0.0,0.0,0.0,0.0,0.0,0.0,0.0,0.0,0.0,0.0,0.0,0.0,0.0,0.0,0.0,0.0,0.0,0.0,0.0,0.0,0.0,0.0,0.0,0.0,0.0,0.0,0.0,0.0,0.0,0.0,0.0,0.0,0.0,0.0,0.0,-0.1513,-0.3388,-0.5513,-0.7831,-0.9274,-1.0961,-1.2927,-1.3265,-1.393,0.0,0.0,0.0,0.0,0.0,0.0,0.0,0.0,0.0,0.0,0.0,0.0,0.0,0.0,0.0,0.0,0.0,0.0,0.0,0.0,0.0,0.0,0.0,0.0,0.0,0.0,0.0,0.0,0.0,0.0,0.0,0.0,0.0,0.0,0.0,0.0,0.0,0.0,0.0,0.0,0.0,-1.1925,-1.2656,-1.5898,-1.8431,0.0,0.0,-2.1679,-2.1738,-2.4461,-2.5719,-2.3372,0.0,0.0,0.0,0.0,0.0,0.0,0.0,0.0,0.0,0.0,0.0,0.0,0.0,0.0,0.0,0.0,0.0,0.0,0.0,0.0,0.0,0.0,0.0,0.0,0.0,0.0,0.0,0.0,0.0,0.0,0.0,0.0,0.0,0.0,0.0,0.0,0.0,0.0,0.0,0.0,0.0,0.0,0.0,0.0,0.0,0.0,0.0,0.0,0.0,0.0,0.0,0.0,0.0,-0.4012,-0.3599,-0.5504,-0.7371,-0.9055,-1.0789,-1.2338,-1.3754,-1.4037,-1.455,0.0,0.0,0.0,0.0,0.0,0.0,0.0,0.0,0.0,0.0,0.0,0.0,0.0,0.0,0.0,0.0,0.0,0.0,0.0,0.0,0.0,0.0,0.0,0.0,0.0,0.0,0.0,0.0,-1.5769,-1.68,-1.8089,0.0,0.0,0.0,0.0,0.0,0.0,0.0,0.0,0.0,0.0,-1.409,-1.506,-1.7976,0.0,0.0,-2.1851,-2.2249,-2.2048,-2.3658,-2.448,-2.2889,-2.4015,0.0,0.0,0.0,0.0,0.0,0.0,0.0,0.0,0.0,0.0,0.0,0.0,0.0,0.0,0.0,0.0,0.0,0.0,0.0,0.0,0.0,0.0,0.0,0.0,0.0,0.0,0.0,0.0,0.0,0.0,0.0,0.0,0.0,0.0,0.0,0.0,0.0,0.0,0.0,0.0,0.0,0.0,0.0,0.0,0.0,0.0,0.0,0.0,0.0,0.0,0.0,0.0,-0.6384,-0.5832,-0.7617,-0.9242,-1.0677,-1.2289,-1.3614,-1.4672,-1.5065,-1.5506,0.0,0.0,0.0,0.0,0.0,0.0,0.0,0.0,0.0,0.0,0.0,0.0,0.0,0.0,0.0,0.0,0.0,0.0,0.0,0.0,0.0,0.0,0.0,0.0,0.0,0.0,0.0,0.0,-1.6472,-1.7871,-1.9114,0.0,0.0,0.0,0.0,0.0,0.0,0.0,0.0,0.0,0.0,-1.5656,-1.6899,-1.9059,-2.0971,-2.2053,-2.2187,-2.2295,-2.2725,-2.3724,-2.4205,-2.3509,0.0,0.0,0.0,0.0,0.0,0.0,0.0,0.0,0.0,0.0,0.0,0.0,0.0,0.0,0.0,0.0,0.0,0.0,0.0,0.0,0.0,0.0,0.0,0.0,0.0,0.0,0.0,0.0,0.0,0.0,-1.5197,0.0,0.0,0.0,0.0,0.0,0.0,0.0,0.0,0.0,0.0,0.0,0.0,0.0,0.0,0.0,0.0,0.0,0.0,0.0,0.0,0.0,0.0,-0.8293,-0.7944,-0.96,-1.1183,-1.2619,-1.3593,-1.4746,-1.6057,-1.6581,-1.6729,-1.6495,0.0,0.0,0.0,0.0,0.0,0.0,0.0,0.0,0.0,0.0,0.0,0.0,0.0,0.0,0.0,0.0,0.0,0.0,0.0,0.0,0.0,0.0,0.0,0.0,0.0,0.0,-1.411,-1.6579,-1.8724,0.0,0.0,0.0,0.0,0.0,0.0,0.0,0.0,0.0,0.0,-1.4793,-1.6459,-1.7683,-1.8678,-1.9985,-2.1322,-2.1359,-2.1907,-2.3878,-2.5306,-2.6012,0.0,0.0,0.0,0.0,0.0,0.0,0.0,0.0,0.0,0.0,0.0,0.0,0.0,0.0,0.0,0.0,0.0,0.0,0.0,0.0,0.0,0.0,0.0,0.0,0.0,0.0,0.0,-1.3932,-1.4118,0.0,0.0,0.0,0.0,0.0,0.0,0.0,0.0,0.0,0.0,0.0,-1.5122,-1.6187,0.0,0.0,0.0,0.0,0.0,0.0,0.0,0.0,0.0,0.0,0.0,0.0,-1.1431,-1.0473,-1.237,-1.3689,-1.4126,-1.4824,-1.5522,-1.6189,-1.6319,-1.6653,-1.7183,0.0,0.0,0.0,0.0,0.0,0.0,0.0,0.0,0.0,0.0,0.0,0.0,0.0,0.0,0.0,0.0,0.0,0.0,0.0,0.0,0.0,0.0,0.0,0.0,0.0,-1.6691,0.0,0.0,0.0,0.0,0.0,0.0,0.0,0.0,0.0,0.0,0.0,-1.3949,-1.5328,-1.7175,-1.8695,-1.9329,-2.0303,-2.1444,0.0,0.0,0.0,0.0,0.0,0.0,0.0,0.0,0.0,0.0,0.0,0.0,0.0,0.0,-2.9099,-2.7061,-2.6789,-2.6593,-2.5696,0.0,0.0,0.0,0.0,0.0,0.0,0.0,0.0,0.0,0.0,0.0,0.0,0.0,0.0,-1.5594,0.0,-1.5361,0.0,0.0,0.0,0.0,0.0,0.0,0.0,0.0,-1.5396,-1.6284,-1.7498,-1.8152,-1.9089,0.0,-2.0142,-1.9304,0.0,0.0,0.0,0.0,0.0,0.0,0.0,0.0,-1.3481,-1.2469,-1.4234,-1.5296,-1.557,-1.6008,-1.6437,-1.693,-1.7084,-1.7451,-1.8158,-1.9179,-1.9953,0.0,0.0,0.0,0.0,0.0,0.0,0.0,0.0,0.0,0.0,0.0,0.0,0.0,0.0,0.0,0.0,0.0,0.0,0.0,0.0,0.0,0.0,0.0,-1.7568,0.0,0.0,0.0,0.0,0.0,0.0,0.0,0.0,0.0,-1.5996,-1.6,-1.6628,-1.7764,-1.9313,-2.043,-2.0637,0.0,0.0,0.0,0.0,0.0,0.0,0.0,-2.5734,-2.6151,-2.6648,-2.7244,-2.8021,-2.94,-3.0388,-3.0466,0.0,0.0,-2.974,-2.9361,-2.9147,-2.8639,-2.8186,-2.7914,-2.7786,-2.7993,-2.8105,0.0,0.0,0.0,0.0,0.0,0.0,0.0,0.0,-1.8289,-1.8344,0.0,-1.7568,0.0,0.0,0.0,0.0,0.0,-1.6344,0.0,0.0,-1.8317,-1.8944,-1.943,-1.9963,-2.0535,-2.1135,-2.1158,-2.0968,-2.0507,-2.0003,0.0,0.0,0.0,0.0,0.0,0.0,-1.45,-1.419,-1.529,-1.621,-1.6964,-1.7102,-1.7546,-1.8245,-1.875,-1.9077,-1.9388,-2.0042,-2.0476,-2.0516,-2.0945,0.0,0.0,0.0,0.0,0.0,0.0,0.0,0.0,0.0,0.0,0.0,0.0,0.0,0.0,0.0,0.0,0.0,0.0,0.0,0.0,-1.8091,0.0,0.0,0.0,0.0,0.0,0.0,0.0,0.0,0.0,0.0,-1.8276,-1.874,-1.9668,-2.0362,0.0,0.0,0.0,0.0,-2.1509,-2.2525,-2.2159,-2.2669,-2.5087,-2.6287,-2.7188,-2.795,0.0,0.0,-3.081,-3.1536,-3.2171,-3.24,-3.3425,-3.3693,-3.1414,-3.1264,-3.1198,-3.0692,-3.0501,-3.0515,-3.0501,-3.0446,-3.046,-1.7823,0.0,0.0,0.0,0.0,-1.7896,-1.8405,-1.9062,-1.878,-1.8907,-1.928,-1.8588,0.0,0.0,0.0,0.0,0.0,0.0,-1.8256,-1.8876,-1.9102,-1.972,-2.0653,-2.1144,-2.1749,-2.2408,-2.2472,-2.24,-2.227,-2.2131,-2.0572,-1.777,0.0,0.0,0.0,0.0,-1.6658,-1.6166,-1.7547,-1.8407,-1.8612,-1.8786,-1.8633,-1.8311,-1.9022,-1.942,-1.9474,-2.0522,-2.1495,-2.2276,-2.1601,0.0,0.0,0.0,0.0,0.0,0.0,0.0,0.0,0.0,0.0,0.0,0.0,0.0,0.0,0.0,0.0,0.0,0.0,0.0,-1.8098,-1.8508,-1.9043,0.0,0.0,0.0,0.0,0.0,0.0,0.0,0.0,0.0,-2.2894,-2.209,-2.1814,0.0,0.0,-2.2287,-2.2295,-2.2291,-2.2761,-2.401,0.0,0.0,0.0,-2.7656,-2.7949,-2.8599,-2.954,-3.0297,-3.031,-3.1707,-3.2904,-3.2961,-3.3754,-3.4138,-3.3611,-3.3485,-3.3414,-3.3271,-3.2776,-3.2417,-3.2417,-3.2417,-3.2263,-1.9152,-1.869,-1.843,-1.8532,-1.8877,-1.9122,-1.9778,-2.0489,-2.0256,-2.0341,-2.0625,-2.0087,-1.9828,-1.981,-1.9295,0.0,0.0,0.0,-1.9767,-2.0478,-2.0519,-2.0877,-2.1514,-2.1877,-2.2255,-2.2654,-2.2666,-2.2678,-2.2678,-2.2666,-2.159,-1.9399,0.0,0.0,-1.6775,-1.7705,-1.7835,-1.7154,-1.8531,-1.926,-1.9323,-1.9499,-1.9547,-1.9479,-1.9745,-2.002,-2.0257,-2.1226,-2.2038,-2.2718,-2.2369,-2.2673,0.0,0.0,0.0,0.0,0.0,0.0,0.0,0.0,0.0,0.0,0.0,-2.4815,0.0,0.0,0.0,0.0,-2.0694,-2.0172,-1.9552,-2.0355,0.0,0.0,0.0,0.0,0.0,0.0,0.0,-2.275,-2.4484,-2.566,-2.5236,-2.4734,-2.4376,-2.4258,-2.3994,-2.3672,-2.3375,0.0,-2.4084,-2.5338,-2.596,-2.6785,-2.8081,-2.8375,-2.8682,-2.9565,-3.0115,-3.0698,-3.1322,-3.2409,-3.3255,-3.3619,-3.4103,-3.4414,-3.4414,-3.4414,-3.4414,-3.4414,-3.4031,-3.3673,-3.3673,-3.3673,-3.3534,-2.0043,-2.0586,-1.9843,-1.9759,-2.0138,-2.0312,-2.1128,-2.2231,-2.2192,-2.2198,-2.2183,-2.1696,-2.1436,-2.138,-2.0345,0.0,-2.1476,-2.0885,-2.1205,-2.2197,-2.2197,-2.2197,-2.2197,-2.2197,-2.2247,-2.2247,-2.2247,-2.2309,-2.2371,-2.2309,-2.2019,-2.1475,-2.1372,-2.0044,-1.7701,-1.8309,-1.8239,-1.7291,-1.8665,-1.9412,-1.9552,-1.9918,-2.0491,-2.1211,-2.081,-2.0848,-2.1431,-2.1983,-2.2292,-2.2441,-2.3187,-2.3411,-2.2949,0.0,0.0,0.0,0.0,0.0,0.0,0.0,0.0,0.0,0.0,0.0,0.0,0.0,0.0,0.0,-2.1969,0.0,-2.2426,-2.3021,0.0,0.0,0.0,-2.3292,-2.3311,-2.5274,-2.5797,-2.3621,0.0,0.0,-2.592,0.0,-2.7061,-2.603,-2.5715,-2.5331,-2.4677,-2.4897,-2.5477,-2.6367,-2.6633,-2.7017,-2.8225,-2.8799,-2.9553,-3.0751,-3.1044,-3.1649,-3.2773,-3.3227,-3.3604,-3.421,-3.4414,-3.4414,-3.4414,-3.4414,-3.4414,-3.4414,-3.4414,-3.4346,-3.4346,-3.4332,-3.4249,-2.0182,-2.0529,-2.0819,-2.0991,-2.1088,-2.13,-2.1792,-2.2367,-2.1985,-2.2032,-2.2379,-2.1945,-2.1844,-2.2005,-2.1738,-2.1762,-2.2017,-2.187,-2.1942,-2.2185,-2.2197,-2.2197,-2.2197,-2.2197,-2.2469,-2.2859,-2.2919,-2.31,-2.3505,-2.31,-2.2611,-2.2043,-2.1522,-2.0411,-1.8703,-1.8407,-1.8207,-1.796,-1.9101,-2.0399,-2.1836,-2.2451,-2.2533,-2.2038,-2.1914,-2.1893,-2.1996,-2.242,-2.3093,-2.3983,-2.4096,-2.4508,-2.5336,-2.4302,0.0,0.0,0.0,0.0,0.0,0.0,0.0,0.0,0.0,-2.5021,-2.3425,0.0,-2.3169,0.0,-2.3084,-2.3811,-2.3811,-2.4381,0.0,0.0,-2.5279,-2.5621,-2.6498,-2.7453,-2.7801,-2.7209,-2.8279,-2.8836,-2.8409,-2.8637,-2.8756,-2.8438,-2.6791,-2.5554,-2.5375,-2.6144,-2.6808,-2.72,-2.8114,-2.9074,-2.9366,-2.9972,-3.0738,-3.1683,-3.2277,-3.2761,-3.3113,-3.3703,-3.4196,-3.4346,-3.4414,-3.4414,-3.4341,-3.4414,-3.4385,-3.4414,-3.4414,-3.4414,-3.4414,-3.4399,-3.4254,-2.0534,-2.0435,-2.0823,-2.0938,-2.1012,-2.1467,-2.1863,-2.2098,-2.1808,-2.1855,-2.211,-2.1969,-2.2261,-2.2763,-2.2359,-2.2359,-2.2592,-2.2309,-2.2197,-2.2197,-2.2197,-2.2359,-2.258,-2.2591,-2.276,-2.3088,-2.3374,-2.3364,-2.3193,-2.3134,-2.2801,-2.2172,-2.1601,-2.0784,-1.9708,-1.9095,-1.8709,-1.8485,-1.9845,-2.1488,-2.3415,-2.3652,-2.3339,-2.2619,-2.2366,-2.2147,-2.196,-2.2148,-2.2651,-2.3462,-2.4017,-2.4476,-2.4852,-2.4346,-2.4061,0.0,0.0,0.0,0.0,0.0,0.0,0.0,0.0,0.0,0.0,0.0,-2.3855,0.0,-2.4643,-2.5466,-2.5411,-2.5966,-2.6461,-2.6745,-2.6985,-2.7434,-2.8312,-2.8903,-2.9119,-2.8865,-2.9322,-2.9605,-2.936,-2.9294,-2.9307,-2.9294,-2.7657,-2.6596,-2.6863,-2.7367,-2.7814,-2.815,-2.918,-2.9984,-3.0271,-3.0974,-3.1602,-3.2091,-3.2528,-3.2792,-3.2871,-3.2987,-3.3079,-3.3106,-3.2895,-3.2687,-3.2703,-3.2701,-3.2716,-3.2765,-3.2893,-3.3264,-3.3856,-3.3296,-3.2629,-2.0676,-2.0217,-2.0217,-2.0251,-2.0354,-2.1175,-2.1498,-2.1448,-2.1522,-2.1596,-2.1732,-2.1928,-2.2567,-2.3518,-2.2665,-2.2592,-2.3027,-2.2531,-2.2247,-2.2197,-2.2382,-2.2653,-2.3075,-2.307,-2.3116,-2.3259,-2.3664,-2.3391,-2.2458,-2.2886,-2.2795,-2.2193,-2.1655,-2.113,-2.0598,-1.9926,-1.9373,-1.8949,-2.0557,-2.2379,-2.4329,-2.3986,-2.3557,-2.3062,-2.2686,-2.2206,-2.1695,-2.1714,-2.1879,-2.2262,-2.3612,-2.4087,-2.3492,-2.4199,-2.461,0.0,-2.4154,0.0,0.0,0.0,0.0,0.0,0.0,0.0,0.0,-2.4637,-2.4804,-2.5208,-2.6612,-2.7341,-2.706,-2.7754,-2.8215,-2.8112,-2.851,-2.8961,-2.9403,-2.993,-3.0052,-2.9538,-2.9862,-2.9927,-2.9539,-2.9433,-2.934,-2.9282,-2.8402,-2.7849,-2.8348,-2.8137,-2.8209,-2.908,-2.9552,-3.0032,-3.0616,-3.1276,-3.1679,-3.1951,-3.1998,-3.2118,-3.2162,-3.1772,-3.1413,-3.1392,-3.1168,-3.0876,-3.0696,-3.0822,-3.0925,-3.1057,-3.1234,-3.1738,-3.2713,-3.217,-3.1026,-1.9666,-1.9183,-1.9183,-1.9424,-1.9838,-2.037,-2.0358,-2.0107,-2.0402,-2.108,-2.1952,-2.2489,-2.3075,-2.3518,-2.2909,-2.2775,-2.3088,-2.298,-2.2702,-2.2221,-2.3207,-2.3453,-2.3144,-2.3108,-2.3379,-2.3792,-2.3419,-2.3405,-2.3744,-2.331,-2.2807,-2.2201,-2.164,-2.1009,-2.047,0.0,0.0,0.0,-2.0863,-2.2233,-2.3615,-2.4048,-2.3958,-2.3452,-2.3655,0.0,-2.2125,-2.2353,-2.2687,-2.2945,-2.4116,0.0,0.0,0.0,0.0,0.0,0.0,0.0,0.0,0.0,0.0,0.0,-2.7454,-2.694,-2.6603,-2.7195,-2.7214,-2.6451,-2.8891,-2.9918,-2.8536,-2.9853,-3.0573,-3.011,-3.0104,-3.0262,-3.0387,-3.0459,-3.0459,-3.0401,-3.0001,-2.9886,-3.0172,-2.9918,-2.9557,-2.9437,-2.8894,-2.8538,-2.8597,-2.8035,-2.784,-2.8437,-2.9067,-2.947,-2.9688,-2.9942,-3.0367,-3.0735,-3.0921,-3.096,-3.0917,-3.0863,-3.0717,-3.0734,-3.1041,-3.1183,-3.1204,-3.1574,-3.1566,-3.1764,-3.1065,-3.0721,-3.1588,-3.1792,-3.1728,-1.9378,0.0,-1.8896,-1.916,0.0,-1.9577,-1.9527,-1.9598,-2.0614,-2.1682,-2.2687,-2.2849,-2.3301,-2.3962,-2.3132,-2.2959,-2.3315,-2.286,-2.2655,-2.2689,-2.328,-2.358,-2.3576,-2.355,-2.3568,-2.3541,-2.3562,-2.3417,-2.3173,-2.3114,-2.279,-2.2184,-2.1902,-2.1597,-2.1299,-2.1449,-2.1352,-2.0948,-2.1594,-2.2616,-2.4063,-2.4519,-2.4401,-2.3726,0.0,0.0,0.0,0.0,0.0,0.0,0.0,0.0,0.0,0.0,0.0,-2.7853,-2.8288,-2.8694,-2.9068,-2.9316,-2.9446,-2.947,-2.9091,-2.8404,-2.734,-2.823,-2.8621,-2.803,-3.0017,-3.0999,-3.0128,-3.1177,-3.1823,-3.1537,-3.148,-3.1232,-3.0661,-3.0558,-3.0308,-2.9725,-2.9348,-2.929,-2.9595,-2.9377,-2.9174,-2.9131,-2.857,-2.8168,-2.8124,-2.7763,-2.7644,-2.8333,-2.8983,-2.9434,-2.9529,-2.9836,-2.9911,-3.016,-3.0103,-2.9986,-2.9707,-2.9406,-2.9272,-2.9459,-2.954,-2.953,-2.9826,-3.0099,-3.0209,-3.0207,-2.9948,-2.9754,-3.0191,-3.0247,-3.0278,-1.9298,-1.8883,-1.8871,-1.9139,-1.9436,-1.9167,-1.9373,-2.0002,0.0,0.0,0.0,-2.3115,-2.3669,-2.4483,-2.3449,-2.3298,-2.3777,-2.3078,-2.2884,-2.3298,-2.3471,-2.3735,-2.4001,-2.4007,-2.3682,-2.3124,-2.3566,-2.3234,-2.2234,-2.2769,-2.2771,-2.2352,-2.2356,-2.2402,-2.2417,-2.2663,-2.2663,-2.2402,-2.2303,-2.2973,-2.449,-2.4687,-2.4462,-2.3853,-2.4168,-2.4052,-2.3432,-2.3452,-2.4099,-2.5411,-2.6449,-2.7089,-2.7276,-2.833,-2.898,-2.898,-2.9053,-2.9523,-3.0478,-3.0523,-3.0611,-3.0891,-3.0584,-2.968,-2.8045,-2.8964,-2.9492,-2.9262,-3.0581,-3.131,-3.0975,-3.1682,-3.2137,-3.2028,-3.2035,-3.1566,-3.0615,-3.0335,-2.9892,-2.9005,-2.87,-2.8577,-2.8718,-2.8592,-2.8507,-2.8448,-2.8059,-2.761,-2.7547,-2.752,-2.7593,-2.8069,-2.8635,-2.9175,-2.9189,-2.9349,-2.9668,-2.9102,-2.9058,-2.8927,-2.8434,-2.7952,-2.7886,-2.8323,-2.7951,-2.8134,-2.8383,-2.8764,-2.8545,-2.8591,-2.8935,-2.9227,-2.9227,-2.8904,-2.8934,-1.8937,-1.8797,-1.8797,-1.9054,-1.9426,-1.9733,-2.0666,-2.1923,-2.1812,-2.2038,-2.2567,-2.354,-2.4319,-2.4878,-2.4213,-2.4244,-2.4813,-2.4676,-2.438,0.0,-2.5021,-2.497,-2.4055,-2.4035,-2.3717,-2.3105,-2.267,-2.2376,-2.2258,-2.2591,-2.2689,-2.2663,-2.2994,-2.3142,-2.3127,-2.3172,-2.3187,-2.3113,-2.2687,-2.2832,-2.357,-2.3549,-2.3538,-2.3592,-2.4207,-2.4327,-2.3835,-2.4065,-2.4656,-2.572,-2.6764,-2.7718,-2.8618,-3.0269,-3.124,-3.1227,-3.1557,-3.1829,-3.1952,-3.1737,-3.1476,-3.124,-3.0925,-3.0476,-2.9959,-3.0376,-3.025,-2.9326,-3.0797,-3.1228,-2.9917,-3.0697,-3.117,-3.0674,-3.0563,-3.0416,-3.0243,-2.9847,-2.9525,-2.9237,-2.8395,-2.81,-2.8506,-2.8209,-2.7963,-2.7839,-2.7856,-2.752,-2.7161,-2.7345,-2.741,-2.7219,-2.7585,-2.7723,-2.7549,-2.7258,-2.7476,-2.72,-2.7355,-2.7414,-2.7297,-2.7476,-2.7673,-2.769,-2.8299,-2.8794,-2.8997,-2.9348,-2.9528,-2.9576,-2.9665,-2.971,-2.971,-2.9621,-2.9653,-1.8946,-1.9117,-1.9105,-1.9356,-1.9772,-2.0489,-2.1238,-2.1943,-2.233,-2.2812,-2.3354,-2.389,-2.4216,-2.4478,-2.4216,-2.4238,-2.4517,-2.4517,-2.4338,-2.4096,-2.4665,-2.4563,-2.3876,-2.3638,-2.3431,-2.3148,-2.2712,-2.2589,-2.2817,-2.295,-2.3038,-2.3024,-2.3216,-2.3407,-2.3581,-2.3581,-2.3668,-2.3824,-2.324,-2.3139,-2.3595,-2.3675,-2.3996,-2.4544,-2.4959,-2.5299,-2.5464,-2.5611,-2.6192,-2.7359,-2.7875,-2.8614,-2.965,-3.0937,-3.1653,-3.1689,-3.2225,-3.2504,-3.2318,-3.1984,-3.1746,-3.1596,-3.1257,-3.1016,-3.0847,-3.0817,-3.0606,-3.0119,-3.1041,-3.1388,-3.0526,-3.1134,-3.1485,-3.1193,-3.1184,-3.0876,-3.023,-2.9968,-2.9511,-2.89,-2.8354,-2.8147,-2.8445,-2.8212,-2.803,-2.8045,-2.803,-2.769,-2.698,-2.7246,-2.7401,-2.6986,-2.7026,-2.707,-2.6837,-2.6794,-2.6794,-2.6794,-2.7011,-2.7152,-2.7188,-2.7565,-2.7997,-2.8306,-2.8826,-2.9154,-2.9441,-2.971,-2.9874,-2.9918,-2.9918,-2.9918,-2.9918,-2.9946,-2.9946,-1.9158,-1.9525,-1.9512,-1.9862,-2.0398,-2.1378,-2.1847,-2.1954,-2.2896,-2.3612,-2.4036,-2.4204,-2.4323,-2.4394,-2.4558,-2.4695,-2.4692,-2.4582,-2.4568,-2.454,-2.4404,-2.4149,-2.3811,-2.3461,-2.3354,-2.3259,-2.2992,-2.301,-2.3274,-2.3363,-2.3451,-2.3523,-2.361,-2.3824,-2.4021,-2.4147,-2.4297,-2.4517,-2.4048,-2.3879,-2.4036,-2.4188,-2.4648,-2.5481,-2.5758,-2.6156,-2.6741,-2.6939,-2.7572,-2.8693,-2.8946,-2.9461,-3.0451,-3.1148,-3.1637,-3.1853,-3.233,-3.2585,-3.2419,-3.2126,-3.1929,-3.1893,-3.1617,-3.1418,-3.1394,-3.1193,-3.0954,-3.0858,-3.1058,-3.1219,-3.1079,-3.1344,-3.1602,-3.1572,-3.1526,-3.1066,-3.0194,-2.9959,-2.9454,-2.842,-2.8137,-2.7962,-2.7859,-2.7828,-2.7825,-2.7915,-2.8057,-2.7731,-2.7312,-2.7479,-2.7479,-2.7255,-2.7026,-2.6989,-2.6959,-2.7115,-2.7167,-2.7167,-2.7444,-2.7665,-2.775,-2.8143,-2.8543,-2.8951,-2.9199,-2.9414,-2.9786,-2.9918,-2.9918,-2.9918,-2.9918,-2.9918,-2.9918,-2.9946,-3.0017,-1.9589,-1.9913,-1.9965,-2.0459,-2.1331,-2.2352,-2.2811,-2.292,-2.3548,-2.3846,-2.4,-2.4598,-2.5025,-2.5384,-2.5929,-2.6299,-2.6466,-2.6104,-2.5833,-2.5745,-2.5297,-2.4696,-2.4141,-2.4082,-2.3834,-2.3364,-2.3275,-2.326,-2.3363,-2.3653,-2.3925,-2.4204,-2.4558,-2.4728,-2.4823,-2.5144,-2.5335,-2.5389,-2.5335,-2.516,-2.4823,-2.4823,-2.5176,-2.5924,-2.6191,-2.647,-2.6858,-2.7321,-2.7975,-2.8767,-2.9364,-3.0035,-3.0731,-3.119,-3.1712,-3.2318,-3.2246,-3.2301,-3.2674,-3.2437,-3.2214,-3.2214,-3.1965,-3.1783,-3.1748,-3.1728,-3.1428,-3.1022,-3.0892,-3.0775,-3.045,-3.0497,-3.05,-3.0336,-3.0243,-3.002,-2.9919,-2.95,-2.8858,-2.8137,-2.775,-2.7086,-2.6814,-2.6756,-2.6841,-2.7458,-2.7721,-2.7828,-2.7954,-2.8158,-2.8192,-2.8046,-2.775,-2.7464,-2.7464,-2.7864,-2.7963,-2.8061,-2.8158,-2.824,-2.8336,-2.8638,-2.9074,-2.9303,-2.9544,-2.9826,-2.9902,-2.9918,-2.9962,-3.0033,-2.9989,-2.9946,-2.9902,-3.0033,-3.0103,-2.0169,-2.0785,-2.0822,-2.1188,-2.1896,-2.2644,-2.3007,-2.307,-2.3667,-2.3925,-2.3974,-2.4529,-2.4919,-2.5129,-2.5568,-2.6031,-2.6477,-2.6141,-2.5795,-2.5429,-2.4831,-2.4369,-2.3985,-2.3763,-2.3718,-2.3855,-2.3711,-2.3711,-2.3909,-2.4256,-2.4623,-2.4981,-2.5198,-2.5237,-2.5275,-2.5427,-2.5308,-2.4883,-2.5292,-2.5308,-2.5021,-2.5142,-2.5577,-2.6156,-2.6349,-2.6708,-2.7289,-2.7565,-2.8017,-2.8639,-2.8961,-2.9069,-2.9065,-2.9643,-2.9916,-2.9819,-3.0355,-3.1173,-3.2301,-3.2085,-3.2075,-3.2533,-3.2453,-3.237,-3.2371,-3.2387,-3.2212,-3.176,-3.1353,-3.1044,-3.0885,-3.0707,-3.0477,-3.0199,-3.0113,-3.0087,-2.9918,-2.9733,-2.9307,-2.8581,-2.8279,-2.787,-2.7354,-2.7471,-2.7668,-2.7868,-2.8225,-2.8556,-2.8434,-2.8543,-2.8638,-2.8384,-2.8352,-2.8304,-2.8079,-2.8143,-2.8288,-2.8336,-2.8591,-2.8779,-2.8873,-2.9227,-2.9605,-2.9761,-2.9913,-3.0168,-3.0435,-3.041,-3.0419,-3.0336,-3.0393,-3.0435,-3.0452,-3.051,-3.0634,-2.0733,-2.1369,-2.1697,-2.1904,-2.2132,-2.2847,-2.3169,-2.3226,-2.3635,-2.3835,-2.386,-2.4239,-2.4534,-2.4841,-2.525,-2.5749,-2.6119,-2.5864,-2.5494,-2.5038,-2.4567,-2.4219,-2.3955,-2.3964,-2.409,-2.4338,-2.4097,-2.3968,-2.4084,-2.4295,-2.4718,-2.5142,-2.5338,-2.5473,-2.5672,-2.5762,-2.551,-2.497,-2.5601,-2.5793,-2.553,-2.5863,-2.6265,-2.6624,-2.6708,-2.6997,-2.7472,-2.7586,-2.771,-2.7918,-2.8197,-2.8099,-2.7545,-2.8246,-2.8411,-2.8026,-2.9083,-3.0348,-3.1511,-3.1474,-3.1744,-3.2473,-3.2554,-3.2585,-3.2752,-3.2802,-3.2695,-3.2441,-3.1987,-3.166,-3.1295,-3.1083,-3.0788,-3.0502,-3.0377,-3.0182,-3.006,-2.9946,-2.9599,-2.8978,-2.8709,-2.8524,-2.789,-2.772,-2.7612,-2.7912,-2.8437,-2.9054,-2.8604,-2.8758,-2.8865,-2.8498,-2.8819,-2.8803,-2.8342,-2.8389,-2.8405,-2.8621,-2.8952,-2.9239,-2.9448,-2.9973,-2.995,-2.9922,-3.0088,-2.9978,-2.9742,-2.9973,-3.0251,-3.0213,-3.0218,-3.0202,-2.9939,-3.0264,-3.0437,-2.1245,-2.1533,-2.2437,-2.2468,-2.2002,-2.3069,-2.3538,-2.3509,-2.3584,-2.3627,-2.3687,-2.3728,-2.4044,-2.4671,-2.5317,-2.5816,-2.5924,-2.547,-2.5284,-2.5262,-2.4963,-2.4645,-2.4343,-2.502,-2.5198,-2.4839,-2.4557,-2.412,-2.3497,-2.342,-2.3729,-2.443,-2.4919,-2.5407,-2.5974,-2.6437,-2.6418,-2.5928,-2.6524,-2.6795,-2.6475,-2.7093,-2.7335,-2.7257,-2.7457,-2.728,-2.7023,-2.7238,-2.7097,-2.6362,-2.7305,-2.7475,-2.6814,-2.7386,-2.7717,-2.7864,-2.92,-3.0131,-3.0326,-3.0745,-3.1301,-3.1942,-3.1912,-3.1964,-3.2595,-3.2737,-3.2742,-3.2727,-3.2652,-3.2316,-3.1582,-3.1393,-3.1145,-3.0804,-3.0502,-3.0351,-3.0309,-3.0103,-2.9562,-2.902,-2.8788,-2.8404,-2.7743,-2.6518,-2.6821,-2.7332,-2.73,-2.7494,-2.8618,-2.886,-2.8925,-2.8919,-2.9014,-2.8958,-2.8255,-2.8547,-2.8919,-2.9251,-2.9531,-2.9617,-3.0269,-3.0716,-3.0332,-2.9976,-2.9805,-2.948,-2.8925,-2.8811,-2.8991,-2.909,-2.9181,-2.9143,-2.9529,-2.9158,-2.9425,-2.1541,-2.2324,-2.3054,-2.2977,-2.2492,-2.2852,-2.3149,-2.3412,-2.3426,-2.3803,-2.4364,-2.4405,-2.456,-2.4792,-2.4575,-2.5029,-2.5758,-2.5347,-2.5259,-2.5492,-2.5098,-2.4926,-2.5137,-2.5389,-2.5427,-2.5265,-2.5185,-2.4866,-2.4357,-2.3933,-2.3951,-2.4529,-2.5306,-2.587,-2.6207,-2.6923,-2.6792,-2.5836,-2.6359,-2.6208,-2.5252,-2.586,-2.6347,-2.6464,-2.6823,-2.6845,-2.6446,-2.6525,-2.6522,-2.6443,-2.6917,-2.6797,-2.6059,-2.5875,-2.606,-2.6619,-2.7605,-2.8666,-2.9651,-3.0442,-3.1127,-3.1759,-3.1751,-3.1689,-3.1946,-3.2338,-3.2563,-3.2484,-3.2859,-3.2791,-3.2384,-3.2074,-3.1731,-3.1201,-3.1004,-3.0845,-3.0625,-3.036,-2.9887,-2.9247,-2.873,-2.8132,-2.7683,-2.7388,-2.7524,-2.7623,-2.8136,-2.8715,-2.9228,-2.9724,-2.9806,-2.9558,-2.9805,-2.9788,-2.853,-2.8992,-2.9516,-3.0011,-3.0325,-3.0325,-3.0714,-3.0316,-2.9876,-2.98,-2.9576,-2.9239,-2.8749,-2.8764,-2.8784,-2.8869,-2.89,-2.8781,-2.935,-2.9042,-2.9299,-2.163,-2.2331,-2.2994,-2.2998,-2.2534,-2.2536,-2.2751,-2.3095,-2.3091,-2.3534,-2.4139,-2.4426,-2.4426,-2.4223,-2.3901,-2.428,-2.5167,-2.4868,-2.5025,-2.5599,-2.5368,-2.5351,-2.5503,-2.5746,-2.5835,-2.5628,-2.5327,-2.4959,-2.4463,-2.3809,-2.3776,-2.4288,-2.5109,-2.56,-2.5906,-2.6586,-2.6262,-2.5464,-2.5879,-2.5694,-2.4726,-2.5323,-2.5756,-2.5757,-2.6068,-2.6152,-2.595,-2.5914,-2.5841,-2.5941,-2.6208,-2.6191,-2.5706,-2.5059,-2.4917,-2.5517,-2.6268,-2.7169,-2.8258,-2.9345,-3.0262,-3.094,-3.1254,-3.1433,-3.157,-3.2109,-3.2327,-3.2464,-3.2774,-3.3056,-3.2947,-3.2749,-3.2351,-3.175,-3.1545,-3.1338,-3.1004,-3.069,-3.0137,-2.945,-2.8539,-2.8009,-2.7909,-2.7844,-2.7855,-2.7771,-2.8461,-2.8691,-2.9331,-2.9716,-3.0101,-2.9817,-3.0163,-3.0034,-2.9395,-2.945,-2.9719,-3.0162,-3.0039,-3.0292,-3.0516,-2.999,-2.9614,-2.9532,-2.9334,-2.8985,-2.8828,-2.8815,-2.8816,-2.8884,-2.8526,-2.8252,-2.8624,-2.8923,-2.9047,-2.1613,-2.1744,-2.2258,-2.2464,-2.2232,-2.22,-2.239,-2.2682,-2.2717,-2.2894,-2.3369,-2.3683,-2.3747,-2.3206,-2.3692,-2.401,-2.4212,-2.4169,-2.4649,-2.5519,-2.5852,-2.5819,-2.5635,-2.628,-2.6419,-2.6075,-2.5059,-2.4222,-2.3723,-2.3175,-2.3185,-2.3739,-2.4191,-2.4778,-2.5295,-2.5472,-2.5253,-2.4953,-2.5444,-2.5524,-2.5234,-2.5714,-2.5812,-2.5353,-2.5314,-2.5356,-2.5403,-2.5383,-2.5111,-2.4671,-2.5207,-2.5668,-2.5705,-2.5133,-2.4742,-2.496,-2.5531,-2.5946,-2.6226,-2.7635,-2.895,-2.957,-3.032,-3.1052,-3.1493,-3.1815,-3.215,-3.2617,-3.2863,-3.3022,-3.331,-3.3332,-3.3014,-3.2403,-3.1986,-3.1677,-3.1393,-3.0971,-3.0486,-2.9671,-2.8548,-2.8276,-2.8762,-2.8294,-2.7689,-2.8125,-2.7853,-2.7752,-2.8844,-2.9164,-2.9122,-2.9597,-3.0091,-3.0139,-2.9977,-2.9863,-2.9964,-3.0048,-2.9668,-2.9598,-3.0031,-2.9805,-2.9279,-2.9092,-2.8836,-2.8487,-2.8246,-2.8237,-2.807,-2.8035,-2.7782,-2.7879,-2.8233,-2.8535,-2.8382,-2.2494,-2.2498,-2.3112,-2.2764,-2.1906,-2.1855,-2.2106,-2.2483,-2.2505,-2.3192,-2.4221,-2.4611,-2.456,-2.429,-2.4109,-2.4047,-2.4133,-2.3932,-2.453,-2.5733,-2.6052,-2.6193,-2.635,-2.659,-2.6741,-2.6618,-2.5449,-2.4804,-2.4524,-2.3563,-2.3125,-2.3395,-2.4095,-2.4573,-2.4839,-2.5486,-2.5601,-2.5,-2.5177,-2.4972,-2.4369,-2.4634,-2.4737,-2.4653,-2.4654,-2.4745,-2.4905,-2.4691,-2.4467,-2.4284,-2.472,-2.5129,-2.5308,-2.5171,-2.507,-2.5146,-2.5798,-2.6236,-2.6445,-2.7704,-2.8707,-2.9028,-2.9691,-3.015,-3.0396,-3.0938,-3.1551,-3.2302,-3.2829,-3.3413,-3.3918,-3.3993,-3.3487,-3.2749,-3.2351,-3.2057,-3.1741,-3.1011,-3.0108,-2.9383,-2.899,-2.9008,-2.9106,-2.861,-2.8833,-2.8726,-2.8624,-2.904,-2.9676,-2.9468,-2.9262,-2.9588,-2.9969,-3.0212,-2.9799,-2.978,-3.0022,-2.9936,-2.9523,-2.9299,-2.9626,-2.9486,-2.8962,-2.8617,-2.834,-2.8029,-2.7818,-2.7694,-2.7584,-2.7712,-2.7858,-2.8007,-2.8156,-2.8139,-2.804,-2.2305,-2.2378,-2.2748,-2.2566,-2.1907,-2.168,-2.1778,-2.2181,-2.2473,-2.3323,-2.4312,-2.4704,-2.4751,-2.457,-2.418,-2.4069,-2.4122,-2.3893,-2.4675,-2.6046,-2.625,-2.6534,-2.7017,-2.7068,-2.6974,-2.6732,-2.5669,-2.5035,-2.4866,-2.3851,-2.3253,-2.3407,-2.4042,-2.4414,-2.4472,-2.512,-2.5246,-2.4864,-2.4869,-2.4669,-2.4302,-2.4266,-2.4374,-2.4441,-2.4493,-2.4578,-2.4676,-2.4479,-2.441,-2.4495,-2.4734,-2.498,-2.5199,-2.5199,-2.521,-2.5306,-2.5612,-2.5925,-2.6128,-2.7427,-2.8406,-2.846,-2.9319,-2.9953,-3.0007,-3.0578,-3.1391,-3.2147,-3.2954,-3.3682,-3.4188,-3.3939,-3.346,-3.2821,-3.2411,-3.2051,-3.159,-3.0576,-2.9763,-2.9228,-2.9004,-2.8991,-2.9195,-2.91,-2.9532,-2.9089,-2.9183,-2.977,-3.0167,-3.0169,-2.9996,-3.0101,-3.0709,-3.0429,-2.9522,-2.965,-3.0057,-2.9867,-2.9492,-2.9372,-2.9492,-2.8969,-2.8421,-2.8229,-2.7984,-2.7564,-2.7333,-2.7433,-2.7415,-2.771,-2.7843,-2.7958,-2.7967,-2.7882,-2.7897,-2.1393,-2.1501,-2.1532,-2.1856,-2.2129,-2.1595,-2.1577,-2.1913,-2.2508,-2.3042,-2.3558,-2.4103,-2.4167,-2.3919,-2.3936,-2.3922,-2.3946,-2.399,-2.4734,-2.5845,-2.6293,-2.6672,-2.749,-2.7442,-2.7087,-2.6578,-2.57,-2.4971,-2.4476,-2.3868,-2.3549,-2.3616,-2.3974,-2.4135,-2.4264,-2.4375,-2.4558,-2.4557,-2.4532,-2.4545,-2.4559,-2.4645,-2.4673,-2.4689,-2.4689,-2.4719,-2.4768,-2.4753,-2.476,-2.4888,-2.5,-2.517,-2.5256,-2.5249,-2.5233,-2.5329,-2.5279,-2.5302,-2.5597,-2.6768,-2.7733,-2.795,-2.9155,-3.0218,-3.0395,-3.1016,-3.1778,-3.2557,-3.3242,-3.3821,-3.4076,-3.3799,-3.3189,-3.2617,-3.2165,-3.1516,-3.057,-2.9844,-2.9455,-2.924,-2.8739,-2.8424,-2.9169,-2.8811,-2.8945,-2.9068,-2.8925,-2.9358,-2.9894,-3.0242,-3.0546,-3.0569,-3.034,-2.9513,-2.8241,-2.9047,-2.9376,-2.9066,-2.8973,-2.9187,-2.904,-2.8479,-2.8146,-2.7906,-2.7528,-2.7128,-2.6992,-2.7119,-2.715,-2.7199,-2.7387,-2.7651,-2.7652,-2.7518,-2.7593,-2.1822,-2.1901,-2.2269,-2.2244,-2.196,-2.1724,-2.1708,-2.1844,-2.2215,-2.2841,-2.3328,-2.3707,-2.3902,-2.3746,-2.3757,-2.3569,-2.3397,-2.3492,-2.4063,-2.4995,-2.5327,-2.6304,-2.7267,-2.7104,-2.6848,-2.6632,-2.5547,-2.4788,-2.4756,-2.42,-2.3958,-2.3959,-2.4174,-2.4319,-2.4337,-2.4442,-2.4478,-2.4512,-2.4559,-2.4604,-2.462,-2.467,-2.4749,-2.4832,-2.4847,-2.4921,-2.5051,-2.5063,-2.5006,-2.4902,-2.4929,-2.5342,-2.5918,-2.5576,-2.5503,-2.5936,-2.5601,-2.5339,-2.5551,-2.6352,-2.721,-2.7914,-2.8886,-2.9982,-3.1149,-3.1405,-3.2239,-3.3191,-3.3832,-3.416,-3.4661,-3.4452,-3.3686,-3.2418,-3.1593,-3.1002,-3.046,-2.993,-2.9566,-2.9557,-2.9064,-2.8997,-2.9195,-2.9472,-2.9532,-2.9646,-2.9489,-2.9386,-2.9817,-2.9068,-2.8855,-2.861,-2.8312,-2.7601,-2.7299,-2.8165,-2.8495,-2.8149,-2.8301,-2.8789,-2.8486,-2.7986,-2.7832,-2.7742,-2.704,-2.6553,-2.6668,-2.6798,-2.6779,-2.668,-2.6863,-2.7071,-2.7098,-2.7015,-2.7093,-2.2051,-2.2157,-2.247,-2.2429,-2.2203,-2.2186,-2.2169,-2.2259,-2.2656,-2.3163,-2.365,-2.3821,-2.4,-2.4129,-2.3857,-2.3562,-2.3319,-2.3535,-2.414,-2.491,-2.5546,-2.6291,-2.6897,-2.6871,-2.6774,-2.6201,-2.5443,-2.4975,-2.4717,-2.4376,-2.4229,-2.4247,-2.4425,-2.451,-2.4543,-2.4685,-2.4775,-2.4795,-2.4845,-2.4911,-2.493,-2.4974,-2.501,-2.5099,-2.5111,-2.5173,-2.5264,-2.5274,-2.5233,-2.5122,-2.5134,-2.5528,-2.632,-2.5765,-2.5735,-2.6458,-2.5826,-2.5387,-2.5542,-2.6199,-2.6876,-2.7553,-2.8461,-2.9555,-3.0488,-3.1152,-3.2223,-3.2808,-3.364,-3.4031,-3.3898,-3.3561,-3.2562,-3.1239,-3.0624,-3.0301,-3.0111,-2.9741,-2.9593,-2.9586,-2.945,-2.9241,-2.9416,-2.972,-2.9823,-2.9702,-2.9218,-2.9386,-2.9544,-2.8141,-2.7229,-2.7403,-2.7421,-2.7055,-2.6796,-2.7385,-2.8142,-2.783,-2.7789,-2.8286,-2.7942,-2.752,-2.7396,-2.7211,-2.6536,-2.6119,-2.6199,-2.6259,-2.6223,-2.6206,-2.6358,-2.6581,-2.6691,-2.6468,-2.656,-2.2102,-2.2302,-2.2276,-2.2439,-2.2634,-2.2703,-2.2634,-2.2779,-2.3255,-2.3725,-2.3981,-2.4088,-2.4159,-2.4628,-2.3925,-2.3757,-2.3807,-2.3959,-2.4463,-2.5179,-2.5858,-2.637,-2.6027,-2.6763,-2.6469,-2.5638,-2.5486,-2.5023,-2.4596,-2.4426,-2.4441,-2.4491,-2.4639,-2.4749,-2.4818,-2.4981,-2.5134,-2.5192,-2.5206,-2.5255,-2.5292,-2.5301,-2.5309,-2.5318,-2.5327,-2.5343,-2.5379,-2.5406,-2.5406,-2.5437,-2.5348,-2.5774,-2.6423,-2.5859,-2.5886,-2.6347,-2.5948,-2.5459,-2.5522,-2.6137,-2.6645,-2.7001,-2.8136,-2.9175,-2.9717,-3.081,-3.17,-3.2295,-3.3343,-3.3506,-3.29,-3.1743,-3.092,-3.0186,-2.9738,-2.9494,-2.942,-2.936,-2.9431,-2.9551,-2.9567,-2.949,-2.9474,-2.942,-2.9345,-2.9251,-2.876,-2.8487,-2.8455,-2.7598,-2.7096,-2.7151,-2.7096,-2.693,-2.6712,-2.6622,-2.7361,-2.7714,-2.7595,-2.7702,-2.7371,-2.7031,-2.6903,-2.6542,-2.5809,-2.5463,-2.5448,-2.5486,-2.556,-2.561,-2.5695,-2.6183,-2.6578,-2.6061,-2.5891,-2.2061,-2.2152,-2.2237,-2.2395,-2.2556,-2.2643,-2.273,-2.2764,-2.3083,-2.3363,-2.3425,-2.3584,-2.3736,-2.383,-2.3894,-2.3894,-2.3996,-2.4155,-2.4413,-2.4653,-2.5463,-2.5391,-2.5133,-2.5761,-2.5853,-2.5393,-2.4892,-2.4592,-2.4459,-2.4572,-2.4651,-2.4737,-2.4888,-2.5069,-2.5149,-2.5192,-2.5293,-2.5339,-2.5363,-2.5387,-2.5422,-2.5422,-2.543,-2.541,-2.5403,-2.5432,-2.546,-2.5425,-2.5473,-2.5543,-2.5531,-2.5793,-2.6359,-2.5919,-2.5939,-2.6379,-2.6065,-2.5625,-2.5668,-2.5853,-2.6208,-2.6859,-2.7398,-2.8229,-3.0188,-3.0568,-3.1484,-3.2358,-3.3072,-3.299,-3.2468,-3.1884,-3.0806,-2.9901,-2.9204,-2.8657,-2.8411,-2.9058,-2.9472,-2.94,-2.9072,-2.8815,-2.8799,-2.8175,-2.8194,-2.8506,-2.8175,-2.7548,-2.7213,-2.6915,-2.6693,-2.6563,-2.6433,-2.6247,-2.6043,-2.6061,-2.6804,-2.725,-2.7211,-2.7113,-2.6762,-2.6318,-2.6095,-2.565,-2.5039,-2.4894,-2.502,-2.4905,-2.501,-2.5011,-2.5114,-2.5504,-2.5725,-2.5365,-2.5392,-2.2466,-2.2678,-2.2746,-2.2919,-2.3165,-2.3165,-2.3194,-2.3206,-2.3316,-2.3371,-2.3435,-2.3638,-2.3747,-2.3786,-2.3958,-2.4077,-2.4173,-2.4391,-2.4559,-2.4754,-2.5174,-2.5078,-2.4876,-2.5064,-2.5324,-2.5153,-2.4929,-2.4749,-2.4775,-2.4842,-2.4962,-2.4981,-2.5111,-2.5198,-2.5284,-2.534,-2.5363,-2.5437,-2.5479,-2.5499,-2.5531,-2.5556,-2.5556,-2.5537,-2.5537,-2.5554,-2.5595,-2.5554,-2.5609,-2.5654,-2.5609,-2.59,-2.6469,-2.6051,-2.6081,-2.6539,-2.6126,-2.5738,-2.5699,-2.5738,-2.6065,-2.6829,-2.7238,-2.8408,-2.9744,-3.0419,-3.1022,-3.1724,-3.1883,-3.1773,-3.1174,-3.0253,-2.9519,-2.9142,-2.855,-2.8041,-2.791,-2.8346,-2.8733,-2.8609,-2.8358,-2.8213,-2.7899,-2.7396,-2.7506,-2.8032,-2.7335,-2.6739,-2.6688,-2.6355,-2.5858,-2.5675,-2.5595,-2.5445,-2.5279,-2.5562,-2.635,-2.6576,-2.6522,-2.6414,-2.621,-2.5689,-2.515,-2.4891,-2.4762,-2.4733,-2.481,-2.4654,-2.4712,-2.4945,-2.5095,-2.505,-2.5099,-2.5279,-2.5329,-2.2985,-2.3335,-2.3346,-2.3595,-2.3888,-2.378,-2.3732,-2.3728,-2.3755,-2.3715,-2.3774,-2.3921,-2.3983,-2.4095,-2.4192,-2.4302,-2.4478,-2.4626,-2.4842,-2.4969,-2.4998,-2.5031,-2.5004,-2.5063,-2.5076,-2.4804,-2.4974,-2.5082,-2.5106,-2.5187,-2.516,-2.5214,-2.5224,-2.5293,-2.5359,-2.541,-2.5459,-2.5537,-2.559,-2.561,-2.5663,-2.5687,-2.5667,-2.5667,-2.5667,-2.5667,-2.5671,-2.5667,-2.5695,-2.5699,-2.5699,-2.6069,-2.6322,-2.6205,-2.5933,-2.6649,-2.6011,-2.5757,-2.5699,-2.5738,-2.6011,-2.6732,-2.7452,-2.831,-2.9201,-2.9995,-3.0594,-3.0725,-3.0806,-3.0354,-2.9289,-2.8662,-2.7994,-2.7587,-2.7529,-2.7453,-2.7313,-2.7162,-2.7205,-2.7489,-2.7502,-2.7439,-2.7332,-2.7026,-2.7275,-2.7345,-2.6591,-2.6086,-2.6077,-2.6062,-2.5716,-2.5494,-2.5575,-2.5759,-2.5646,-2.5182,-2.5966,-2.6201,-2.6079,-2.5879,-2.5778,-2.5476,-2.5087,-2.4867,-2.4754,-2.4753,-2.4794,-2.4808,-2.4902,-2.508,-2.5173,-2.5206,-2.5265,-2.5331,-2.5322,-2.3164,-2.3392,-2.3566,-2.3692,-2.3777,-2.3878,-2.3937,-2.3951,-2.3952,-2.3938,-2.3958,-2.3989,-2.4063,-2.4174,-2.4374,-2.4642,-2.4865,-2.4993,-2.5032,-2.5063,-2.5044,-2.5037,-2.5082,-2.5122,-2.5102,-2.513,-2.519,-2.522,-2.519,-2.5212,-2.5274,-2.5359,-2.5376,-2.5406,-2.5493,-2.556,-2.5585,-2.563,-2.5667,-2.5675,-2.5695,-2.5699,-2.5699,-2.5699,-2.5699,-2.5699,-2.5699,-2.5699,-2.5699,-2.5699,-2.5699,-2.5777,-2.5913,-2.5796,-2.5816,-2.5894,-2.5855,-2.5699,-2.5699,-2.5718,-2.5757,-2.605,-2.6732,-2.7589,-2.8442,-2.926,-3.0039,-3.0277,-2.9991,-2.9433,-2.9231,-2.8153,-2.7382,-2.691,-2.6651,-2.6498,-2.602,-2.5855,-2.6117,-2.6676,-2.6708,-2.6632,-2.6529,-2.6414,-2.6434,-2.6536,-2.627,-2.5888,-2.5837,-2.6015,-2.6085,-2.5945,-2.5855,-2.6078,-2.6242,-2.5607,-2.5564,-2.5933,-2.5876,-2.5569,-2.5454,-2.5371,-2.5157,-2.4987,-2.4888,-2.4893,-2.4921,-2.4974,-2.5061,-2.5216,-2.5281,-2.5356,-2.5403,-2.543,-2.5432,-2.3405,-2.3653,-2.3774,-2.3917,-2.4039,-2.4039,-2.4058,-2.4094,-2.4094,-2.4096,-2.4134,-2.421,-2.4315,-2.4441,-2.4554,-2.4842,-2.5068,-2.5145,-2.5145,-2.5141,-2.5127,-2.5139,-2.5157,-2.5197,-2.5216,-2.5265,-2.5313,-2.5313,-2.5274,-2.5339,-2.5374,-2.5441,-2.549,-2.5544,-2.5576,-2.5605,-2.5643,-2.5675,-2.5699,-2.5699,-2.5699,-2.5699,-2.5699,-2.5699,-2.5699,-2.5699,-2.5699,-2.5699,-2.5699,-2.5699,-2.5699,-2.5699,-2.5699,-2.5699,-2.5699,-2.5699,-2.5699,-2.5699,-2.5699,-2.5718,-2.5874,-2.6342,-2.6732,-2.755,-2.8524,-2.9338,-2.9737,-2.9654,-2.8686,-2.7923,-2.7721,-2.7379,-2.6696,-2.6082,-2.6135,-2.6211,-2.586,-2.5485,-2.578,-2.6216,-2.6128,-2.6013,-2.5765,-2.565,-2.5516,-2.5573,-2.5784,-2.5784,-2.5757,-2.6087,-2.6454,-2.6167,-2.6014,-2.5995,-2.6149,-2.5754,-2.533,-2.5618,-2.5744,-2.5438,-2.5331,-2.533,-2.5318,-2.5215,-2.5138,-2.5091,-2.5182,-2.5303,-2.532,-2.5313,-2.5394,-2.5454,-2.5486,-2.5523,-2.5515,-2.3671,-2.3958,-2.3978,-2.4115,-2.4339,-2.4229,-2.4211,-2.4266,-2.4282,-2.4264,-2.4284,-2.4442,-2.4607,-2.4731,-2.485,-2.503,-2.5214,-2.5233,-2.5214,-2.5212,-2.5194,-2.5213,-2.5243,-2.5272,-2.5297,-2.5367,-2.5412,-2.5429,-2.5376,-2.5445,-2.5498,-2.5525,-2.5589,-2.5624,-2.563,-2.5639,-2.5671,-2.5683,-2.5691,-2.5691,-2.5694,-2.5707,-2.5703,-2.5707,-2.5703,-2.5699,-2.5699,-2.5691,-2.5691,-2.5691,-2.5691,-2.5691,-2.5687,-2.5703,-2.5703,-2.5707,-2.5703,-2.5703,-2.5687,-2.5699,-2.6015,-2.6704,-2.7043,-2.8017,-2.8996,-2.9591,-2.978,-2.9322,-2.8106,-2.7119,-2.715,-2.6619,-2.6197,-2.5956,-2.623,-2.6586,-2.635,-2.6087,-2.5921,-2.6014,-2.5742,-2.5731,-2.5807,-2.5879,-2.5956,-2.6192,-2.6383,-2.6175,-2.6186,-2.6562,-2.6751,-2.637,-2.6133,-2.592,-2.5854,-2.5721,-2.5434,-2.5455,-2.556,-2.5432,-2.539,-2.5414,-2.5386,-2.5409,-2.5447,-2.542,-2.5511,-2.5517,-2.546,-2.5447,-2.5496,-2.5547,-2.5585,-2.5589,-2.5593,-2.3917,-2.4152,-2.421,-2.4284,-2.4321,-2.4393,-2.4446,-2.4465,-2.4447,-2.4465,-2.4462,-2.4606,-2.4724,-2.4839,-2.5102,-2.5226,-2.5274,-2.5303,-2.5303,-2.5284,-2.5252,-2.5252,-2.5283,-2.5297,-2.5379,-2.5448,-2.5484,-2.5484,-2.5453,-2.5495,-2.5531,-2.5576,-2.5599,-2.5615,-2.5683,-2.5675,-2.5691,-2.569,-2.5696,-2.5703,-2.5689,-2.5687,-2.5701,-2.5704,-2.5697,-2.5687,-2.5694,-2.5707,-2.5696,-2.5696,-2.5696,-2.5696,-2.5693,-2.5694,-2.5697,-2.5701,-2.5701,-2.5691,-2.5707,-2.5714,-2.6057,-2.6864,-2.7464,-2.8431,-2.9255,-2.9911,-3.0166,-3.0315,-2.8675,-2.7717,-2.7454,-2.6907,-2.6484,-2.6555,-2.688,-2.6956,-2.6746,-2.6515,-2.637,-2.6427,-2.632,-2.6335,-2.6378,-2.6438,-2.6517,-2.6784,-2.6911,-2.6638,-2.654,-2.6822,-2.6959,-2.6591,-2.6146,-2.5913,-2.5958,-2.577,-2.5543,-2.5444,-2.5452,-2.5459,-2.5486,-2.5511,-2.5546,-2.5576,-2.5613,-2.5609,-2.5576,-2.5565,-2.5547,-2.5565,-2.5582,-2.5623,-2.5681,-2.5679,-2.5648,-2.4301,-2.4302,-2.4266,-2.4266,-2.4303,-2.4375,-2.4447,-2.4517,-2.4578,-2.461,-2.4623,-2.4747,-2.4892,-2.5053,-2.5255,-2.5367,-2.5385,-2.5412,-2.5412,-2.5404,-2.5397,-2.5378,-2.5385,-2.5418,-2.5472,-2.5492,-2.5522,-2.5511,-2.5518,-2.5531,-2.5585,-2.5595,-2.5632,-2.5658,-2.5693,-2.5694,-2.569,-2.5705,-2.5693,-2.5696,-2.5697,-2.5691,-2.5707,-2.5693,-2.5707,-2.5703,-2.5703,-2.5689,-2.5694,-2.5694,-2.5693,-2.5694,-2.5693,-2.5707,-2.5705,-2.5696,-2.569,-2.569,-2.5696,-2.5694,-2.6158,-2.6724,-2.7398,-2.7965,-2.9077,-2.9663,-3.0066,-3.0334,-2.8772,-2.8061,-2.8164,-2.7625,-2.7294,-2.73,-2.7599,-2.7714,-2.7497,-2.6917,-2.6734,-2.6841,-2.6872,-2.6728,-2.6641,-2.6631,-2.6525,-2.6476,-2.6668,-2.6651,-2.6592,-2.676,-2.6834,-2.6754,-2.6298,-2.5862,-2.6028,-2.6048,-2.5712,-2.5585,-2.5585,-2.5595,-2.561,-2.5648,-2.5664,-2.5655,-2.5662,-2.5655,-2.5621,-2.5625,-2.5616,-2.5648,-2.5661,-2.5685,-2.5687,-2.5687,-2.5681,-2.4654,-2.4508,-2.4374,-2.4357,-2.441,-2.4445,-2.4479,-2.4549,-2.4689,-2.4738,-2.4753,-2.4877,-2.5057,-2.5224,-2.5331,-2.5412,-2.5476,-2.5484,-2.5511,-2.5511,-2.5511,-2.5503,-2.5484,-2.5511,-2.5511,-2.5511,-2.5515,-2.5531,-2.5543,-2.5561,-2.5589,-2.5603,-2.5642,-2.5683,-2.5691,-2.5705,-2.5705,-2.5701,-2.5702,-2.5703,-2.5703,-2.5702,-2.5701,-2.5701,-2.5701,-2.57,-2.57,-2.5702,-2.5702,-2.5702,-2.5702,-2.5702,-2.5699,-2.5694,-2.5687,-2.5698,-2.569,-2.5684,-2.5662,-2.573,-2.6128,-2.6704,-2.7498,-2.8372,-2.9381,-2.949,-2.9535,-3.0253,-2.8708,-2.8339,-2.8504,-2.8122,-2.7708,-2.7797,-2.8179,-2.8447,-2.8511,-2.7792,-2.7121,-2.691,-2.6873,-2.6742,-2.6664,-2.6687,-2.6556,-2.6276,-2.6334,-2.6544,-2.6544,-2.6534,-2.6468,-2.6403,-2.6194,-2.5795,-2.5896,-2.5983,-2.5757,-2.5699,-2.5699,-2.5703,-2.5683,-2.5691,-2.5681,-2.569,-2.5701,-2.5676,-2.5665,-2.5679,-2.5687,-2.5685,-2.5685,-2.5685,-2.5687,-2.5689,-2.5694,-2.4888,-2.4842,-2.4731,-2.4651,-2.4666,-2.4808,-2.4749,-2.4626,-2.4791,-2.4817,-2.4804,-2.4964,-2.519,-2.5341,-2.5378,-2.5393,-2.5401,-2.5464,-2.5484,-2.5511,-2.5511,-2.5511,-2.5511,-2.5511,-2.5511,-2.5511,-2.5515,-2.5543,-2.5589,-2.56,-2.5616,-2.5603,-2.5627,-2.565,-2.5677,-2.5701,-2.57,-2.5703,-2.5703,-2.57,-2.5701,-2.5703,-2.5703,-2.5703,-2.5703,-2.57,-2.5701,-2.5703,-2.5703,-2.5703,-2.5703,-2.5703,-2.5702,-2.5696,-2.5687,-2.5698,-2.5658,-2.5629,-2.5593,-2.5671,-2.6119,-2.6972,-2.801,-2.9074,-2.9941,-3.0131,-3.0226,-2.9939,-2.8543,-2.8173,-2.832,-2.8249,-2.7647,-2.7911,-2.8165,-2.831,-2.8429,-2.8452,-2.7788,-2.7203,-2.6877,-2.6715,-2.6598,-2.6596,-2.6598,-2.6346,-2.6126,-2.6327,-2.604,-2.5975,-2.5935,-2.587,-2.5847,-2.5714,-2.5714,-2.5699,-2.5699,-2.5703,-2.5703,-2.5687,-2.5691,-2.5704,-2.5701,-2.5705,-2.5691,-2.5689,-2.5689,-2.5676,-2.5677,-2.5691,-2.5687,-2.5689,-2.5694,-2.5698,-2.5702,-2.5069,-2.5069,-2.5032,-2.4893,-2.4697,-2.479,-2.4823,-2.4808,-2.4934,-2.5044,-2.507,-2.5176,-2.5292,-2.537,-2.5388,-2.5395,-2.5393,-2.5429,-2.5456,-2.5484,-2.5511,-2.5511,-2.5511,-2.5511,-2.5511,-2.5519,-2.5541,-2.557,-2.5609,-2.5648,-2.5648,-2.5662,-2.5643,-2.5664,-2.57,-2.5702,-2.5701,-2.5702,-2.5699,-2.5693,-2.5693,-2.5694,-2.5698,-2.5697,-2.5697,-2.57,-2.5699,-2.5697,-2.5696,-2.5697,-2.5701,-2.5703,-2.5703,-2.5697,-2.5687,-2.5676,-2.5629,-2.5556,-2.5526,-2.5643,-2.6162,-2.7464,-2.8537,-2.9399,-2.9963,-2.9787,-2.9492,-2.9033,-2.8447,-2.7977,-2.8022,-2.7612,-2.72,-2.7692,-2.7991,-2.8136,-2.8115,-2.8131,-2.8082,-2.7329,-2.6912,-2.6651,-2.6534,-2.6455,-2.6461,-2.6422,-2.6218,-2.6013,-2.58,-2.5648,-2.5675,-2.5694,-2.5687,-2.5699,-2.5699,-2.5699,-2.5699,-2.5707,-2.5691,-2.5704,-2.5696,-2.5691,-2.5698,-2.5699,-2.5681,-2.5663,-2.5644,-2.5644,-2.5643,-2.568,-2.5696,-2.5693,-2.5698,-2.5683,-2.5683,-2.521,-2.521,-2.521,-2.5076,-2.4879,-2.4902,-2.4902,-2.4929,-2.5091,-2.5192,-2.5313,-2.5321,-2.5367,-2.5395,-2.5415,-2.5421,-2.5426,-2.5418,-2.5437,-2.5484,-2.5511,-2.5511,-2.5511,-2.5511,-2.5511,-2.5519,-2.5541,-2.559,-2.564,-2.5687,-2.5685,-2.5684,-2.5691,-2.5691,-2.5689,-2.5689,-2.5693,-2.5697,-2.5694,-2.5687,-2.5687,-2.5689,-2.5689,-2.5689,-2.5689,-2.5691,-2.5691,-2.5691,-2.5693,-2.5697,-2.5701,-2.5703,-2.5703,-2.5698,-2.5666,-2.5623,-2.555,-2.5482,-2.5467,-2.5568,-2.6095,-2.7179,-2.775,-2.8593,-2.9113,-2.8982,-2.8756,-2.8977,-2.8192,-2.7605,-2.7797,-2.7535,-2.7031,-2.7348,-2.7741,-2.7873,-2.7582,-2.7478,-2.757,-2.739,-2.6934,-2.6344,-2.6517,-2.6396,-2.6139,-2.6135,-2.6016,-2.5871,-2.5785,-2.5685,-2.5693,-2.5687,-2.5697,-2.5687,-2.5699,-2.5691,-2.5704,-2.569,-2.5698,-2.5689,-2.5697,-2.5683,-2.5664,-2.5644,-2.5623,-2.5619,-2.5618,-2.5619,-2.5643,-2.5663,-2.5663,-2.5664,-2.5663,-2.5638,-2.5631,-2.521,-2.521,-2.5203,-2.5203,-2.516,-2.5195,-2.5111,-2.5031,-2.5182,-2.5274,-2.5313,-2.5352,-2.5381,-2.5422,-2.5461,-2.5483,-2.5483,-2.5453,-2.5456,-2.5511,-2.5511,-2.5511,-2.5511,-2.5511,-2.5511,-2.5511,-2.5565,-2.5611,-2.5696,-2.5707,-2.569,-2.5703,-2.5693,-2.5687,-2.5687,-2.5687,-2.5687,-2.5687,-2.5687,-2.5687,-2.5687,-2.5687,-2.5687,-2.5687,-2.5687,-2.5687,-2.5693,-2.5693,-2.5696,-2.5702,-2.5703,-2.5702,-2.5689,-2.5681,-2.5632,-2.5532,-2.551,-2.5432,-2.5331,-2.5313,-2.5842,-2.6583,-2.7141,-2.7448,-2.7834,-2.795,-2.8116,-2.8336,-2.7537,-2.7547,-2.7726,-2.7695,-2.7031,-2.6851,-2.7201,-2.7284,-2.6938,-2.6805,-2.688,-2.71,-2.6495,-2.5934,-2.6247,-2.6328,-2.5924,-2.5757,-2.5732,-2.57,-2.5703,-2.57,-2.5691,-2.5687,-2.5701,-2.5693,-2.569,-2.5693,-2.5701,-2.5687,-2.5694,-2.57,-2.5684,-2.566,-2.5636,-2.5613,-2.5605,-2.5615,-2.5615,-2.5615,-2.5625,-2.5648,-2.5616,-2.5615,-2.5607,-2.5598,-2.5606,-2.5222,-2.5282,-2.5313,-2.534,-2.5331,-2.5241,-2.5168,-2.5168,-2.5243,-2.5313,-2.5312,-2.5362,-2.5383,-2.5406,-2.5473,-2.5531,-2.5557,-2.5505,-2.5503,-2.555,-2.553,-2.553,-2.5538,-2.5534,-2.5519,-2.5569,-2.5608,-2.5635,-2.5701,-2.5702,-2.5693,-2.5699,-2.5693,-2.5689,-2.5687,-2.5687,-2.5687,-2.5687,-2.5687,-2.5687,-2.5687,-2.5687,-2.5687,-2.5687,-2.5687,-2.5691,-2.5698,-2.5698,-2.5702,-2.5703,-2.57,-2.5691,-2.5671,-2.5636,-2.5542,-2.548,-2.5446,-2.5348,-2.5322,-2.537,-2.5716,-2.6227,-2.6564,-2.6901,-2.7701,-2.7296,-2.7384,-2.7341,-2.672,-2.6611,-2.629,-2.6393,-2.6053,-2.6048,-2.6232,-2.624,-2.6084,-2.6091,-2.6183,-2.6537,-2.6289,-2.5898,-2.5949,-2.6108,-2.5815,-2.5701,-2.5691,-2.5703,-2.5702,-2.5703,-2.5698,-2.57,-2.5698,-2.5694,-2.5691,-2.5693,-2.5694,-2.5697,-2.5701,-2.5703,-2.568,-2.5644,-2.5632,-2.5603,-2.5605,-2.5609,-2.5613,-2.5613,-2.5595,-2.56,-2.559,-2.5606,-2.56,-2.5609,-2.5598,-2.5203,-2.5284,-2.5339,-2.5382,-2.539,-2.5332,-2.5302,-2.5293,-2.5332,-2.5361,-2.5367,-2.5434,-2.5479,-2.5492,-2.5529,-2.559,-2.5626,-2.557,-2.5549,-2.5596,-2.555,-2.5569,-2.5573,-2.5564,-2.557,-2.5621,-2.5669,-2.5691,-2.5699,-2.5703,-2.5696,-2.5696,-2.5691,-2.5681,-2.5681,-2.5679,-2.5687,-2.5687,-2.5687,-2.5687,-2.5687,-2.5687,-2.5687,-2.5687,-2.5689,-2.5694,-2.5701,-2.5703,-2.5703,-2.5697,-2.5707,-2.569,-2.5625,-2.5552,-2.5473,-2.5439,-2.5395,-2.533,-2.5348,-2.5387,-2.5693,-2.6017,-2.6242,-2.6529,-2.6934,-2.6546,-2.6662,-2.652,-2.5936,-2.5926,-2.5944,-2.5933,-2.5761,-2.5769,-2.5775,-2.5818,-2.5761,-2.5806,-2.6064,-2.6367,-2.6326,-2.5976,-2.5702,-2.5715,-2.5705,-2.5707,-2.5689,-2.5703,-2.5699,-2.5703,-2.5702,-2.5703,-2.5703,-2.57,-2.5699,-2.5701,-2.5702,-2.5702,-2.5683,-2.5677,-2.5661,-2.5613,-2.5613,-2.5595,-2.5605,-2.5595,-2.5599,-2.5607,-2.5593,-2.5579,-2.5556,-2.5571,-2.5595,-2.5591,-2.56,-2.5157,-2.5196,-2.5284,-2.5348,-2.5406,-2.547,-2.5459,-2.5406,-2.5447,-2.5465,-2.5422,-2.5544,-2.5576,-2.5589,-2.5601,-2.564,-2.5667,-2.5632,-2.5628,-2.5607,-2.5587,-2.5599,-2.5618,-2.5606,-2.5629,-2.5679,-2.5687,-2.5707,-2.5699,-2.5693,-2.5689,-2.5689,-2.5689,-2.5679,-2.5673,-2.5679,-2.5685,-2.5681,-2.5705,-2.5707,-2.5687,-2.5689,-2.5691,-2.5693,-2.5696,-2.57,-2.5703,-2.5703,-2.5699,-2.5689,-2.5696,-2.5621,-2.5566,-2.5523,-2.546,-2.5418,-2.5387,-2.5414,-2.541,-2.5447,-2.551,-2.5737,-2.5671,-2.5596,-2.5699,-2.595,-2.6147,-2.6272,-2.6034,-2.6283,-2.6463,-2.6155,-2.5862,-2.585,-2.586,-2.582,-2.5738,-2.5878,-2.6171,-2.6308,-2.6188,-2.5955,-2.5742,-2.5698,-2.5691,-2.5689,-2.5691,-2.5699,-2.5703,-2.5703,-2.5703,-2.5702,-2.5703,-2.5703,-2.5703,-2.5703,-2.5703,-2.5702,-2.567,-2.5651,-2.5621,-2.56,-2.5605,-2.5615,-2.5613,-2.5595,-2.5577,-2.5577,-2.5583,-2.555,-2.5512,-2.5544,-2.5556,-2.5562,-2.5556,-2.5293,-2.5412,-2.5471,-2.5556,-2.5615,-2.5634,-2.556,-2.5486,-2.55,-2.5492,-2.548,-2.5559,-2.5613,-2.5605,-2.5629,-2.5693,-2.5701,-2.5691,-2.5684,-2.5656,-2.5613,-2.5634,-2.5644,-2.5664,-2.5703,-2.5703,-2.5703,-2.5703,-2.5703,-2.5696,-2.5687,-2.5687,-2.5707,-2.5681,-2.5676,-2.5703,-2.5676,-2.5671,-2.5681,-2.5689,-2.5693,-2.5697,-2.5698,-2.57,-2.5703,-2.5703,-2.5698,-2.5696,-2.5703,-2.5704,-2.5714,-2.5671,-2.5648,-2.5546,-2.5454,-2.543,-2.5432,-2.5473,-2.5492,-2.558,-2.5632,-2.5616,-2.5629,-2.5629,-2.5662,-2.5723,-2.5857,-2.5927,-2.5974,-2.6104,-2.635,-2.6213,-2.6055,-2.6052,-2.6099,-2.6169,-2.6015,-2.5816,-2.6128,-2.6302,-2.6199,-2.6012,-2.5801,-2.5702,-2.5697,-2.5693,-2.5694,-2.57,-2.5702,-2.5702,-2.5703,-2.5701,-2.5698,-2.5702,-2.5699,-2.5694,-2.5694,-2.5691,-2.5645,-2.5621,-2.5609,-2.561,-2.5609,-2.5587,-2.5564,-2.5557,-2.5529,-2.5529,-2.5524,-2.548,-2.5437,-2.548,-2.5522,-2.5517,-2.5505,-2.5351,-2.5476,-2.5531,-2.5624,-2.5695,-2.5691,-2.564,-2.5591,-2.5589,-2.5582,-2.5547,-2.5629,-2.5659,-2.5648,-2.5681,-2.5705,-2.5705,-2.5693,-2.5703,-2.5689,-2.5636,-2.5661,-2.5703,-2.5703,-2.5703,-2.5703,-2.5703,-2.5703,-2.5703,-2.5698,-2.5691,-2.5665,-2.5679,-2.5654,-2.5645,-2.5648,-2.5671,-2.5651,-2.5659,-2.5693,-2.5699,-2.5702,-2.5703,-2.5742,-2.574,-2.5694,-2.572,-2.5718,-2.5707,-2.58,-2.5874,-2.594,-2.5795,-2.5535,-2.5477,-2.5466,-2.5537,-2.557,-2.5613,-2.5634,-2.5687,-2.5693,-2.5699,-2.5681,-2.5676,-2.5711,-2.5728,-2.5759,-2.5729,-2.5775,-2.6065,-2.6298,-2.6288,-2.6264,-2.6425,-2.66,-2.626,-2.5835,-2.5988,-2.6264,-2.6212,-2.6048,-2.5897,-2.5761,-2.5701,-2.57,-2.5702,-2.5703,-2.5703,-2.5702,-2.5703,-2.5701,-2.5696,-2.5693,-2.5685,-2.5681,-2.5654,-2.5642,-2.5609,-2.5581,-2.5586,-2.5571,-2.555,-2.5525,-2.5524,-2.5495,-2.5476,-2.5456,-2.5437,-2.5395,-2.537,-2.5388,-2.5415,-2.5448,-2.5429,-2.5351,-2.5421,-2.5492,-2.5595,-2.5695,-2.5687,-2.5691,-2.5697,-2.5687,-2.5651,-2.5613,-2.5657,-2.5705,-2.5683,-2.5691,-2.5689,-2.5689,-2.5705,-2.5689,-2.5703,-2.5681,-2.5703,-2.5703,-2.5703,-2.5703,-2.5703,-2.5703,-2.5703,-2.5703,-2.5689,-2.5645,-2.56,-2.5645,-2.5642,-2.557,-2.5651,-2.5679,-2.5651,-2.5672,-2.5703,-2.5703,-2.5703,-2.5738,-2.5835,-2.5793,-2.573,-2.5798,-2.5771,-2.5707,-2.5964,-2.6244,-2.6349,-2.6048,-2.5566,-2.5541,-2.5535,-2.5623,-2.5659,-2.567,-2.5679,-2.5679,-2.5702,-2.5703,-2.5703,-2.5703,-2.5702,-2.5701,-2.5697,-2.5691,-2.5703,-2.591,-2.6423,-2.6592,-2.6465,-2.6482,-2.6468,-2.6165,-2.5823,-2.5762,-2.5983,-2.5976,-2.5832,-2.582,-2.5702,-2.5703,-2.5703,-2.57,-2.5696,-2.5702,-2.5703,-2.5703,-2.5699,-2.5699,-2.5693,-2.5661,-2.5632,-2.5601,-2.5576,-2.5535,-2.5517,-2.5517,-2.5499,-2.5478,-2.5476,-2.5461,-2.544,-2.5406,-2.5397,-2.5369,-2.5351,-2.5312,-2.5311,-2.5331,-2.5351,-2.5341,-2.5486,-2.555,-2.5626,-2.5663,-2.5699,-2.5699,-2.5694,-2.5704,-2.5694,-2.5701,-2.5693,-2.5683,-2.5687,-2.5689,-2.5698,-2.5698,-2.5691,-2.5691,-2.5691,-2.5699,-2.5702,-2.5703,-2.5703,-2.5703,-2.5703,-2.5703,-2.5703,-2.5689,-2.5706,-2.5673,-2.5624,-2.5613,-2.5628,-2.5598,-2.5565,-2.5673,-2.5683,-2.5681,-2.5681,-2.5762,-2.584,-2.5853,-2.59,-2.6208,-2.632,-2.6211,-2.6181,-2.6006,-2.5843,-2.5835,-2.6562,-2.6749,-2.6663,-2.6015,-2.5707,-2.5672,-2.5675,-2.5698,-2.5702,-2.5703,-2.5703,-2.5703,-2.5703,-2.5702,-2.5702,-2.5701,-2.5702,-2.5703,-2.5701,-2.5697,-2.587,-2.6439,-2.6853,-2.6678,-2.649,-2.6298,-2.6081,-2.5838,-2.5613,-2.5629,-2.5661,-2.5675,-2.5683,-2.5684,-2.5703,-2.5699,-2.5687,-2.5691,-2.5703,-2.5694,-2.5698,-2.5696,-2.5702,-2.568,-2.5646,-2.5613,-2.5566,-2.5535,-2.5493,-2.5479,-2.5446,-2.5449,-2.5429,-2.5421,-2.5395,-2.5361,-2.5322,-2.5341,-2.5321,-2.529,-2.528,-2.5258,-2.5214,-2.5217,-2.522,-2.555,-2.5611,-2.5659,-2.5699,-2.5699,-2.5703,-2.5694,-2.5701,-2.5694,-2.5704,-2.5698,-2.5705,-2.5687,-2.5687,-2.5698,-2.5702,-2.5697,-2.5696,-2.5696,-2.5698,-2.5703,-2.5703,-2.5703,-2.5703,-2.5703,-2.5703,-2.5703,-2.5701,-2.5687,-2.5638,-2.5608,-2.5596,-2.5605,-2.5621,-2.5629,-2.5673,-2.5711,-2.5697,-2.5723,-2.5916,-2.615,-2.6329,-2.6679,-2.702,-2.7211,-2.7004,-2.6599,-2.6451,-2.6403,-2.6331,-2.6815,-2.694,-2.6732,-2.6127,-2.5759,-2.5683,-2.5683,-2.5703,-2.5703,-2.5702,-2.5701,-2.57,-2.5699,-2.5697,-2.5696,-2.5694,-2.5694,-2.57,-2.5702,-2.5698,-2.5916,-2.6386,-2.6717,-2.6743,-2.6624,-2.6481,-2.6071,-2.5676,-2.5581,-2.5615,-2.5609,-2.5593,-2.5619,-2.5648,-2.5654,-2.565,-2.566,-2.5692,-2.5695,-2.5673,-2.5681,-2.5681,-2.567,-2.5689,-2.5687,-2.5619,-2.5525,-2.5492,-2.5444,-2.5434,-2.5401,-2.5378,-2.5361,-2.5351,-2.5303,-2.5261,-2.5248,-2.5236,-2.5248,-2.5244,-2.5233,-2.5222,-2.5175,-2.512,-2.5125,-2.5595,-2.5615,-2.5678,-2.5694,-2.5694,-2.5701,-2.5687,-2.5687,-2.569,-2.5679,-2.5693,-2.5696,-2.5694,-2.5691,-2.5679,-2.5701,-2.5703,-2.5701,-2.5703,-2.5702,-2.5703,-2.5703,-2.5703,-2.5703,-2.5703,-2.5703,-2.5703,-2.5701,-2.5698,-2.5635,-2.5601,-2.5602,-2.5634,-2.566,-2.571,-2.5712,-2.575,-2.5894,-2.6035,-2.6344,-2.6681,-2.7046,-2.7507,-2.7948,-2.8201,-2.7815,-2.7316,-2.6997,-2.703,-2.6743,-2.6654,-2.6834,-2.6699,-2.6191,-2.5859,-2.5702,-2.5702,-2.5698,-2.5694,-2.5693,-2.5693,-2.5691,-2.5689,-2.5687,-2.5687,-2.5687,-2.5687,-2.567,-2.5682,-2.5742,-2.5955,-2.6107,-2.6423,-2.6591,-2.6515,-2.6454,-2.5939,-2.5525,-2.5538,-2.5576,-2.5556,-2.5537,-2.5568,-2.5604,-2.5605,-2.5601,-2.5609,-2.5643,-2.5665,-2.5648,-2.5639,-2.564,-2.5648,-2.5643,-2.5654,-2.5613,-2.5515,-2.5445,-2.5412,-2.5388,-2.5341,-2.5312,-2.529,-2.5239,-2.5214,-2.518,-2.5125,-2.5101,-2.5132,-2.5163,-2.5113,-2.5088,-2.5076,-2.5038,-2.5044,-2.5605,-2.56,-2.5681,-2.5694,-2.5696,-2.57,-2.5702,-2.5702,-2.5646,-2.5616,-2.5624,-2.5621,-2.5642,-2.5683,-2.5646,-2.5646,-2.5683,-2.5689,-2.5693,-2.5703,-2.5683,-2.5684,-2.5703,-2.5703,-2.5703,-2.5703,-2.5696,-2.5702,-2.5687,-2.5641,-2.5641,-2.5696,-2.5615,-2.5878,-2.647,-2.6278,-2.5925,-2.6089,-2.6248,-2.6465,-2.7401,-2.7762,-2.802,-2.8352,-2.8598,-2.8307,-2.7901,-2.7336,-2.6673,-2.6188,-2.6093,-2.6464,-2.6423,-2.6168,-2.5814,-2.5697,-2.5694,-2.5693,-2.5689,-2.5683,-2.5683,-2.5672,-2.567,-2.5664,-2.5664,-2.5666,-2.5654,-2.5617,-2.5597,-2.557,-2.5699,-2.5682,-2.5876,-2.5842,-2.5762,-2.5766,-2.5522,-2.5441,-2.5444,-2.5466,-2.5499,-2.5512,-2.5576,-2.5582,-2.5576,-2.5579,-2.555,-2.557,-2.5648,-2.5634,-2.5593,-2.5595,-2.5609,-2.557,-2.5556,-2.5541,-2.5481,-2.5436,-2.537,-2.5313,-2.5262,-2.5248,-2.5203,-2.518,-2.5132,-2.5063,-2.5025,-2.4987,-2.498,-2.4993,-2.4961,-2.4947,-2.4947,-2.498,-2.4999]}]]